[[{"header":{"parameterUnit":"m.s-1","parameterCategory":1,"la1":31.0,"la2":29.5877,"lo1":-88.7671,"lo2":-86.6584,"dy":0.0162,"dx":0.0185,"nx":115,"ny":88,"refTime":"2024-05-20T06:00:00:Z","depth":0,"parameterNumber":2,"parameterNumberName":"U-component_of_WINDS"},"data":[0.0,0.0,0.0,0.0,0.0,0.0,0.0,0.0,0.0,0.0,0.0,0.0,0.0,0.0,0.0,0.0,0.0,0.0,0.0,0.0,0.0,0.0,0.0,0.0,0.0,0.0,0.0,0.0,0.0,0.0,0.0,0.0,0.0,0.0,0.0,0.0,0.0,0.0,0.0,0.0,0.0,0.0,0.0,0.0,0.0,0.0,0.0,0.0,0.0,0.0,0.0,0.0,0.0,0.0,0.0,0.0,0.0,0.0,0.0,0.0,0.0,0.0,0.0,0.0,0.0,0.0,0.0,0.0,0.0,0.0,0.0,0.0,0.0,0.0,0.0,0.0,0.0,0.0,0.0,0.0,0.0,0.0,0.0,0.0,0.0,0.0,0.0,0.0,0.0,0.0,0.0,0.0,0.0,0.0,0.0,0.0,0.0,0.0,0.0,0.0,0.0,0.0,0.0,0.0,0.0,0.0,0.0,0.0,0.0,0.0,0.0,0.0,0.0,0.0,0.0,0.0,0.0,0.0,0.0,0.0,0.0,0.0,0.0,0.0,0.0,0.0,0.0,0.0,0.0,0.0,0.0,0.0,0.0,0.0,0.0,0.0,0.0,0.0,0.0,0.0,0.0,0.0,0.0,0.0,0.0,0.0,0.0,0.0,0.0,0.0,0.0,0.0,0.0,0.0,0.0,0.0,0.0,0.0,0.0,0.0,0.0,0.0,0.0,0.0,0.0,0.0,0.0,0.0,0.0,0.0,0.0,0.0,0.0,0.0,0.0,0.0,0.0,0.0,0.0,0.0,0.0,0.0,0.0,0.0,0.0,0.0,0.0,0.0,0.0,0.0,0.0,0.0,0.0,0.0,0.0,0.0,0.0,0.0,0.0,0.0,0.0,0.0,0.0,0.0,0.0,0.0,0.0,0.0,0.0,0.0,0.0,0.0,0.0,0.0,0.0,0.0,0.0,0.0,0.0,0.0,0.0,0.0,0.0,0.0,0.0,0.0,0.0,0.0,0.0,0.0,0.0,0.0,0.0,0.0,0.0,0.0,0.0,0.0,0.0,0.0,0.0,0.0,0.0,0.0,0.0,0.0,0.0,0.0,0.0,0.0,0.0,0.0,0.0,0.0,0.0,0.0,0.0,0.0,0.0,0.0,0.0,0.0,0.0,0.0,0.0,0.0,0.0,0.0,0.0,0.0,0.0,0.0,0.0,0.0,0.0,0.0,0.0,0.0,0.0,0.0,0.0,0.0,0.0,0.0,0.0,0.0,0.0,0.0,0.0,0.0,0.0,0.0,0.0,0.0,0.0,0.0,0.0,0.0,0.0,0.0,0.0,0.0,0.0,0.0,0.0,0.0,0.0,0.0,0.0,0.0,0.0,0.0,0.0,0.0,0.0,0.0,0.0,0.0,0.0,0.0,0.0,0.0,0.0,0.0,0.0,0.0,0.0,0.0,0.0,0.0,0.0,0.0,0.0,0.0,0.0,0.0,0.0,0.0,0.0,0.0,0.0,0.0,0.0,0.0,0.0,0.0,0.0,0.0,0.0,0.0,0.0,0.0,0.0,0.0,0.0,0.0,0.0,0.0,0.0,0.0,0.0,0.0,0.0,0.0,0.0,0.0,0.0,0.0,0.0,0.0,0.0,0.0,0.0,0.0,0.0,0.0,0.0,0.0,0.0,0.0,0.0,0.0,0.0,0.0,0.0,0.0,0.0,0.0,0.0,0.0,0.0,0.0,0.0,0.0,0.0,0.0,0.0,0.0,0.0,0.0,0.0,0.0,0.0,0.0,0.0,0.0,0.0,0.0,0.0,0.0,0.0,0.0,0.0,0.0,0.0,0.0,0.0,0.0,0.0,0.0,0.0,0.0,0.0,0.0,0.0,0.0,0.0,0.0,0.0,0.0,0.0,0.0,0.0,0.0,0.0,0.0,0.0,0.0,0.0,0.0,0.0,0.0,0.0,0.0,0.0,0.0,0.0,0.0,0.0,0.0,0.0,0.0,0.0,0.0,0.0,0.0,0.0,0.0,0.0,0.0,0.0,0.0,0.0,0.0,0.0,0.0,0.0,0.0,0.0,0.0,0.0,0.0,0.0,0.0,0.0,0.0,0.0,0.0,0.0,0.0,0.0,0.0,0.0,0.0,0.0,0.0,0.0,0.0,0.0,0.0,0.0,0.0,0.0,0.0,0.0,0.0,0.0,0.0,0.0,0.0,0.0,0.0,0.0,0.0,0.0,0.0,0.0,0.0,0.0,0.0,0.0,0.0,0.0,0.0,0.0,0.0,0.0,0.0,0.0,0.0,0.0,0.0,0.0,0.0,0.0,0.0,0.0,0.0,0.0,0.0,0.0,0.0,0.0,0.0,0.0,0.0,0.0,0.0,0.0,0.0,0.0,0.0,0.0,0.0,0.0,0.0,0.0,0.0,0.0,0.0,0.0,0.0,0.0,0.0,0.0,0.0,0.0,0.0,0.0,0.0,0.0,0.0,0.0,0.0,0.0,0.0,0.0,0.0,0.0,0.0,0.0,0.0,0.0,0.0,0.0,0.0,0.0,0.0,0.0,0.0,0.0,0.0,0.0,0.0,0.0,0.0,0.0,0.0,0.0,0.0,0.0,0.0,0.0,0.0,0.0,0.0,0.0,0.0,0.0,0.0,0.0,0.0,0.0,0.0,0.0,0.0,0.0,0.0,0.0,0.0,0.0,0.0,0.0,0.0,0.0,0.0,0.0,0.0,0.0,0.0,0.0,0.0,0.0,0.0,0.0,0.0,0.0,0.0,0.0,0.0,0.0,0.0,0.0,0.0,0.0,0.0,0.0,0.0,0.0,0.0,0.0,0.0,0.0,0.0,0.0,0.0,0.0,0.0,0.0,0.0,0.0,0.0,0.0,0.0,0.0,0.0,0.0,0.0,0.0,0.0,0.0,0.0,0.0,0.0,0.0,0.0,0.0,0.0,0.0,0.0,0.0,0.0,0.0,0.0,0.0,0.0,0.0,0.0,0.0,0.0,0.0,0.0,0.0,0.0,0.0,0.0,0.0,0.0,0.0,0.0,0.0,0.0,0.0,0.0,0.0,0.0,0.0,0.0,0.0,0.0,0.0,0.0,0.0,0.0,0.0,0.0,0.0,0.0,0.0,0.0,0.0,0.0,0.0,0.0,0.0,0.0,0.0,0.0,0.0,0.0,0.0,0.0,0.0,0.0,0.0,0.0,0.0,0.0,0.0,0.0,0.0,0.0,0.0,0.0,0.0,0.0,0.0,0.0,0.0,0.0,0.0,0.0,0.0,0.0,0.0,0.0,0.0,0.0,0.0,0.0,0.0,0.0,0.0,0.0,0.0,0.0,0.0,0.0,0.0,0.0,0.0,0.0,0.0,0.0,0.0,0.0,0.0,0.0,0.0,0.0,0.0,0.0,0.0,0.0,0.0,0.0,0.0,0.0,0.0,0.0,0.0,0.0,0.0,0.0,0.0,0.0,0.0,0.0,0.0,0.0,0.0,0.0,0.0,0.0,0.0,0.0,0.0,0.0,0.0,0.0,0.0,0.0,0.0,0.0,0.0,0.0,0.0,0.0,0.0,0.0,0.0,0.0,0.0,0.0,0.0,0.0,0.0,0.0,0.0,0.0,0.0,0.0,0.0,0.0,0.0,0.0,0.0,0.0,0.0,0.0,0.0,0.0,0.0,0.0,0.0,0.0,0.0,0.0,0.0,0.0,0.0,0.0,0.0,0.0,0.0,0.0,0.0,0.0,0.0,0.0,0.0,0.0,0.0,0.0,0.0,0.0,0.0,0.0,0.0,0.0,0.0,0.0,0.0,0.0,0.0,0.0,0.0,0.0,0.0,0.0,0.0,0.0,0.0,0.0,0.0,0.0,0.0,0.0,0.0,0.0,0.0,0.0,0.0,0.0,0.0,0.0,0.0,0.0,0.0,0.0,0.0,0.0,0.0,0.0,0.0,0.0,0.0,0.0,0.0,0.0,0.0,0.0,0.0,0.0,0.0,0.0,0.0,0.0,0.0,0.0,0.0,0.0,0.0,0.0,0.0,0.0,0.0,0.0,0.0,0.0,0.0,0.0,0.0,0.0,0.0,0.0,0.0,0.0,0.0,0.0,0.0,0.0,0.0,0.0,0.0,0.0,0.0,0.0,0.0,0.0,0.0,0.0,0.0,0.0,0.0,0.0,0.0,0.0,0.0,0.0,0.0,0.0,0.0,0.0,0.0,0.0,0.0,0.0,0.0,0.0,0.0,0.0,0.0,0.0,0.0,0.0,0.0191,0.0,0.0,0.0,0.0,0.0,0.0,0.0,0.0,0.0,0.0,0.0,0.0,0.0,0.0,0.0,0.0,0.0,0.0,0.0,0.0,0.0,0.0,0.0,0.0,0.0,0.0,0.0,0.0,0.0,0.0,0.0,0.0,0.0,0.0,0.0,0.0,0.0,0.0,0.0,0.0,0.0,0.0,0.0,0.0,0.0,0.0,0.0,0.0,0.0,0.0,0.0,0.0,0.0,0.0,0.0,0.0,0.0,0.0,0.0,0.0,0.0,0.0,0.0,0.0,0.0,0.0,0.0,0.0,0.0,0.0,0.0,0.0,0.0,0.0,0.0,0.0,0.0,0.0,0.0,0.0,0.0,0.0,0.0,0.0,0.0,0.0,0.0,0.0,0.0,0.0,0.0,0.0,0.0,0.0,0.0,0.0,0.0,0.0,0.0,0.0,0.0,0.0,0.0,0.0,0.0,0.0,0.0,0.0,0.0,0.0,0.1183,0.0948,0.0672,0.0382,0.0146,0.0,0.0,0.0,0.0,0.0,0.0,0.0,0.0,0.0,0.0,0.0,0.0,0.0,0.0,0.0,0.0,0.0,0.0,0.0,0.0,0.0,0.0,0.0,0.0,0.0,0.0,0.0,0.0,0.0,0.0,0.0,0.0,0.0,0.0,0.0,0.0,0.0,0.0,0.0,0.0,0.0,0.0,0.0,0.0,0.0,0.0,0.0,0.0,0.0,0.0,0.0,0.0,0.0,0.0,0.0,0.0,0.0,0.0,0.0,0.0,0.0,0.0,0.0,0.0,0.0,0.0,0.0,0.0,0.0,0.0,0.0,0.0,0.0,0.0,0.0,0.0,0.0,0.0,0.0,0.0,0.0,0.0,0.0,0.0,0.0,0.0,0.0,0.0,0.0,0.0,0.0,0.0,0.0,0.0,0.0,0.0,0.0,0.0,0.0,0.0,0.0,0.0,0.0,0.0,0.0,0.0,0.0,0.0,0.0,0.0,0.0,0.0,0.0683,0.037,0.0045,0.0,0.0,0.0,0.0,0.0,0.0,0.0,0.0,0.0,0.0,0.0,0.0,0.0,0.0,0.0,0.0,0.0,0.0,0.0,0.0,0.0,0.0,0.0,0.0,0.0,0.0,0.0,0.0,0.0,0.0,0.0,0.0,0.0,0.0,0.0,0.0,0.0,0.0,0.0,0.0,0.0,0.0,0.0,0.0,0.0,0.0,0.0,0.0,0.0,0.0,0.0,0.0,0.0,0.0,0.0,0.0,0.0,0.0,0.0,0.0,0.0,0.0,0.0,0.0,0.0,0.0,0.0,0.0,0.0,0.0,0.0,0.0,0.0,0.0,0.0,0.0,0.0,0.0,0.0,0.0,0.0,0.0,0.0,0.0,0.0,0.0,0.0,0.0,0.0,0.0,0.0,0.0,0.0,0.0,0.0,0.0,0.0,0.0,0.0,0.0,0.0,0.0,0.0,0.0,0.0,0.0,0.0,0.0,0.0,0.0,0.123,0.0925,0.0703,0.0,-0.0146,0.0,0.0,0.0,0.0,0.0,0.0,0.0,0.0,0.0,0.0,0.0,0.0,0.0,0.0,0.0,0.0,0.0,0.0,0.0,0.0,0.0,0.0,0.0,0.0,0.0,0.0,0.0,0.0,0.0,0.0,0.0,0.0,0.0,0.0,0.0,0.0,0.0,0.0,0.0,0.0,0.0,0.0,0.0,0.0,0.0,0.0,0.0,0.0,0.0,0.0,0.0,0.0,0.0,0.0,0.0,0.0,0.0,0.0,0.0,0.0,0.0,0.0,0.0,0.0,0.0,0.0,0.0,0.0,0.0,0.0,0.0,0.0,0.0,0.0,0.0,0.0,0.0,0.0,0.0,0.0,0.0,0.0,0.0,0.0,0.0,0.0,0.0,0.0,0.0,0.0,0.0,0.0,0.0,0.0,0.0,0.0,0.0,0.0,0.0,0.0,0.0,0.0,0.0,0.0,0.0,0.0,0.0,0.0,0.0,0.0,0.0,0.0785,0.0471,0.0179,0.0,0.0,0.0,0.0,0.0,0.0,0.0,0.0,0.0,0.0,0.0,0.0,0.0,0.0,0.0,0.0,0.0,0.0,0.0,0.0,0.0,0.0,0.0,0.0,0.0,0.0,0.0,0.0,0.0,0.0,0.0,0.0,0.0,0.0,0.0,0.0,0.0,0.0,0.0,0.0,0.0,0.0,0.0,0.0,0.0,0.0,0.0,0.0,0.0,0.0,0.0,0.0,0.0,0.0,0.0,0.0,0.0,0.0,0.0,0.0,0.0,0.0,0.0,0.0,0.0,0.0,0.0,0.0,0.0,0.0,0.0,0.0,0.0,0.0,0.0,0.0,0.0,0.0,0.0,0.0,0.0,0.0,0.0,0.0,0.0,0.0,0.0,0.0,0.0,0.0,0.0,0.0,0.0,0.0,0.0,0.0,0.0,0.0,0.0,0.0,0.0,0.0,0.0,0.0,0.0,0.0,0.0,0.0,0.0,0.0,0.1105,0.0,0.0641,0.0292,0.0056,-0.0056,0.0,0.0,0.0,0.0,0.0,0.0,0.0,0.0,0.0,0.0,0.0,0.0,0.0,0.0,0.0,0.0,0.0,0.0,0.0,0.0,0.0,0.0,0.0,0.0,0.0,0.0,0.0,0.0,0.0,0.0,0.0,0.0,0.0,0.0,0.0,0.0,0.0,0.0,0.0,0.0,0.0,0.0,0.0,0.0,0.0,0.0,0.0,0.0,0.0,0.0,0.0,0.0,0.0,0.0,0.0,0.0,0.0,0.0,0.0,0.0,0.0,0.0,0.0,0.0,0.0,0.0,0.0,0.0,0.0,0.0,0.0,0.0,0.0,0.0,0.0,0.0,0.0,0.0,0.0,0.0,0.0,0.0,0.0,0.0,0.0,0.0,0.0,0.0,0.0,0.0,0.0,0.0,0.0,0.0,0.0,0.0,0.0,0.0,0.0,0.0,0.0,0.0,0.0,0.0,0.0,0.0,0.0,0.0,0.0,0.0925,0.0782,0.0517,0.0247,0.009,0.0,0.0,0.0,0.0,0.0,0.0,0.0,0.0,0.0,0.0,0.0,0.0,0.0,0.0,0.0,0.0,0.0,0.0,0.0,0.0,0.0,0.0,0.0,0.0,0.0,0.0,0.0,0.0,0.0,0.0,0.0,0.0,0.0,0.0,0.0,0.0,0.0,0.0,0.0,0.0,0.0,0.0,0.0,0.0,0.0,0.0,0.0,0.0,0.0,0.0,0.0,0.0,0.0,0.0,0.0,0.0,0.0,0.0,0.0,0.0,0.0,0.0,0.0,0.0,0.0,0.0,0.0,0.0,0.0,0.0,0.0,0.0,0.0,0.0,0.0,0.0,0.0,0.0,0.0,0.0,0.0,0.0,0.0,0.0,0.0,0.0,0.0,0.0,0.0,0.0,0.0,0.0,0.0,0.0,0.0,0.0,0.0,0.0,0.0,0.0,0.0,0.0,0.0,0.0,0.0,0.0,0.0,0.0,0.0,0.0728,0.0638,0.055,0.0427,0.0304,0.0191,0.0,0.0,0.0,0.0,0.0,0.0,0.0,0.0,0.0,0.0,0.0,0.0,0.0,0.0,0.0,0.0,0.0,0.0,0.0,0.0,0.0,0.0,0.0,0.0,0.0,0.0,0.0,0.0,0.0,0.0,0.0,0.0,0.0,0.0,0.0,0.0,0.0,0.0,0.0,0.0,0.0,0.0,0.0,0.0,0.0,0.0,0.0,0.0,0.0,0.0,0.0,0.0,0.0,0.0,0.0,0.0,0.0,0.0,0.0,0.0,0.0,0.0,0.0,0.0,0.0,0.0,0.0,0.0,0.0,0.0,0.0,0.0,0.0,0.0,0.0,0.0,0.0,0.0,0.0,0.0,0.0,0.0,0.0,0.0,0.0,0.0,0.0,0.0,0.0,0.0,0.0,0.0,0.0,0.0,0.0,0.0,0.0,0.0,0.0,0.0,0.0,0.0,0.0,0.0,0.0,0.0,0.0,0.0,0.0,0.0529,0.0,0.0394,0.0,0.0337,0.0247,0.0,0.0,0.0,0.0,0.0,0.0,0.0,0.0,0.0,0.0,0.0,0.0,0.0,0.0,0.0,0.0,0.0,0.0,0.0,0.0,0.0,0.0,0.0,0.0,0.0,0.0,0.0,0.0,0.0,0.0,0.0,0.0,0.0,0.0,0.0,0.0,0.0,0.0,0.0,0.0,0.0,0.0,0.0,0.0,0.0,0.0,0.0,0.0,0.0,0.0,0.0,0.0,0.0,0.0,0.0,0.0,0.0,0.0,0.0,0.0,0.0,0.0,0.0,0.0,0.0,0.0,0.0,0.0,0.0,0.0,0.0,0.0,0.0,0.0,0.0,0.0,0.0,0.0,0.0,0.0,0.0,0.0,0.0,0.0,0.0,0.0,0.0,0.0,0.0,0.0,0.0,0.0,0.0,0.0,0.0,0.0,0.0,0.0,0.0,0.0,0.0,0.0,0.0,0.0,0.0,0.0,0.0,0.0,0.0395,0.0406,0.0395,0.0385,0.0395,0.0339,0.026,0.0,0.0,0.0,0.0,0.0,0.0,0.0,0.0,0.0,0.0,0.0,0.0,0.0,0.0,0.0,0.0,0.0,0.0,0.0,0.0,0.0,0.0,0.0,0.0,0.0,0.0,0.0,0.0,0.0,0.0,0.0,0.0,0.0,0.0,0.0,0.0,0.0,0.0,0.0,0.0,0.0,0.0,0.0,0.0,0.0,0.0,0.0,0.0,0.0,0.0,0.0,0.0,0.0,0.0,0.0,0.0,0.0,0.0,0.0,0.0,0.0,0.0,0.0,0.0,0.0,0.0,0.0,0.0,0.0,0.0,0.0,0.0,0.0,0.0,0.0,0.0,0.0,0.0,0.0,0.0,0.0,0.0,0.0,0.0,0.0,0.0,0.0,0.0,0.0,0.0,0.0,0.0,0.0,0.0,0.0,0.0,0.0,0.0,0.0,0.0,0.0,0.0,0.0,0.0,0.0,0.0,0.0,0.0,0.0,0.0122,0.022,0.0289,0.0329,0.0302,0.0269,0.0,0.0,0.0,0.0,0.0,0.0,0.0,0.0,0.0,0.0,0.0,0.0,0.0,0.0,0.0,0.0,0.0,0.0,0.0,0.0,0.0,0.0,0.0,0.0,0.0,0.0,0.0,0.0,0.0,0.0,0.0,0.0,0.0,0.0,0.0,0.0,0.0,0.0,0.0,0.0,0.0,0.0,0.0,0.0,0.0,0.0,0.0,0.0,0.0,0.0,0.0,0.0,0.0,0.0,0.0,0.0,0.0,0.0,0.0,0.0,0.0,0.0,0.0,0.0,0.0,0.0,0.0,0.0,0.0,0.0,0.0,0.0,0.0,0.0,0.0,0.0,0.0,0.0,0.0,0.0,0.0,0.0,0.0,0.0,0.0,0.0,0.0,0.0,0.0,0.0,0.0,0.0,0.0,0.0,0.0,0.0,0.0,0.0,0.0,0.0,0.0,0.0,0.0,0.0,0.0,0.0,0.0,0.0,0.0,-0.0367,-0.0138,0.0028,0.0116,0.0168,0.0174,0.0152,0.0,0.0,0.0,0.0,0.0,0.0,0.0,0.0,0.0,0.0,0.0,0.0,0.0,0.0,0.0,0.0,0.0,0.0,0.0,0.0,0.0,0.0,0.0,0.0,0.0,0.0,0.0,0.0,0.0,0.0,0.0,0.0,0.0,0.0,0.0,0.0,0.0,0.0,0.0,0.0,0.0,0.0,0.0,0.0,0.0,0.0,0.0,0.0,0.0,0.0,0.0,0.0,0.0,0.0,0.0,0.0,0.0,0.0,0.0,0.0,0.0,0.0,0.0,0.0,0.0,0.0,0.0,0.0,0.0,0.0,0.0,0.0,0.0,0.0,0.0,0.0,0.0,0.0,0.0,0.0,0.0,0.0,0.0,0.0,0.0,0.0,0.0,0.0,0.0,0.0,0.0,0.0,0.0,0.0,0.0,0.0,0.0,0.0,0.0,0.0,0.0,0.0,0.0,0.0,0.0,0.0,0.0,0.0,-0.1029,-0.0676,-0.0408,-0.0235,-0.0093,0.0015,0.0,0.0,0.0,0.0,0.0,0.0,0.0,0.0,0.0,0.0,0.0,0.0,0.0,0.0,0.0,0.0,0.0,0.0,0.0,0.0,0.0,0.0,0.0,0.0,0.0,0.0,0.0,0.0,0.0,0.0,0.0,0.0,0.0,0.0,0.0,0.0,0.0,0.0,0.0,0.0,0.0,0.0,0.0,0.0,0.0,0.0,0.0,0.0,0.0,0.0,0.0,0.0,0.0,0.0,0.0,0.0,0.0,0.0,0.0,0.0,0.0,0.0,0.0,0.0,0.0,0.0,0.0,0.0,0.0,0.0,0.0,0.0,0.0,0.0,0.0,0.0,0.0,0.0,0.0,0.0,0.0,0.0,0.0,0.0,0.0,0.0,0.0,0.0,0.0,0.0,0.0,0.0,0.0,0.0,0.0,0.0,0.0,0.0,0.0,0.0,0.0,0.0,0.0,0.0,0.0,0.0,0.0,0.0,0.0,-0.1579,-0.1438,-0.1114,-0.0667,-0.0412,-0.0238,0.0,0.0,0.0,0.0,0.0,0.0,0.0,0.0,0.0,0.0,0.0,0.0,0.0,0.0,0.0,0.0,0.0,0.0,0.0,0.0,0.0,0.0,0.0,0.0,0.0,0.0,0.0,0.0,0.0,0.0,0.0,0.0,0.0,0.0,0.0,0.0,0.0,0.0,0.0,0.0,0.0,0.0,0.0,0.0,0.0,0.0,0.0,0.0,0.0,0.0,0.0,0.0,0.0,0.0,0.0,0.0,0.0,0.0,0.0,0.0,0.0,0.0,0.0,0.0,0.0,0.0,0.0,0.0,0.0,0.0,0.0,0.0,0.0,0.0,0.0,0.0,0.0,0.0,0.0,0.0,0.0,0.0,0.0,0.0,0.0,0.0,0.0,0.0,0.0,0.0,0.0,0.0,0.0,0.0,0.0,0.0,0.0,0.0,0.0,0.0,0.0,0.0,0.0,0.0,0.0,0.0,0.0,0.0,-0.164,-0.1969,-0.1923,-0.1739,-0.1395,-0.0874,-0.0521,0.0,0.0,0.0,0.0,0.0,0.0,0.0,0.0,0.0,0.0,0.0,0.0,0.0,0.0,0.0,0.0,0.0,0.0,0.0,0.0,0.0,0.0,0.0,0.0,0.0,0.0,0.0,0.0,0.0,0.0,0.0,0.0,0.0,0.0,0.0,0.0,0.0,0.0,0.0,0.0,0.0,0.0,0.0,0.0,0.0,0.0,0.0,0.0,0.0,0.0,0.0,0.0,0.0,0.0,0.0,0.0,0.0,0.0,0.0,0.0,0.0,0.0,0.0,0.0,0.0,0.0,0.0,0.0,0.0,0.0,0.0,0.0,0.0,0.0,0.0,0.0,0.0,0.0,0.0,0.0,0.0,0.0,0.0,0.0,0.0,0.0,0.0,0.0,0.0,0.0,0.0,0.0,0.0,0.0,0.0,0.0,0.0,0.0,0.0,0.0,0.0,0.0,0.0,0.0,0.0,0.0,0.0,0.0,-0.1941,-0.2248,-0.2254,-0.2225,-0.219,-0.1401,-0.0809,0.0,0.0,0.0,0.0,0.0,0.0,0.0,0.0,0.0,0.0,0.0,0.0,0.0,0.0,0.0,0.0,0.0,0.0,0.0,0.0,0.0,0.0,0.0,0.0,0.0,0.0,0.0,0.0,0.0,0.0,0.0,0.0,0.0,0.0,0.0,0.0,0.0,0.0,0.0,0.0,0.0,0.0,0.0,0.0,0.0,0.0,0.0,0.0,0.0,0.0,0.0,0.0,0.0,0.0,0.0,0.0,0.0,0.0,0.0,0.0,0.0,0.0,0.0,0.0,0.0,0.0,0.0,0.0,0.0,0.0,0.0,0.0,0.0,0.0,0.0,0.0,0.0,0.0,0.0,0.0,0.0,0.0,0.0,0.0,0.0,0.0,0.0,0.0,0.0,0.0,0.0,0.0,0.0,0.0,0.0,0.0,0.0,0.0,0.0,0.0,0.0,0.0,0.0,0.0,0.0,0.0,0.0,0.0,-0.2363,-0.2601,-0.2593,-0.2485,-0.2281,-0.1706,-0.1181,0.0,0.0,0.0,0.0,0.0,0.0,0.0,0.0,0.0,0.0,0.0,0.0,0.0,0.0,0.0,0.0,0.0,0.0,0.0,0.0,0.0,0.0,0.0,0.0,0.0,0.0,0.0,0.0,0.0,0.0,0.0,0.0,0.0,0.0,0.0,0.0,0.0,0.0,0.0,0.0,0.0,0.0,0.0,0.0,0.0,0.0,0.0,0.0,0.404,0.0,0.0,0.0,0.0,0.0,0.0,0.0,0.0,0.0,0.0,0.0,0.0,0.0,0.0,0.0,0.0,0.0,0.0,0.0,0.0,0.0,0.0,0.0,0.0,0.0,0.0,0.0,0.0,0.0,0.0,0.0,0.0,0.0,0.0,0.0,0.0,0.0,0.0,0.0,0.0,0.0,0.0,0.0,0.0,0.0,0.0,0.0,0.0,0.0,0.0,0.0,0.0,0.0,0.0,0.0,0.0,0.0,0.0,0.0,-0.2576,-0.2766,-0.2805,-0.2662,-0.2408,-0.1994,-0.1507,0.0,0.0,0.0,0.0,0.0,0.0,0.0,0.0,0.0,0.0,0.0,0.0,0.0,0.0,0.0,0.0,0.0,0.0,0.0,0.0,0.0,0.0,0.0,0.0,0.0,0.0,0.0,0.0,0.0,0.0,0.0,0.0,0.0,0.0,0.0,0.0,0.0,0.0,0.0,0.0,0.0,0.0,0.0,0.0,0.0,0.0,0.0,0.0,0.0,0.0,0.0,0.0,0.0,0.0,0.0,0.0,0.0,0.0,0.0,0.0,0.0,0.0,0.0,0.0,0.0,0.0,0.0,0.0,0.0,0.0,0.0,0.0,0.0,0.0,0.0,0.0,0.0,0.0,0.0,0.0,0.0,0.0,0.0,0.0,0.0,0.0,0.0,0.0,0.0,0.0,0.0,0.0,0.0,0.0,0.0,0.0,0.0,0.0,0.0,0.0,0.0,0.0,0.0,0.0,0.0,0.0,0.0,-0.2402,-0.2651,-0.2902,-0.2903,-0.2751,-0.2502,-0.2235,-0.1769,-0.106,0.0,0.0,0.0,0.0,0.0,0.0,0.0,0.0,0.0,0.0,0.0,0.0,0.0,0.0,0.0,0.0,0.0,0.0,0.0,0.0,0.0,0.0,0.0,0.0,0.0,0.0,0.0,0.0,0.0,0.0,0.0,0.0,0.0,0.0,0.0,0.0,0.0,0.0,0.326,0.3925,0.0,0.0,0.0,0.0,0.0,0.0,0.0,0.0,0.4424,0.0,0.0,0.0,0.0,0.0,0.0,0.0,0.0,0.0,0.0,0.0,0.0,0.0,0.0,0.0,0.0,0.0,0.0,0.0,0.0,0.0,0.0,0.0,0.0,0.0,0.0,0.0,0.0,0.0,0.0,0.0,0.0,0.0,0.0,0.0,0.0,0.0,0.0,0.0,0.0,0.0,0.0,0.0,0.0,0.0,0.0,0.0,0.0,0.0,0.0,0.0,0.0,0.0,0.0,0.0,0.0,-0.2255,-0.26,-0.2832,-0.2975,-0.2921,-0.2773,-0.2524,-0.2235,-0.181,-0.1191,0.0,0.0,0.0,0.0,0.0,0.0,0.0,0.0,0.0,0.0,0.0,0.0,0.0,0.0,0.0,0.0,0.0,0.0,0.0,0.0,0.0,0.0,0.0,0.0,0.0,0.0,0.0,0.0,0.0,0.0,0.0,0.0,0.0,0.0,0.0,0.0,0.0,0.0,0.0,0.4551,0.4901,0.0,0.0,0.0,0.0,0.0,0.0,0.0,0.0,0.4394,0.0,0.0,0.0,0.0,0.0,0.0,0.0,0.0,0.0,0.0,0.0,0.0,0.0,0.0,0.0,0.0,0.0,0.0,0.0,0.0,0.0,0.0,0.0,0.0,0.0,0.0,0.0,0.0,0.0,0.0,0.0,0.0,0.0,0.0,0.0,0.0,0.0,0.0,0.0,0.0,0.0,0.0,0.0,0.0,0.0,0.0,0.0,0.0,0.0,0.0,0.0,0.0,0.0,0.0,0.0,-0.2394,-0.2661,-0.2884,-0.3092,-0.2973,-0.2773,-0.2502,-0.2235,-0.1829,0.0,0.0,0.0,0.0,0.0,0.0,0.0,0.0,0.0,0.0,0.0,0.0,0.0,0.0,0.0,0.0,0.0,0.0,0.0,0.0,0.0,0.0,0.0,0.0,0.0,0.0,0.0,0.0,0.0,0.0,0.0,0.0,0.0,0.0,0.0,0.0,0.0,0.0,0.0,0.0,0.4743,0.503,0.5152,0.0,0.0,0.0,0.0,0.0,0.0,0.4778,0.469,0.0,0.0,0.0,0.0,0.0,0.0,0.0,0.0,0.0,0.0,0.0,0.0,0.0,0.0,0.0,0.0,0.0,0.0,0.0,0.0,0.0,0.0,0.0,0.0,0.0,0.0,0.0,0.0,0.0,0.0,0.0,0.0,0.0,0.0,0.0,0.0,0.0,0.0,0.0,0.0,0.0,0.0,0.0,0.0,0.0,0.0,0.0,0.0,0.0,0.0,0.0,0.0,0.0,0.0,0.0,-0.2532,-0.271,-0.2928,-0.318,-0.2973,-0.2729,-0.2457,-0.2175,-0.1744,0.0,0.0,0.0,0.0,0.0,0.0,0.0,0.0,0.0,0.0,0.0,0.0,0.0,0.0,0.0,0.0,0.0,0.0,0.0,0.0,0.0,0.0,0.0,0.0,0.0,0.0,0.0,0.0,0.0,0.0,0.0,0.0,0.0,0.0,0.0,0.0,0.0,0.0,0.0,0.0,0.0,0.5208,0.5395,0.5444,0.0,0.0,0.0,0.0,0.5128,0.5075,0.0,0.0,0.0,0.0,0.0,0.0,0.0,0.0,0.0,0.0,0.0,0.0,0.0,0.0,0.0,0.0,0.0,0.0,0.0,0.0,0.0,0.0,0.0,0.0,0.0,0.0,0.0,0.0,0.0,0.0,0.0,0.0,0.0,0.0,0.0,0.0,0.0,0.0,0.0,0.0,0.0,0.0,0.0,0.0,0.0,0.0,0.0,0.0,0.0,0.0,0.0,0.0,0.0,0.0,0.0,0.0,-0.265,-0.276,-0.2928,-0.3177,-0.2884,-0.2593,-0.2322,-0.1943,-0.1469,0.0,0.0,0.0,0.0,0.0,0.0,0.0,0.0,0.0,0.0,0.0,0.0,0.0,0.0,0.0,0.0,0.0,0.0,0.0,0.0,0.0,0.0,0.0,0.0,0.0,0.0,0.0,0.0,0.0,0.0,0.0,0.0,0.0,0.0,0.0,0.0,0.0,0.0,0.0,0.0,0.0,0.5687,0.5809,0.5984,0.6089,0.0,0.0,0.5519,0.5519,0.5274,0.0,0.0,0.0,0.0,0.0,0.0,0.0,0.0,0.0,0.0,0.0,0.0,0.0,0.0,0.0,0.0,0.0,0.0,0.0,0.0,0.0,0.0,0.0,0.0,0.0,0.0,0.0,0.0,0.0,0.0,0.0,0.0,0.0,0.0,0.0,0.0,0.0,0.0,0.0,0.0,0.0,0.0,0.0,0.0,0.0,0.0,0.0,0.0,0.0,0.0,0.0,0.0,0.0,0.0,0.0,-0.2115,-0.2582,-0.2731,-0.2905,-0.3067,-0.2837,-0.2571,-0.2322,-0.1829,-0.1322,0.0,0.0,0.0,0.0,0.0,0.0,0.0,0.0,0.0,0.0,0.0,0.0,0.0,0.0,0.0,0.0,0.0,0.0,0.0,0.0,0.0,0.0,0.0,0.0,0.0,0.0,0.0,0.0,0.0,0.0,0.0,0.0,0.0,0.0,0.0,0.0,0.0,0.0,0.0,0.0,0.0,0.0,0.581,0.5876,0.0,0.0,0.0,0.5285,0.5206,0.0,0.0,0.0,0.0,0.0,0.0,0.0,0.0,0.0,0.0,0.0,0.0,0.0,0.0,0.0,0.0,0.0,0.0,0.0,0.0,0.0,0.0,0.0,0.0,0.0,0.0,0.0,0.0,0.0,0.0,0.0,0.0,0.0,0.0,0.0,0.0,0.0,0.0,0.0,0.0,0.0,0.0,0.0,0.0,0.0,0.0,0.0,0.0,0.0,0.0,0.0,0.0,0.0,0.0,0.0,0.0,0.0,-0.2527,-0.267,-0.2824,-0.2978,-0.2726,-0.2484,-0.2255,-0.1665,0.0,0.0,0.0,0.0,0.0,0.0,0.0,0.0,0.0,0.0,0.0,0.0,0.0,0.0,0.0,0.0,0.0,0.0,0.0,0.0,0.0,0.0,0.0,0.0,0.0,0.0,0.0,0.2184,0.0,0.0,0.0,0.0,0.0,0.0,0.0,0.0,0.0,0.0,0.0,0.0,0.0,0.0,0.5644,0.5797,0.5784,0.5725,0.0,0.0,0.5038,0.4912,0.4788,0.4661,0.0,0.0,0.0,0.0,0.0,0.0,0.0,0.0,0.0,0.0,0.0,0.0,0.0,0.0,0.0,0.0,0.0,0.0,0.0,0.0,0.0,0.0,0.0,0.0,0.0,0.0,0.0,0.0,0.0,0.0,0.0,0.0,0.0,0.0,0.0,0.0,0.0,0.0,0.0,0.0,0.0,0.0,0.0,0.0,0.0,0.0,0.0,0.0,0.0,0.0,0.0,0.0,0.0,0.0,0.0,-0.2646,-0.2634,-0.2742,-0.2978,-0.2544,-0.2261,-0.2105,-0.1361,-0.0771,0.0,0.0,0.0,0.0,0.0,0.0,0.0,0.0,0.0,0.0,0.0,0.0,0.0,0.0,0.0,0.0,0.0,0.0,0.0,0.0,0.0,0.0,0.0,0.0,0.0,0.0,0.0,0.0,0.0,0.0,0.0,0.0,0.0,0.0,0.0,0.0,0.0,0.0,0.0,0.0,0.0,0.5866,0.5905,0.5931,0.5918,0.0,0.0,0.4974,0.4912,0.4745,0.4579,0.4446,0.0,0.0,0.0,0.0,0.0,0.0,0.0,0.0,0.0,0.0,0.0,0.0,0.0,0.0,0.0,0.0,0.0,0.0,0.0,0.0,0.0,0.0,0.0,0.0,0.0,0.0,0.0,0.0,0.0,0.0,0.0,0.0,0.0,0.0,0.0,0.0,0.0,0.0,0.0,0.0,0.0,0.0,0.0,0.0,0.0,0.0,0.0,0.0,0.0,0.0,0.0,0.0,0.0,-0.2115,-0.2553,-0.268,-0.278,-0.2898,-0.2504,-0.2239,-0.2109,-0.1226,-0.0646,0.0,0.0,0.0,0.0,0.0,0.0,0.0,0.0,0.0,0.0,0.0,0.0,0.0,0.0,0.0,0.0,0.0,0.0,0.0,0.0,0.0,0.0,0.0,0.0,0.0,0.0,0.0,0.0,0.2754,0.2833,0.2794,0.0,0.0,0.0,0.0,0.0,0.0,0.0,0.0,0.0,0.0,0.5634,0.5542,0.5545,0.0,0.0,0.4908,0.4706,0.4617,0.4465,0.4338,0.4274,0.4374,0.0,0.0,0.0,0.0,0.0,0.0,0.0,0.0,0.0,0.0,0.0,0.0,0.0,0.0,0.0,0.0,0.0,0.0,0.0,0.0,0.0,0.0,0.0,0.0,0.0,0.0,0.0,0.0,0.0,0.0,0.0,0.0,0.0,0.0,0.0,0.0,0.0,0.0,0.0,0.0,0.0,0.0,0.0,0.0,0.0,0.0,0.0,0.0,0.0,0.0,0.0,0.0,-0.2125,-0.2498,-0.2664,-0.2809,-0.2887,-0.2484,-0.2194,-0.2085,-0.1183,-0.0563,0.0,0.0,0.0,0.0,0.0,0.0,0.0,0.0,0.0,0.0,0.0,0.0,0.0,0.0,0.0,0.0,0.0,0.0,0.0,0.0,0.0,0.0,0.0,0.0,0.0,0.0,0.0,0.0,0.2838,0.2853,0.2745,0.0,0.0,0.0,0.0,0.0,0.0,0.0,0.0,0.0,0.0,0.528,0.521,0.5162,0.505,0.4765,0.4609,0.4469,0.4334,0.4227,0.4139,0.4113,0.0,0.0,0.0,0.0,0.0,0.0,0.0,0.0,0.0,0.0,0.0,0.0,0.0,0.0,0.0,0.0,0.0,0.0,0.0,0.0,0.0,0.0,0.0,0.0,0.0,0.0,0.0,-0.128,0.0,0.0,-0.1502,0.0,0.0,0.0,0.0,0.0,0.0,0.0,0.0,0.0,0.0,0.0,0.0,0.0,0.0,0.0,0.0,0.0,0.0,0.0,0.0,0.0,0.0,-0.2045,-0.2498,-0.2646,-0.2767,-0.2887,-0.2375,-0.2109,-0.2085,-0.1119,-0.0525,-0.0383,0.0,0.0,0.0,0.0,0.0,0.0,0.0,0.0,0.0,0.0,0.0,0.0,0.0,0.0,0.0,0.0,0.0,0.0,0.0,0.0,0.0,0.0,0.0,0.0,0.0,0.0,0.3021,0.2826,0.2744,0.0,0.0,0.0,0.0,0.0,0.0,0.0,0.0,0.0,0.0,0.482,0.4838,0.4976,0.4892,0.4779,0.461,0.4417,0.4249,0.41,0.4107,0.406,0.0,0.0,0.0,0.0,0.0,0.0,0.0,0.0,0.0,0.0,0.0,0.0,0.0,0.0,0.0,0.0,0.0,0.0,0.0,0.0,0.0,0.0,0.0,0.0,0.0,0.0,0.0,-0.1991,-0.1904,0.0,0.0,0.0,0.0,0.0,0.0,0.0,0.0,0.0,0.0,0.0,-0.3872,-0.3499,0.0,0.0,0.0,0.0,0.0,0.0,0.0,0.0,0.0,0.0,0.0,0.0,-0.2251,-0.2501,-0.2723,-0.2846,-0.2887,-0.2375,-0.2111,-0.2087,-0.1083,-0.0249,0.0366,0.0,0.0,0.0,0.0,0.0,0.0,0.0,0.0,0.0,0.0,0.0,0.0,0.0,0.0,0.0,0.0,0.0,0.0,0.0,0.0,0.0,0.0,0.0,0.0,0.0,0.3367,0.0,0.0,0.0,0.0,0.0,0.0,0.0,0.0,0.0,0.0,0.0,0.4147,0.4371,0.4647,0.474,0.455,0.4483,0.4398,0.0,0.0,0.0,0.0,0.0,0.0,0.0,0.0,0.0,0.0,0.0,0.0,0.0,0.0,0.5239,0.5092,0.5033,0.4953,0.4824,0.0,0.0,0.0,0.0,0.0,0.0,0.0,0.0,0.0,0.0,0.0,0.0,0.0,0.0,-0.2928,0.0,-0.2816,0.0,0.0,0.0,0.0,0.0,0.0,0.0,0.0,-0.4602,-0.4819,-0.5036,-0.4652,-0.443,0.0,-0.3666,-0.2859,0.0,0.0,0.0,0.0,0.0,0.0,0.0,0.0,-0.2403,-0.2566,-0.2789,-0.2909,-0.289,-0.2377,-0.2111,-0.2087,-0.1082,-0.0147,0.0713,0.1058,0.1281,0.0,0.0,0.0,0.0,0.0,0.0,0.0,0.0,0.0,0.0,0.0,0.0,0.0,0.0,0.0,0.0,0.0,0.0,0.0,0.0,0.0,0.0,0.0,0.3415,0.0,0.0,0.0,0.0,0.0,0.0,0.0,0.0,0.0,0.3566,0.3764,0.3915,0.3989,0.4219,0.4295,0.4046,0.0,0.0,0.0,0.0,0.0,0.0,0.0,0.3131,0.3131,0.3216,0.3472,0.3959,0.4479,0.4861,0.5089,0.0,0.0,0.4949,0.488,0.473,0.453,0.4516,0.4549,0.452,0.4664,0.4806,0.0,0.0,0.0,0.0,0.0,0.0,0.0,0.0,-0.4122,-0.4102,0.0,-0.3894,0.0,0.0,0.0,0.0,-0.4631,-0.4676,0.0,0.0,-0.5701,-0.5898,-0.6301,-0.6038,-0.5744,-0.5422,-0.4817,-0.4243,-0.3608,-0.2482,0.0,0.0,0.0,0.0,0.0,0.0,-0.2503,-0.2698,-0.2846,-0.2909,-0.289,-0.2355,-0.2087,-0.2018,-0.11,-0.0211,0.0545,0.0812,0.1132,0.1555,0.1482,0.0,0.0,0.0,0.0,0.0,0.0,0.0,0.0,0.0,0.0,0.0,0.0,0.0,0.0,0.0,0.0,0.0,0.0,0.0,0.0,0.3513,0.0,0.0,0.0,0.0,0.0,0.0,0.0,0.0,0.0,0.0,0.3151,0.3363,0.3509,0.3549,0.0,0.0,0.0,0.0,0.3335,0.3034,0.2964,0.2875,0.2697,0.272,0.2762,0.2762,0.0,0.0,0.386,0.3969,0.4075,0.4478,0.4506,0.4615,0.4847,0.4706,0.4492,0.4335,0.4304,0.4377,0.4391,0.4475,0.456,-0.76,0.0,0.0,0.0,0.0,-0.6002,-0.5961,-0.581,-0.5658,-0.5554,-0.5462,-0.5225,0.0,0.0,0.0,0.0,0.0,0.0,-0.6367,-0.6594,-0.6694,-0.6871,-0.7085,-0.6719,-0.655,-0.6519,-0.5832,-0.5306,-0.4933,-0.426,-0.3387,-0.238,0.0,0.0,0.0,0.0,-0.2835,-0.2837,-0.293,-0.2951,-0.2887,-0.2377,-0.1794,-0.1123,-0.0709,-0.0217,0.0443,0.083,0.1167,0.1459,0.1658,0.0,0.0,0.0,0.0,0.0,0.0,0.0,0.0,0.0,0.0,0.0,0.0,0.0,0.0,0.0,0.0,0.0,0.0,0.0,0.3803,0.3844,0.3776,0.0,0.0,0.0,0.0,0.0,0.0,0.0,0.0,0.0,0.2607,0.2856,0.3073,0.0,0.0,0.295,0.293,0.2732,0.2542,0.2448,0.2186,0.0,0.1981,0.1994,0.2078,0.2223,0.2478,0.2783,0.3021,0.3181,0.3349,0.3514,0.3481,0.3452,0.3419,0.3822,0.407,0.3926,0.3881,0.3935,0.4079,0.4142,0.4169,-1.0054,-0.8818,-0.775,-0.728,-0.7249,-0.726,-0.7222,-0.7107,-0.6869,-0.669,-0.6597,-0.6396,-0.6349,-0.6512,-0.6669,0.0,0.0,0.0,-0.7222,-0.7352,-0.7455,-0.7629,-0.7792,-0.757,-0.7449,-0.7431,-0.6809,-0.6346,-0.6078,-0.5515,-0.482,-0.3967,0.0,0.0,-0.3316,-0.3323,-0.3284,-0.3224,-0.3164,-0.3066,-0.2954,-0.2375,-0.1705,-0.0898,-0.0672,-0.031,0.0216,0.0658,0.1023,0.1274,0.1586,0.1751,0.0,0.0,0.0,0.0,0.0,0.0,0.0,0.0,0.0,0.0,0.0,0.2016,0.2402,0.0,0.0,0.0,0.3107,0.3389,0.3646,0.3832,0.0,0.0,0.0,0.0,0.0,0.0,0.0,0.2775,0.2652,0.2439,0.2123,0.2048,0.2154,0.2394,0.2332,0.2243,0.2161,0.0,0.1681,0.1561,0.1249,0.1037,0.1036,0.1082,0.124,0.1504,0.1728,0.196,0.2217,0.2378,0.2467,0.2571,0.2596,0.2495,0.2302,0.2688,0.3087,0.3105,0.3227,0.3323,0.3475,0.3577,0.3639,-1.2282,-1.1969,-0.9565,-0.8499,-0.8389,-0.8283,-0.8235,-0.8139,-0.7916,-0.7746,-0.7607,-0.7468,-0.7486,-0.7582,-0.7716,0.0,-0.7756,-0.778,-0.7892,-0.8113,-0.8113,-0.8229,-0.8415,-0.8421,-0.8374,-0.8189,-0.7707,-0.7331,-0.7033,-0.6367,-0.6021,-0.5962,-0.4863,-0.4259,-0.4194,-0.3994,-0.3832,-0.3735,-0.3502,-0.3228,-0.2962,-0.2422,-0.1794,-0.1142,-0.0853,-0.0494,-0.0045,0.0368,0.074,0.1073,0.1393,0.1596,0.1653,0.0,0.0,0.0,0.0,0.0,0.0,0.0,0.0,0.0,0.0,0.0,0.0,0.0,0.0,0.0,0.3233,0.0,0.3226,0.354,0.0,0.0,0.0,0.3091,0.3094,0.2895,0.2736,0.265,0.0,0.0,0.1649,0.1118,0.0982,0.1651,0.1581,0.1384,0.1238,0.1024,0.0768,0.0515,0.0299,0.0114,0.0114,0.0232,0.043,0.0782,0.0825,0.1018,0.137,0.1448,0.1567,0.1685,0.1764,0.1684,0.1489,0.1485,0.1585,0.1923,0.2352,0.2617,0.2694,0.2891,0.3047,-1.296,-1.2851,-1.1879,-1.1271,-1.0887,-1.0678,-1.0488,-1.029,-0.9804,-0.9556,-0.9535,-0.928,-0.9152,-0.9158,-0.9291,-0.9263,-0.9133,-0.914,-0.9099,-0.9066,-0.9066,-0.8933,-0.8725,-0.8699,-0.8593,-0.8348,-0.8126,-0.7917,-0.7673,-0.7293,-0.7081,-0.6918,-0.6359,-0.5728,-0.5015,-0.4674,-0.436,-0.4154,-0.3989,-0.3556,-0.2791,-0.2325,-0.1817,-0.1254,-0.1007,-0.0627,-0.0157,0.0111,0.0509,0.0925,0.1214,0.1407,0.1467,0.1603,0.0,0.0,0.0,0.0,0.0,0.0,0.0,0.0,0.0,0.2227,0.25,0.0,0.2591,0.0,0.2838,0.3075,0.3258,0.3312,0.0,0.0,0.3026,0.2896,0.2986,0.2619,0.2289,0.2195,0.1755,0.1267,0.0829,0.0446,0.0212,0.0216,0.0289,0.0328,0.0299,0.0113,-0.0076,-0.0115,-0.0271,-0.035,-0.0234,-0.0078,0.0118,0.0196,0.0196,0.0236,0.0353,0.0353,0.0392,0.0432,0.0471,0.0432,0.0432,0.0353,0.0391,0.0541,0.1239,0.1943,0.2256,0.2383,0.247,-1.4257,-1.4221,-1.3687,-1.3296,-1.2955,-1.2056,-1.1579,-1.1439,-1.0851,-1.0594,-1.0566,-1.0301,-1.018,-1.0143,-1.0212,-1.0201,-1.0087,-1.008,-1.0053,-0.9979,-0.9979,-0.9815,-0.9515,-0.9275,-0.9079,-0.8883,-0.8538,-0.8295,-0.8109,-0.7815,-0.7628,-0.7467,-0.7058,-0.6579,-0.6011,-0.5388,-0.4934,-0.4571,-0.4175,-0.3602,-0.2903,-0.2562,-0.2147,-0.1638,-0.1254,-0.0895,-0.0516,-0.018,0.018,0.0582,0.092,0.1131,0.119,0.1398,0.1436,0.0,0.0,0.0,0.0,0.0,0.0,0.0,0.0,0.0,0.0,0.0,0.2403,0.2419,0.2601,0.2754,0.2882,0.2971,0.3019,0.2981,0.277,0.2673,0.2743,0.2237,0.181,0.1633,0.1116,0.063,0.0171,-0.0175,-0.0432,-0.0554,-0.0599,-0.053,-0.0345,-0.0462,-0.0619,-0.0549,-0.0786,-0.0825,-0.0589,-0.0471,-0.0354,-0.0275,-0.0275,-0.0275,-0.0275,-0.0275,-0.0275,-0.0275,-0.0275,-0.0275,-0.0275,-0.0275,-0.0275,-0.0196,0.0196,0.0784,0.1256,0.1491,0.1648,-1.5692,-1.5624,-1.5048,-1.476,-1.4517,-1.2969,-1.229,-1.2197,-1.1602,-1.1316,-1.1259,-1.1036,-1.0935,-1.0947,-1.0947,-1.0925,-1.0916,-1.0908,-1.0916,-1.0851,-1.083,-1.0709,-1.0465,-1.0023,-0.9736,-0.9598,-0.9052,-0.8671,-0.8505,-0.8164,-0.7931,-0.7756,-0.7348,-0.7085,-0.6933,-0.6168,-0.5487,-0.4925,-0.4223,-0.3658,-0.3205,-0.2892,-0.2528,-0.2107,-0.1618,-0.1254,-0.0962,-0.0538,-0.018,0.0112,0.0538,0.0791,0.0823,0.1092,0.1197,0.0,0.1268,0.0,0.0,0.0,0.0,0.0,0.0,0.0,0.0,0.2197,0.2174,0.2205,0.2343,0.2384,0.2285,0.2511,0.2608,0.2487,0.237,0.2323,0.2325,0.175,0.1275,0.1005,0.0506,0.0034,-0.0314,-0.0719,-0.0924,-0.0943,-0.1118,-0.1095,-0.0824,-0.0863,-0.0942,-0.0943,-0.114,-0.1179,-0.0982,-0.0943,-0.0864,-0.0707,-0.0707,-0.0707,-0.0668,-0.0668,-0.0668,-0.0707,-0.0707,-0.0668,-0.0707,-0.0707,-0.0668,-0.0668,-0.0628,-0.0432,0.0157,0.051,0.0746,-1.6078,-1.6062,-1.5602,-1.5402,-1.5324,-1.4412,-1.3809,-1.3433,-1.2895,-1.2504,-1.2232,-1.2194,-1.2164,-1.2165,-1.2157,-1.2184,-1.2156,-1.2148,-1.2008,-1.1748,-1.1644,-1.139,-1.0958,-1.0614,-1.0357,-1.0215,-0.9853,-0.947,-0.9138,-0.8794,-0.8454,-0.8115,-0.775,-0.7461,-0.7203,0.0,0.0,0.0,-0.4481,-0.4049,-0.3737,-0.3167,-0.2777,-0.2562,-0.2007,0.0,-0.1321,-0.1052,-0.0739,-0.0292,0.0,0.0,0.0,0.0,0.0,0.0,0.0,0.0,0.0,0.0,0.0,0.0,0.1588,0.1712,0.1861,0.1975,0.194,0.1683,0.1595,0.1581,0.1665,0.1771,0.1833,0.1849,0.1746,0.1616,0.1528,0.1033,0.0602,0.047,-0.0069,-0.0522,-0.0737,-0.1022,-0.1129,-0.1137,-0.1238,-0.1256,-0.1179,-0.1179,-0.1218,-0.1218,-0.1258,-0.1297,-0.1218,-0.1218,-0.1179,-0.1179,-0.1179,-0.114,-0.114,-0.1179,-0.1179,-0.114,-0.1179,-0.114,-0.114,-0.1179,-0.114,-0.1179,-0.114,-0.0982,-0.0354,-0.0118,-0.0039,-1.686,-1.6744,-1.6258,-1.6045,0.0,-1.5529,-1.5167,-1.4808,-1.3843,-1.3255,-1.2995,-1.2995,-1.2978,-1.2991,-1.2991,-1.2978,-1.3012,-1.2983,-1.2859,-1.2655,-1.2568,-1.2284,-1.1842,-1.1429,-1.1062,-1.0741,-1.027,-0.9865,-0.9501,-0.926,-0.8914,-0.8496,-0.8197,-0.7837,-0.7392,-0.6766,-0.6005,-0.5101,-0.4714,-0.4314,-0.4003,-0.3586,-0.3284,-0.2997,-0.2497,0.0,0.0,0.0,0.0,0.0,0.0,0.0,0.0,0.0,0.0,0.0394,0.0594,0.0766,0.0882,0.1022,0.1128,0.1135,0.1042,0.1093,0.1431,0.1388,0.126,0.1011,0.0907,0.0883,0.0943,0.1012,0.1013,0.1029,0.0978,0.086,0.0771,0.0403,0.0067,-0.0101,-0.0482,-0.0809,-0.0999,-0.1145,-0.1217,-0.1232,-0.1247,-0.1297,-0.1297,-0.1297,-0.1297,-0.1297,-0.1297,-0.1297,-0.1297,-0.1297,-0.1297,-0.1297,-0.1297,-0.1297,-0.1297,-0.1297,-0.1297,-0.1297,-0.1297,-0.1297,-0.1297,-0.1297,-0.1297,-0.1297,-0.1297,-0.1218,-0.0825,-0.0707,-0.0589,-1.7635,-1.7451,-1.6893,-1.6654,-1.6645,-1.6357,-1.6138,-1.5918,0.0,0.0,0.0,-1.3808,-1.3765,-1.3765,-1.3726,-1.3692,-1.3692,-1.37,-1.361,-1.345,-1.3428,-1.3155,-1.2705,-1.2266,-1.1765,-1.1263,-1.0659,-1.0217,-0.9847,-0.9672,-0.9353,-0.8946,-0.8673,-0.8231,-0.7573,-0.6732,-0.5923,-0.5234,-0.4936,-0.46,-0.4211,-0.4019,-0.3792,-0.3447,-0.3016,-0.269,-0.24,-0.1999,-0.1658,-0.1389,-0.103,-0.0719,-0.0499,-0.0308,-0.013,0.0022,0.0232,0.0377,0.0413,0.0606,0.0722,0.0655,0.0417,0.0455,0.0902,0.0683,0.0512,0.0371,0.0272,0.0219,0.028,0.0287,0.0292,0.0292,0.0232,0.0202,0.0134,-0.0168,-0.0405,-0.0543,-0.0799,-0.1033,-0.1171,-0.1202,-0.1228,-0.129,-0.1295,-0.1297,-0.1297,-0.1297,-0.1297,-0.1297,-0.1297,-0.1297,-0.1297,-0.1297,-0.1297,-0.1297,-0.1297,-0.1297,-0.1297,-0.1297,-0.1297,-0.1297,-0.1297,-0.1297,-0.1297,-0.1297,-0.1297,-0.1297,-0.1297,-0.1297,-0.1297,-0.114,-0.0982,-1.8079,-1.7881,-1.7438,-1.7252,-1.7233,-1.6693,-1.6284,-1.5964,-1.5483,-1.514,-1.498,-1.4956,-1.4866,-1.4692,-1.471,-1.4583,-1.4357,-1.4357,-1.4297,-1.4148,-1.386,-1.3558,-1.3177,-1.2718,-1.2296,-1.192,-1.1412,-1.0916,-1.0465,-1.006,-0.9682,-0.9427,-0.9237,-0.8747,-0.793,-0.705,-0.6322,-0.5696,-0.5289,-0.4924,-0.4628,-0.4257,-0.4043,-0.3968,-0.3489,-0.3083,-0.2832,-0.2511,-0.2172,-0.1749,-0.1435,-0.116,-0.0847,-0.0633,-0.0451,-0.027,-0.0196,-0.0073,0.0123,0.0099,0.0076,0.0079,-0.0084,-0.0086,0.0222,0.0115,-0.003,-0.0183,-0.0386,-0.0428,-0.0226,-0.0197,-0.02,-0.0201,-0.0201,-0.0236,-0.0371,-0.0573,-0.0748,-0.0832,-0.1034,-0.117,-0.1198,-0.123,-0.1289,-0.1295,-0.1297,-0.1297,-0.1297,-0.1297,-0.1297,-0.1297,-0.1297,-0.1297,-0.1297,-0.1297,-0.1297,-0.1297,-0.1297,-0.1297,-0.1297,-0.1297,-0.1297,-0.1297,-0.1297,-0.1297,-0.1297,-0.1297,-0.1297,-0.1297,-0.1297,-0.1297,-0.1297,-0.1258,-0.1218,-1.8236,-1.7988,-1.7803,-1.7725,-1.7672,-1.7235,-1.6959,-1.6802,-1.6416,-1.596,-1.5481,-1.5472,-1.5437,-1.5328,-1.5319,-1.514,-1.4836,-1.4836,-1.4626,-1.4276,-1.4019,-1.37,-1.3299,-1.2989,-1.2552,-1.2096,-1.1685,-1.1262,-1.0863,-1.0485,-1.0146,-0.9807,-0.9372,-0.8751,-0.8022,-0.736,-0.6636,-0.5918,-0.5367,-0.4963,-0.4719,-0.4457,-0.4244,-0.4167,-0.3875,-0.3627,-0.3407,-0.3109,-0.277,-0.2418,-0.2033,-0.1638,-0.1202,-0.1008,-0.0817,-0.0604,-0.0504,-0.0407,-0.0285,-0.0264,-0.0299,-0.0365,-0.0463,-0.0506,-0.0485,-0.0494,-0.0501,-0.057,-0.0789,-0.0871,-0.076,-0.0735,-0.074,-0.074,-0.074,-0.0774,-0.0808,-0.0909,-0.0987,-0.1012,-0.1112,-0.1178,-0.1208,-0.1277,-0.1296,-0.1297,-0.1297,-0.1336,-0.1297,-0.1297,-0.1297,-0.1297,-0.1297,-0.1297,-0.1297,-0.1297,-0.1297,-0.1297,-0.1297,-0.1297,-0.1297,-0.1297,-0.1297,-0.1297,-0.1297,-0.1297,-0.1297,-0.1297,-0.1297,-0.1297,-0.1297,-0.1297,-0.1297,-0.1297,-0.1297,-1.8279,-1.8008,-1.8008,-1.8008,-1.7974,-1.7632,-1.7495,-1.7461,-1.7081,-1.6551,-1.601,-1.5964,-1.5918,-1.5835,-1.5835,-1.5615,-1.5258,-1.5139,-1.4876,-1.4472,-1.4144,-1.3761,-1.3329,-1.3125,-1.2674,-1.2096,-1.1778,-1.1435,-1.109,-1.0744,-1.0479,-1.017,-0.9532,-0.8903,-0.8293,-0.7806,-0.7115,-0.6243,-0.5599,-0.5108,-0.477,-0.4574,-0.4406,-0.4277,-0.4154,-0.4033,-0.3872,-0.3536,-0.3249,-0.2948,-0.2492,-0.1997,-0.1506,-0.1303,-0.1103,-0.0852,-0.0723,-0.0654,-0.0646,-0.0556,-0.0573,-0.0735,-0.0747,-0.083,-0.0962,-0.091,-0.0847,-0.0882,-0.0996,-0.1075,-0.1074,-0.1076,-0.1109,-0.1109,-0.1109,-0.1076,-0.1109,-0.1109,-0.1091,-0.1125,-0.1225,-0.129,-0.1291,-0.1398,-0.1453,-0.1454,-0.1493,-0.1493,-0.1415,-0.1375,-0.1375,-0.1297,-0.1297,-0.1297,-0.1297,-0.1297,-0.1297,-0.1297,-0.1297,-0.1297,-0.1297,-0.1297,-0.1297,-0.1297,-0.1297,-0.1297,-0.1297,-0.1297,-0.1297,-0.1297,-0.1297,-0.1297,-0.1297,-0.1297,-0.1297,-1.8323,-1.8042,-1.8018,-1.8008,-1.7974,-1.7642,-1.7505,-1.7436,-1.7081,-1.6881,-1.6752,-1.6798,-1.6578,-1.626,-1.6266,-1.6028,-1.5615,-1.5258,-1.5074,-1.493,-1.4321,-1.383,-1.348,-1.3164,-1.2674,-1.2127,-1.1747,-1.1435,-1.109,-1.0744,-1.0579,-1.0519,-1.0074,-0.9637,-0.9205,-0.8539,-0.775,-0.6917,-0.6203,-0.5526,-0.4908,-0.4629,-0.4484,-0.447,-0.4287,-0.4161,-0.4062,-0.3739,-0.3374,-0.3018,-0.2599,-0.2177,-0.1716,-0.1432,-0.1184,-0.0912,-0.086,-0.0863,-0.0867,-0.0864,-0.0851,-0.0857,-0.0932,-0.0961,-0.1003,-0.1057,-0.1072,-0.1071,-0.1107,-0.1109,-0.1109,-0.1109,-0.1109,-0.1109,-0.1109,-0.1109,-0.1109,-0.1109,-0.1132,-0.1192,-0.1345,-0.1485,-0.1547,-0.1725,-0.1886,-0.1925,-0.2003,-0.1962,-0.1689,-0.1572,-0.1493,-0.1375,-0.1297,-0.1297,-0.1297,-0.1297,-0.1297,-0.1297,-0.1297,-0.1297,-0.1297,-0.1297,-0.1297,-0.1297,-0.1297,-0.1297,-0.1297,-0.1297,-0.1297,-0.1297,-0.1297,-0.1297,-0.1297,-0.1297,-0.1297,-1.869,-1.8315,-1.8081,-1.8008,-1.7974,-1.7735,-1.7554,-1.7461,-1.721,-1.7003,-1.6908,-1.6908,-1.6817,-1.667,-1.6636,-1.6441,-1.6046,-1.5634,-1.5313,-1.5053,-1.4478,-1.4019,-1.367,-1.3338,-1.285,-1.2212,-1.1809,-1.1435,-1.109,-1.0782,-1.0586,-1.0579,-1.0278,-0.9885,-0.9383,-0.8835,-0.8115,-0.7242,-0.6447,-0.5743,-0.5208,-0.4727,-0.4491,-0.4484,-0.4406,-0.4375,-0.4318,-0.402,-0.3699,-0.3353,-0.2846,-0.2325,-0.1781,-0.1456,-0.1189,-0.0924,-0.0897,-0.0878,-0.0895,-0.0878,-0.0899,-0.0931,-0.0987,-0.1008,-0.1057,-0.1103,-0.1109,-0.1109,-0.1109,-0.1109,-0.1109,-0.1109,-0.1109,-0.1109,-0.1109,-0.1109,-0.1109,-0.1109,-0.1133,-0.1191,-0.1385,-0.1598,-0.1783,-0.2158,-0.2434,-0.255,-0.2589,-0.2433,-0.2159,-0.1924,-0.1688,-0.1493,-0.1375,-0.1297,-0.1297,-0.1297,-0.1297,-0.1297,-0.1297,-0.1297,-0.1297,-0.1297,-0.1297,-0.1297,-0.1297,-0.1297,-0.1297,-0.1297,-0.1297,-0.1297,-0.1297,-0.1297,-0.1297,-0.1297,-0.1297,-1.9068,-1.8584,-1.8149,-1.8008,-1.7974,-1.7784,-1.7647,-1.7529,-1.7314,-1.7107,-1.6978,-1.6943,-1.6908,-1.6908,-1.6908,-1.6709,-1.645,-1.6046,-1.5643,-1.5217,-1.4732,-1.4246,-1.3808,-1.345,-1.2964,-1.2336,-1.1817,-1.1373,-1.0965,-1.0719,-1.0586,-1.0555,-1.0466,-1.0134,-0.9668,-0.9172,-0.8488,-0.7687,-0.6796,-0.6086,-0.5556,-0.4987,-0.4629,-0.4501,-0.4491,-0.4491,-0.4491,-0.4187,-0.3855,-0.3583,-0.3026,-0.2437,-0.1846,-0.1485,-0.1178,-0.0926,-0.0878,-0.0891,-0.0883,-0.0928,-0.0925,-0.0996,-0.1007,-0.1054,-0.107,-0.1109,-0.1109,-0.1109,-0.1109,-0.1109,-0.1109,-0.1109,-0.1109,-0.1109,-0.1109,-0.1109,-0.1109,-0.1115,-0.1144,-0.1193,-0.1433,-0.1759,-0.2212,-0.2785,-0.3217,-0.3251,-0.3137,-0.2902,-0.2627,-0.2275,-0.1962,-0.1649,-0.1493,-0.1375,-0.1336,-0.1297,-0.1297,-0.1297,-0.1297,-0.1297,-0.1297,-0.1297,-0.1297,-0.1297,-0.1297,-0.1297,-0.1297,-0.1297,-0.1297,-0.1297,-0.1297,-0.1297,-0.1297,-0.1297,-0.1297,-1.9392,-1.8613,-1.8159,-1.8037,-1.7974,-1.7784,-1.7716,-1.7638,-1.7329,-1.7201,-1.7132,-1.6968,-1.6908,-1.6908,-1.6908,-1.6899,-1.6817,-1.6441,-1.6046,-1.5643,-1.5114,-1.4487,-1.3787,-1.3459,-1.2964,-1.2305,-1.184,-1.1279,-1.0688,-1.0624,-1.0586,-1.0586,-1.0561,-1.0453,-1.0167,-0.9704,-0.9084,-0.8295,-0.7402,-0.6586,-0.5892,-0.5408,-0.4943,-0.4573,-0.4498,-0.4511,-0.4477,-0.4166,-0.3891,-0.3616,-0.3028,-0.2437,-0.1847,-0.1487,-0.1181,-0.0958,-0.0897,-0.0913,-0.0893,-0.0964,-0.0997,-0.1005,-0.1057,-0.1107,-0.1108,-0.1109,-0.1109,-0.1109,-0.1109,-0.1109,-0.1109,-0.1109,-0.1109,-0.1109,-0.1109,-0.1109,-0.111,-0.1099,-0.113,-0.1236,-0.1565,-0.2136,-0.2934,-0.3649,-0.3882,-0.3841,-0.3763,-0.3528,-0.2981,-0.2628,-0.2198,-0.1767,-0.1573,-0.1493,-0.1375,-0.1297,-0.1297,-0.1297,-0.1297,-0.1297,-0.1297,-0.1297,-0.1297,-0.1297,-0.1297,-0.1297,-0.1297,-0.1297,-0.1297,-0.1297,-0.1297,-0.1297,-0.1297,-0.1297,-0.1297,-1.9829,-1.9014,-1.8549,-1.8373,-1.8344,-1.8012,-1.7818,-1.7716,-1.7569,-1.7407,-1.7201,-1.7141,-1.7003,-1.6908,-1.6908,-1.6908,-1.6862,-1.6462,-1.6239,-1.6019,-1.535,-1.4763,-1.4312,-1.3722,-1.3086,-1.2428,-1.1864,-1.1247,-1.0649,-1.0586,-1.0586,-1.0586,-1.0586,-1.0498,-1.0244,-0.9888,-0.9354,-0.8658,-0.7761,-0.6924,-0.6144,-0.5609,-0.5127,-0.4795,-0.4752,-0.4755,-0.4755,-0.4343,-0.4038,-0.3837,-0.3196,-0.2573,-0.2076,-0.1516,-0.1187,-0.1104,-0.1015,-0.098,-0.0969,-0.0989,-0.101,-0.1059,-0.1069,-0.1109,-0.1109,-0.1109,-0.1109,-0.1109,-0.1109,-0.1109,-0.1109,-0.1109,-0.1109,-0.1109,-0.1109,-0.1109,-0.1115,-0.1102,-0.1132,-0.1311,-0.1811,-0.2606,-0.332,-0.3997,-0.4348,-0.4506,-0.4348,-0.3956,-0.3489,-0.2942,-0.2315,-0.1886,-0.1573,-0.1375,-0.1336,-0.1297,-0.1297,-0.1297,-0.1297,-0.1297,-0.1297,-0.1297,-0.1297,-0.1297,-0.1297,-0.1297,-0.1297,-0.1297,-0.1297,-0.1297,-0.1297,-0.1297,-0.1297,-0.1297,-0.1297,-2.0101,-1.948,-1.9033,-1.8724,-1.8568,-1.8295,-1.8022,-1.7794,-1.7706,-1.7545,-1.7304,-1.7235,-1.7097,-1.6943,-1.6908,-1.6908,-1.6881,-1.6624,-1.6416,-1.6242,-1.5753,-1.5264,-1.4746,-1.4146,-1.3497,-1.2798,-1.198,-1.1227,-1.0663,-1.0586,-1.0586,-1.0586,-1.0586,-1.053,-1.0339,-0.9989,-0.9478,-0.8828,-0.7995,-0.7126,-0.6313,-0.5805,-0.5404,-0.5123,-0.5064,-0.5013,-0.4894,-0.4548,-0.4263,-0.4009,-0.35,-0.2943,-0.2349,-0.1801,-0.1435,-0.1319,-0.117,-0.1074,-0.0998,-0.1009,-0.1056,-0.1106,-0.1109,-0.1109,-0.1109,-0.1109,-0.1109,-0.1109,-0.1109,-0.1109,-0.1109,-0.1109,-0.1109,-0.1109,-0.1109,-0.1114,-0.1091,-0.1118,-0.1225,-0.1493,-0.2037,-0.2817,-0.3567,-0.4034,-0.4387,-0.4781,-0.4462,-0.4034,-0.3565,-0.2981,-0.2316,-0.1886,-0.1612,-0.1415,-0.1341,-0.1307,-0.1305,-0.1303,-0.1301,-0.13,-0.13,-0.1299,-0.1297,-0.1297,-0.1297,-0.1297,-0.1297,-0.1297,-0.1297,-0.1297,-0.1297,-0.1297,-0.1297,-0.1297,-0.13,-2.011,-1.9901,-1.9463,-1.9072,-1.8734,-1.8588,-1.8344,-1.8018,-1.7828,-1.7623,-1.7461,-1.7314,-1.7107,-1.6934,-1.6908,-1.6908,-1.6899,-1.6862,-1.6679,-1.6376,-1.6233,-1.583,-1.5189,-1.4718,-1.4048,-1.3333,-1.2167,-1.1231,-1.0678,-1.064,-1.0626,-1.0593,-1.0586,-1.0593,-1.0586,-1.0085,-0.9536,-0.8947,-0.8151,-0.7284,-0.6478,-0.6052,-0.5679,-0.5394,-0.5361,-0.5242,-0.4955,-0.4772,-0.4522,-0.4247,-0.395,-0.3409,-0.2724,-0.2277,-0.191,-0.1578,-0.1394,-0.1192,-0.107,-0.1092,-0.1105,-0.1109,-0.1109,-0.1109,-0.1109,-0.1109,-0.1109,-0.1109,-0.1109,-0.1109,-0.1109,-0.1113,-0.1112,-0.1109,-0.1111,-0.1092,-0.1116,-0.1147,-0.1338,-0.1779,-0.2196,-0.2743,-0.337,-0.3763,-0.4114,-0.427,-0.4034,-0.3643,-0.3212,-0.2704,-0.2237,-0.1773,-0.1543,-0.1429,-0.1355,-0.132,-0.1315,-0.1311,-0.1308,-0.1306,-0.1306,-0.1305,-0.1298,-0.1297,-0.1297,-0.1297,-0.1297,-0.1297,-0.1297,-0.1297,-0.1297,-0.1302,-0.1308,-0.1311,-0.1272,-2.0907,-2.0524,-1.994,-1.9648,-1.9397,-1.8861,-1.852,-1.8373,-1.8032,-1.7735,-1.7539,-1.7426,-1.722,-1.6978,-1.6908,-1.6908,-1.6908,-1.6899,-1.6826,-1.6688,-1.6416,-1.6066,-1.5553,-1.4926,-1.4007,-1.29,-1.2188,-1.1509,-1.0974,-1.0881,-1.0768,-1.0626,-1.0593,-1.0586,-1.0555,-1.018,-0.9696,-0.9177,-0.8344,-0.7493,-0.6642,-0.6152,-0.5723,-0.5462,-0.5395,-0.5344,-0.5226,-0.5001,-0.4791,-0.4659,-0.4294,-0.3816,-0.3246,-0.2732,-0.235,-0.2073,-0.1699,-0.1427,-0.1229,-0.1136,-0.1109,-0.1109,-0.1109,-0.1109,-0.1109,-0.1109,-0.1109,-0.1109,-0.1109,-0.1109,-0.1112,-0.1095,-0.1097,-0.1111,-0.1094,-0.111,-0.1094,-0.1168,-0.1326,-0.1637,-0.1923,-0.2353,-0.2902,-0.3292,-0.3565,-0.3841,-0.3563,-0.3173,-0.2901,-0.2357,-0.2018,-0.1643,-0.1528,-0.1375,-0.1307,-0.1235,-0.1278,-0.1308,-0.1298,-0.1329,-0.1326,-0.132,-0.1311,-0.13,-0.13,-0.1299,-0.1299,-0.13,-0.1303,-0.1303,-0.1305,-0.1314,-0.1325,-0.129,-0.1212,-2.1397,-2.0944,-2.0484,-2.0134,-1.9873,-1.928,-1.888,-1.8598,-1.8325,-1.7958,-1.7567,-1.7495,-1.7289,-1.6978,-1.6908,-1.6908,-1.6908,-1.6908,-1.6908,-1.6881,-1.6679,-1.6328,-1.5875,-1.501,-1.3946,-1.2846,-1.2358,-1.1819,-1.1162,-1.1042,-1.0935,-1.0767,-1.0646,-1.0586,-1.0555,-1.0206,-0.976,-0.9242,-0.8468,-0.7657,-0.6872,-0.628,-0.5851,-0.5524,-0.5425,-0.5395,-0.5385,-0.5202,-0.5061,-0.4916,-0.4617,-0.4236,-0.3795,-0.3367,-0.2942,-0.2561,-0.2159,-0.1814,-0.1547,-0.131,-0.1176,-0.1176,-0.1143,-0.1109,-0.1109,-0.1109,-0.1109,-0.1109,-0.1109,-0.1114,-0.1093,-0.1108,-0.1114,-0.1112,-0.1127,-0.1142,-0.1121,-0.1198,-0.1348,-0.1606,-0.1728,-0.2002,-0.2315,-0.2627,-0.2899,-0.3175,-0.2938,-0.2585,-0.2319,-0.1861,-0.1566,-0.1302,-0.1107,-0.1076,-0.1174,-0.1183,-0.1234,-0.1266,-0.1294,-0.1326,-0.1318,-0.1312,-0.1304,-0.1321,-0.1312,-0.1312,-0.1312,-0.1318,-0.1321,-0.1319,-0.1325,-0.1303,-0.1278,-0.1195,-0.1115,-2.1617,-2.1205,-2.0984,-2.0534,-2.0038,-1.9873,-1.9407,-1.8783,-1.8588,-1.8199,-1.7653,-1.7523,-1.7254,-1.6978,-1.6908,-1.6908,-1.6908,-1.6908,-1.6908,-1.6908,-1.6828,-1.6593,-1.6009,-1.5053,-1.4053,-1.3166,-1.2685,-1.2158,-1.1518,-1.1189,-1.1009,-1.0975,-1.072,-1.0586,-1.0523,-1.0206,-0.9817,-0.9338,-0.8624,-0.7782,-0.6975,-0.6412,-0.6013,-0.5617,-0.5458,-0.5395,-0.5392,-0.5378,-0.5279,-0.5117,-0.4896,-0.4656,-0.435,-0.4128,-0.3682,-0.3113,-0.2684,-0.2318,-0.195,-0.1648,-0.1412,-0.1378,-0.1244,-0.1109,-0.1109,-0.1109,-0.1109,-0.1109,-0.1113,-0.1091,-0.1112,-0.1095,-0.1143,-0.1203,-0.1207,-0.1218,-0.121,-0.1277,-0.1409,-0.157,-0.1612,-0.1611,-0.1729,-0.2002,-0.2235,-0.2353,-0.2157,-0.1885,-0.1624,-0.1282,-0.0893,-0.0783,-0.0796,-0.0848,-0.0988,-0.1125,-0.1176,-0.1215,-0.1288,-0.1321,-0.1305,-0.1339,-0.133,-0.1307,-0.1331,-0.1329,-0.1292,-0.1301,-0.1311,-0.1319,-0.133,-0.1303,-0.1224,-0.1055,-0.072,-2.2149,-2.1617,-2.1282,-2.0952,-2.0602,-2.0154,-1.9767,-1.9502,-1.8851,-1.8383,-1.7929,-1.7637,-1.7298,-1.6952,-1.6908,-1.6908,-1.6908,-1.6908,-1.6908,-1.6908,-1.6908,-1.6412,-1.5709,-1.4963,-1.4235,-1.3576,-1.3035,-1.2519,-1.1996,-1.1525,-1.1209,-1.0982,-1.076,-1.06,-1.0561,-1.0333,-1.0021,-0.9606,-0.885,-0.8069,-0.7363,-0.6605,-0.6013,-0.565,-0.5491,-0.5395,-0.5395,-0.5395,-0.5395,-0.5326,-0.5123,-0.499,-0.4824,-0.4498,-0.4097,-0.3727,-0.3259,-0.2855,-0.252,-0.2153,-0.1884,-0.1715,-0.1445,-0.1244,-0.1244,-0.1143,-0.1109,-0.1113,-0.1094,-0.1112,-0.1092,-0.1125,-0.1197,-0.1262,-0.125,-0.1249,-0.1275,-0.129,-0.1336,-0.1415,-0.1375,-0.1415,-0.1454,-0.161,-0.1766,-0.1766,-0.1614,-0.1344,-0.1081,-0.0895,-0.0578,-0.0679,-0.0691,-0.0741,-0.0791,-0.0974,-0.1112,-0.1156,-0.1237,-0.1359,-0.1338,-0.1317,-0.1307,-0.1292,-0.1323,-0.1319,-0.1327,-0.1294,-0.1304,-0.1229,-0.1146,-0.1066,-0.0903,-0.0777,-0.0261,-2.2478,-2.1883,-2.1502,-2.1167,-2.0876,-2.037,-2.0088,-1.9814,-1.9182,-1.8621,-1.8206,-1.7719,-1.7323,-1.7047,-1.6943,-1.6908,-1.6908,-1.6908,-1.6908,-1.6864,-1.683,-1.6342,-1.5638,-1.5034,-1.4461,-1.3928,-1.3419,-1.2984,-1.257,-1.2003,-1.16,-1.1283,-1.0947,-1.0727,-1.0586,-1.0403,-1.0142,-0.9734,-0.9081,-0.8398,-0.7722,-0.6905,-0.6313,-0.5881,-0.562,-0.5458,-0.5428,-0.5395,-0.5395,-0.5359,-0.5292,-0.519,-0.5087,-0.4827,-0.4528,-0.4259,-0.3794,-0.3424,-0.3121,-0.2721,-0.2354,-0.2185,-0.1814,-0.158,-0.1512,-0.1344,-0.1212,-0.1234,-0.1146,-0.1132,-0.1126,-0.1203,-0.1274,-0.1288,-0.1279,-0.1277,-0.1295,-0.1296,-0.1297,-0.1297,-0.1297,-0.1218,-0.114,-0.1218,-0.1258,-0.1142,-0.0994,-0.0802,-0.0649,-0.0454,0.0,0.0,0.0,-0.0443,-0.0532,-0.0713,-0.0894,-0.0985,-0.1118,-0.1247,-0.1366,-0.134,-0.1373,-0.1364,-0.1313,-0.131,-0.1318,-0.124,-0.1077,-0.0995,-0.0863,-0.065,-0.0438,-0.0176,0.0266,-2.2703,-2.2101,-2.1693,-2.1282,-2.0935,-2.0683,-2.0332,-1.9961,-1.9463,-1.8964,-1.8427,-1.7783,-1.7401,-1.7166,-1.6978,-1.6908,-1.6908,-1.6908,-1.6908,-1.6864,-1.6716,-1.6324,-1.5877,-1.5292,-1.4713,-1.4173,-1.3746,-1.3441,-1.3028,-1.2521,-1.2053,-1.1683,-1.1249,-1.0901,-1.0707,-1.0467,-1.0149,-0.9798,-0.9306,-0.8662,-0.7982,-0.7265,-0.6675,-0.6181,-0.5782,-0.5521,-0.5425,-0.5395,-0.5395,-0.5395,-0.5395,-0.5292,-0.5156,-0.512,-0.4954,-0.4658,-0.4295,-0.3995,-0.3792,-0.3224,-0.2854,-0.2721,-0.2319,-0.1985,-0.1952,-0.1689,-0.1504,-0.1497,-0.1266,-0.1198,-0.1204,-0.128,-0.1291,-0.1296,-0.1295,-0.1296,-0.1297,-0.1297,-0.1297,-0.1297,-0.1297,-0.11,-0.0943,-0.0825,-0.0825,-0.0748,-0.0598,-0.0487,-0.0371,-0.0253,0.0,0.0,0.0,-0.0134,-0.0269,-0.0403,-0.0583,-0.0717,-0.0896,-0.1073,-0.1294,-0.1322,-0.1357,-0.1393,-0.1302,-0.1302,-0.1349,-0.1226,-0.0924,-0.0662,-0.0441,-0.0089,0.0313,0.0579,0.0983,-2.315,-2.2289,-2.1921,-2.1502,-2.1128,-2.077,-2.0546,-2.039,-1.9609,-1.9119,-1.8706,-1.7907,-1.7411,-1.7201,-1.7003,-1.6908,-1.6908,-1.6908,-1.6908,-1.6864,-1.6716,-1.6473,-1.6123,-1.5611,-1.507,-1.4525,-1.4129,-1.3775,-1.3368,-1.2806,-1.2304,-1.2039,-1.1445,-1.0962,-1.0882,-1.0649,-1.0339,-0.9951,-0.9472,-0.8882,-0.8204,-0.7526,-0.6909,-0.6379,-0.5885,-0.555,-0.5425,-0.5395,-0.5395,-0.5395,-0.5395,-0.5392,-0.5292,-0.519,-0.5087,-0.4957,-0.4761,-0.4495,-0.4197,-0.3894,-0.3594,-0.3326,-0.2991,-0.2723,-0.2491,-0.2194,-0.1978,-0.1837,-0.1601,-0.1427,-0.1354,-0.1291,-0.1335,-0.1375,-0.1336,-0.1336,-0.1336,-0.1336,-0.1297,-0.1258,-0.11,-0.0943,-0.0825,-0.0668,-0.059,-0.0394,0.0,0.0,0.0,0.0,0.0,0.0,0.0,0.0,-0.0135,-0.0269,-0.0404,-0.0538,-0.0718,-0.0897,-0.1074,-0.1251,-0.1241,-0.1286,-0.1246,-0.129,-0.1328,-0.0844,-0.049,-0.0268,0.0045,0.0538,0.0942,0.1301,0.1615,-2.3176,-2.2252,-2.1921,-2.1512,-2.1051,-2.0722,-2.0615,-2.0439,-1.9658,-1.926,-1.893,-1.8005,-1.7436,-1.7314,-1.7047,-1.6908,-1.6908,-1.6908,-1.6908,-1.6874,-1.676,-1.6586,-1.6316,-1.5991,-1.5532,-1.4919,-1.4525,-1.4129,-1.3708,-1.3129,-1.267,-1.2303,-1.1709,-1.129,-1.1022,-1.0874,-1.0509,-1.004,-0.9696,-0.9183,-0.8501,-0.7884,-0.7138,-0.6482,-0.5987,-0.5653,-0.5521,-0.5428,-0.5395,-0.5395,-0.5395,-0.5395,-0.5395,-0.5292,-0.5223,-0.5193,-0.506,-0.4894,-0.4661,-0.4428,-0.4161,-0.3899,-0.356,-0.3351,-0.3105,-0.2743,-0.2519,-0.2393,-0.2087,-0.1757,-0.1606,-0.1572,-0.1573,-0.1573,-0.1572,-0.1611,-0.1533,-0.1415,-0.1258,-0.114,-0.0983,-0.0786,-0.0629,-0.0511,-0.0397,-0.02,0.0,0.0,0.0,0.0,0.0,0.0,0.0,0.0,0.0,-0.0135,-0.0269,-0.0404,-0.0538,-0.0673,-0.0851,-0.0986,-0.112,-0.1165,-0.1209,-0.1165,-0.1117,-0.0583,-0.0135,0.0269,0.0628,0.1166,0.157,0.1885,0.22,-2.3001,-2.2063,-2.1845,-2.1436,-2.0896,-2.0693,-2.0615,-2.0478,-1.9695,-1.9287,-1.9039,-1.804,-1.7461,-1.7392,-1.7081,-1.6908,-1.6908,-1.6908,-1.6908,-1.6908,-1.6795,-1.6656,-1.6377,-1.6132,-1.578,-1.5204,-1.4812,-1.4453,-1.3985,-1.3506,-1.2934,-1.2543,-1.2084,-1.1645,-1.1229,-1.0996,-1.0745,-1.0256,-1.0015,-0.961,-0.898,-0.8427,-0.7659,-0.6712,-0.624,-0.5977,-0.5825,-0.5672,-0.5605,-0.5533,-0.5529,-0.5516,-0.5462,-0.5395,-0.5395,-0.5392,-0.5226,-0.509,-0.499,-0.4791,-0.4561,-0.4367,-0.4188,-0.3956,-0.3749,-0.3432,-0.3194,-0.2972,-0.2738,-0.2344,-0.2116,-0.2159,-0.212,-0.2082,-0.2082,-0.2043,-0.1925,-0.1611,-0.1335,-0.1061,-0.0904,-0.0668,-0.0471,-0.0314,-0.016,0.0,0.0,0.0,0.0,0.0,0.0,0.0,0.0,0.0,0.0,0.0,0.0,0.0,0.0,-0.0494,-0.0583,-0.0718,-0.0852,-0.1122,-0.1166,-0.1121,-0.0897,-0.0493,0.0,0.0583,0.1122,0.157,0.2019,0.247,0.2649,-2.3001,-2.2063,-2.1693,-2.1282,-2.0906,-2.0693,-2.0615,-2.0458,-1.9678,-1.9297,-1.9134,-1.8059,-1.7533,-1.7392,-1.7081,-1.6908,-1.6908,-1.6908,-1.6908,-1.6874,-1.6751,-1.6568,-1.6438,-1.6061,-1.5611,-1.524,-1.4848,-1.4497,-1.4029,-1.3506,-1.307,-1.2724,-1.222,-1.1812,-1.1608,-1.1324,-1.101,-1.0617,-1.0341,-0.998,-0.9542,-0.895,-0.8228,-0.7196,-0.6781,-0.6529,-0.6329,-0.6244,-0.6169,-0.6085,-0.607,-0.5996,-0.5859,-0.5626,-0.5486,-0.5392,-0.5359,-0.5256,-0.5123,-0.5066,-0.4894,-0.4785,-0.4761,-0.4683,-0.4448,-0.4244,-0.398,-0.3666,-0.3388,-0.308,-0.2935,-0.286,-0.2899,-0.286,-0.2707,-0.255,-0.2354,-0.204,-0.1609,-0.1257,-0.0943,-0.0589,-0.0354,0.0,0.0,0.0,0.0,0.0,0.0,0.0,0.0,0.0,0.0,0.0,0.0,0.0,0.0,0.0,0.0,0.0,-0.0359,-0.0448,-0.0628,-0.0852,-0.0942,-0.0897,-0.0628,-0.0314,0.0179,0.0807,0.1391,0.193,0.2289,0.2649,0.2784,-2.2777,-2.1921,-2.1617,-2.1195,-2.077,-2.0644,-2.0615,-2.0517,-1.9893,-1.9492,-1.9042,-1.828,-1.7694,-1.7449,-1.7081,-1.6908,-1.6908,-1.6908,-1.6908,-1.6874,-1.6716,-1.6473,-1.6333,-1.5859,-1.5363,-1.4892,-1.4533,-1.4173,-1.3775,-1.3411,-1.3039,-1.2718,-1.229,-1.206,-1.1842,-1.1548,-1.1194,-1.0909,-1.0588,-1.0275,-0.9962,-0.9404,-0.8656,-0.7981,-0.7513,-0.7194,-0.6904,-0.6742,-0.6702,-0.6635,-0.6616,-0.6569,-0.6406,-0.6218,-0.589,-0.5603,-0.5472,-0.5365,-0.5282,-0.5282,-0.5277,-0.5117,-0.5193,-0.5199,-0.5056,-0.4873,-0.4629,-0.4232,-0.3953,-0.3682,-0.3487,-0.3485,-0.3446,-0.3407,-0.3253,-0.3059,-0.2785,-0.2352,-0.1883,-0.1374,-0.0904,-0.0511,-0.0196,0.0,0.0,0.0,0.0,0.0,0.0,0.0,0.0,0.0,0.0,0.0,0.0,0.0,0.0,0.0,0.0,0.0,0.0,0.0,0.0,-0.0583,-0.0628,-0.0628,-0.0404,-0.009,0.0493,0.0987,0.1525,0.2019,0.2469,0.2739,0.2875,-2.2402,-2.1731,-2.1474,-2.1079,-2.0644,-2.0615,-2.0615,-2.0527,-2.0088,-1.9658,-1.9221,-1.8507,-1.791,-1.7486,-1.7116,-1.6908,-1.6908,-1.6908,-1.6908,-1.683,-1.6621,-1.6368,-1.6061,-1.5568,-1.507,-1.4489,-1.4065,-1.3666,-1.3528,-1.3193,-1.29,-1.2629,-1.2409,-1.2204,-1.2004,-1.1719,-1.1359,-1.1128,-1.08,-1.0513,-1.0143,-0.971,-0.9214,-0.8629,-0.83,-0.7932,-0.7651,-0.7509,-0.7347,-0.7273,-0.7212,-0.7195,-0.7099,-0.6944,-0.6561,-0.6037,-0.5723,-0.5551,-0.5555,-0.5586,-0.5557,-0.5424,-0.5519,-0.5533,-0.547,-0.5257,-0.5023,-0.4678,-0.4543,-0.4428,-0.4309,-0.4151,-0.4153,-0.4075,-0.3839,-0.3526,-0.3215,-0.2744,-0.204,-0.1491,-0.0943,-0.0472,-0.0157,0.0,0.0,0.0,0.0,0.0,0.0,0.0,0.0,0.0,0.0,0.0,0.0,0.0,0.0,0.0,0.0,0.0,0.0,0.0,0.0,0.0,-0.0359,-0.0314,-0.009,0.0045,0.0404,0.0897,0.157,0.2154,0.2602,0.2827,0.2918,-2.1921,-2.1512,-2.1138,-2.0819,-2.0605,-2.0615,-2.0615,-2.0556,-2.0127,-1.9687,-1.9268,-1.8653,-1.8037,-1.7511,-1.7081,-1.6908,-1.6908,-1.6908,-1.6908,-1.6864,-1.6517,-1.6237,-1.5956,-1.5284,-1.4713,-1.4173,-1.3739,-1.3564,-1.3346,-1.29,-1.268,-1.2562,-1.2409,-1.2271,-1.2168,-1.1855,-1.168,-1.1525,-1.1212,-1.0851,-1.0509,-1.0215,-0.9779,-0.9316,-0.898,-0.876,-0.8561,-0.843,-0.8351,-0.8038,-0.7983,-0.783,-0.7566,-0.734,-0.726,-0.6895,-0.6498,-0.6005,-0.5987,-0.5898,-0.5776,-0.5731,-0.5842,-0.5807,-0.5726,-0.5616,-0.5485,-0.5509,-0.5365,-0.5207,-0.509,-0.5129,-0.5126,-0.4815,-0.4423,-0.4114,-0.3802,-0.2862,-0.2157,-0.153,-0.0942,-0.0472,0.0,0.0,0.0,0.0,0.0,0.0,0.0,0.0,0.0,0.0,0.0,0.0,0.0,0.0,0.0,0.0,0.0,0.0,0.0,0.0,0.0,0.0,0.0,-0.009,-0.0045,0.009,0.0314,0.0807,0.1525,0.2153,0.2734,0.2871,0.3006,-2.1397,-2.1331,-2.1032,-2.078,-2.0605,-2.0615,-2.0615,-2.0566,-2.04,-1.9902,-1.9319,-1.8904,-1.8237,-1.7417,-1.7038,-1.6908,-1.6908,-1.6908,-1.6908,-1.6804,-1.6456,-1.6096,-1.5736,-1.507,-1.4361,-1.3928,-1.3448,-1.3083,-1.2936,-1.279,-1.2569,-1.2415,-1.2342,-1.2305,-1.2268,-1.2003,-1.1811,-1.1613,-1.131,-1.1051,-1.0862,-1.0642,-1.0375,-1.0011,-0.978,-0.9559,-0.9409,-0.9386,-0.9314,-0.909,-0.9048,-0.8906,-0.8652,-0.837,-0.8106,-0.8028,-0.7323,-0.6751,-0.6345,-0.6179,-0.6028,-0.5962,-0.6061,-0.6121,-0.602,-0.5861,-0.5712,-0.5598,-0.5482,-0.5401,-0.5326,-0.521,-0.5132,-0.4973,-0.4659,-0.4309,-0.3841,-0.3018,-0.2235,-0.1569,-0.0984,-0.0515,0.0,0.0,0.0,0.0,0.0,0.0,0.0,0.0,0.0,0.0,0.0,0.0,0.0,0.0,0.0,0.0,0.0,0.0,0.0,0.0,0.0,0.0,0.0,0.009,0.0045,0.0179,0.0448,0.0942,0.1436,0.2107,0.2778,0.3047,0.3138,-2.0896,-2.1051,-2.0896,-2.0741,-2.0605,-2.0615,-2.0615,-2.0615,-2.0595,-2.0116,-1.9358,-1.8791,-1.8052,-1.7401,-1.7047,-1.6908,-1.6908,-1.6908,-1.6908,-1.6735,-1.6421,-1.6053,-1.563,-1.4927,-1.4217,-1.3717,-1.3193,-1.282,-1.2599,-1.2489,-1.2452,-1.2298,-1.2305,-1.2305,-1.2224,-1.2077,-1.1848,-1.1558,-1.126,-1.1099,-1.1056,-1.0944,-1.0757,-1.0571,-1.04,-1.0255,-1.0105,-1.003,-1.0024,-0.9906,-0.9782,-0.961,-0.9412,-0.9025,-0.868,-0.8448,-0.7842,-0.7233,-0.6775,-0.6474,-0.6296,-0.6194,-0.6166,-0.6237,-0.6125,-0.598,-0.5825,-0.5637,-0.5521,-0.5326,-0.5171,-0.5174,-0.5093,-0.4896,-0.4582,-0.4192,-0.3726,-0.2907,-0.2202,-0.1612,-0.1031,-0.0484,0.0,0.0,0.0,0.0,0.0,0.0,0.0,0.0,0.0,0.0,0.0,0.0,0.0,0.0,0.0,0.0,0.0,0.0,0.0,0.0,0.0,0.0,0.0314,0.0494,0.0583,0.0583,0.0673,0.1122,0.166,0.2242,0.2735,0.3092,0.3315,-2.0644,-2.0644,-2.0644,-2.0605,-2.0615,-2.0615,-2.0615,-2.0615,-2.0615,-2.0116,-1.9212,-1.8219,-1.7647,-1.7376,-1.7081,-1.6908,-1.6908,-1.6908,-1.6908,-1.6769,-1.6482,-1.6088,-1.563,-1.4955,-1.4217,-1.3601,-1.3119,-1.2746,-1.2415,-1.2372,-1.2342,-1.2305,-1.2305,-1.2305,-1.2231,-1.204,-1.1818,-1.1521,-1.1223,-1.1111,-1.1117,-1.1037,-1.0968,-1.0818,-1.0738,-1.0663,-1.0481,-1.0443,-1.0406,-1.0293,-1.018,-0.996,-0.969,-0.9359,-0.9051,-0.8627,-0.8089,-0.7503,-0.7091,-0.6707,-0.6486,-0.6356,-0.6251,-0.618,-0.6018,-0.5941,-0.5786,-0.5598,-0.5482,-0.5482,-0.5404,-0.5362,-0.5129,-0.4854,-0.4509,-0.4056,-0.3508,-0.2723,-0.2054,-0.1578,-0.104,-0.045,0.0,0.0,0.0,0.0,0.0,0.0,0.0,0.0,0.0,0.0,0.0,0.0,0.0,0.0,0.0,0.0,0.0,0.0,0.0,0.0,0.0,0.0314,0.0493,0.0807,0.1121,0.1256,0.1345,0.148,0.1884,0.2556,0.3138,0.3585,0.3674,-2.0615,-2.0615,-2.0615,-2.0615,-2.0615,-2.0615,-2.0615,-2.0615,-2.0595,-2.0116,-1.9192,-1.8069,-1.7495,-1.7392,-1.7116,-1.6908,-1.6908,-1.6908,-1.6908,-1.6735,-1.6456,-1.6061,-1.5594,-1.5026,-1.4281,-1.371,-1.3273,-1.2863,-1.2519,-1.2372,-1.2305,-1.2305,-1.2305,-1.2305,-1.2231,-1.2003,-1.1744,-1.1558,-1.1298,-1.1117,-1.1117,-1.1117,-1.108,-1.0999,-1.0999,-1.0962,-1.0887,-1.085,-1.0812,-1.07,-1.0481,-1.0218,-0.9879,-0.9549,-0.9089,-0.8665,-0.8089,-0.7595,-0.718,-0.6834,-0.6525,-0.6296,-0.6138,-0.598,-0.586,-0.5786,-0.5631,-0.5479,-0.5443,-0.5401,-0.521,-0.5132,-0.5012,-0.474,-0.4403,-0.3955,-0.3308,-0.256,-0.1893,-0.1377,-0.0863,-0.0293,0.0,0.0,0.0,0.0,0.0,0.0,0.0,0.0,0.0,0.0,0.0,0.0,0.0,0.0,0.0,0.0,0.0,0.0,0.0,0.0,0.0314,0.0493,0.0807,0.1211,0.1569,0.1882,0.2107,0.2241,0.2599,0.3092,0.363,0.4123,0.4034,-2.0615,-2.0615,-2.0615,-2.0615,-2.0615,-2.0615,-2.0615,-2.0615,-2.0615,-2.005,-1.9129,-1.8043,-1.7461,-1.7323,-1.7081,-1.6908,-1.6908,-1.6908,-1.6908,-1.6769,-1.6482,-1.6132,-1.5692,-1.5169,-1.4533,-1.3928,-1.3411,-1.2966,-1.2599,-1.2415,-1.2342,-1.2305,-1.2305,-1.2305,-1.2231,-1.1929,-1.1706,-1.1595,-1.1335,-1.1117,-1.1117,-1.1117,-1.1117,-1.1074,-1.1074,-1.1074,-1.1074,-1.1037,-1.0999,-1.085,-1.0663,-1.0363,-0.9992,-0.9576,-0.9013,-0.8518,-0.7978,-0.7446,-0.7026,-0.6641,-0.637,-0.6138,-0.5948,-0.5786,-0.5709,-0.5595,-0.544,-0.5246,-0.5207,-0.5168,-0.5018,-0.5018,-0.4896,-0.4676,-0.426,-0.3808,-0.3133,-0.2421,-0.1737,-0.1126,-0.0635,0.0,0.0,0.0,0.0,0.0,0.0,0.0,0.0,0.0,0.0,0.0,0.0,0.0,0.0,0.0,0.0,0.0,0.0,0.0,0.0,0.0359,0.0583,0.0762,0.1121,0.1614,0.2107,0.2598,0.2867,0.3047,0.3449,0.3853,0.4074,0.4523,0.4391,-2.0615,-2.0615,-2.0615,-2.0615,-2.0615,-2.0615,-2.0615,-2.0586,-2.0459,-1.9944,-1.8937,-1.7954,-1.7382,-1.721,-1.7003,-1.6908,-1.6908,-1.6908,-1.6908,-1.6839,-1.6621,-1.6368,-1.5947,-1.5426,-1.4784,-1.4093,-1.3557,-1.3046,-1.2636,-1.2415,-1.2305,-1.2305,-1.2305,-1.2305,-1.2268,-1.1892,-1.1706,-1.1632,-1.1292,-1.1149,-1.1117,-1.1117,-1.1117,-1.1117,-1.1117,-1.1117,-1.1117,-1.1037,-1.0962,-1.0775,-1.0556,-1.0218,-0.9803,-0.9311,-0.8742,-0.8136,-0.7603,-0.7065,-0.6641,-0.6173,-0.598,-0.5906,-0.5715,-0.5556,-0.5401,-0.5285,-0.5246,-0.509,-0.5054,-0.5057,-0.5018,-0.4956,-0.4777,-0.4494,-0.4112,-0.36,-0.2908,-0.2225,-0.1523,-0.0942,-0.0562,0.0,0.0,0.0,0.0,0.0,0.0,0.0,0.0,0.0,0.0,0.0,0.0,0.0,0.0,0.0,0.0,0.0,0.0,0.0,0.0314,0.0493,0.0762,0.1031,0.1525,0.2018,0.2734,0.3403,0.3717,0.403,0.43,0.4612,0.4835,0.4835,0.4703,-2.0615,-2.0615,-2.0615,-2.0615,-2.0615,-2.0615,-2.0615,-2.0469,-1.9886,-1.9338,-1.8843,-1.782,-1.7279,-1.7141,-1.7012,-1.6908,-1.6908,-1.6908,-1.6908,-1.6874,-1.6691,-1.6412,-1.6061,-1.5603,-1.5026,-1.4317,-1.371,-1.3193,-1.2783,-1.2445,-1.2305,-1.2305,-1.2305,-1.2305,-1.2194,-1.1929,-1.1706,-1.1632,-1.1335,-1.1117,-1.1117,-1.1117,-1.1117,-1.1117,-1.1117,-1.1117,-1.1074,-1.0999,-1.0812,-1.0594,-1.0331,-0.9879,-0.942,-0.8927,-0.8432,-0.7829,-0.7296,-0.6872,-0.6289,-0.5786,-0.5595,-0.5595,-0.5518,-0.5362,-0.5285,-0.5171,-0.5093,-0.5021,-0.5034,-0.5031,-0.5018,-0.4904,-0.4721,-0.434,-0.3891,-0.3312,-0.2682,-0.1928,-0.1252,-0.079,-0.04,0.0,0.0,0.0,0.0,0.0,0.0,0.0,0.0,0.0,0.0,0.0,0.0,0.0,0.0,0.0,0.0,0.0,0.0,0.0,0.0538,0.0718,0.1031,0.1346,0.1929,0.2512,0.3361,0.4121,0.4701,0.5104,0.5104,0.5104,0.5149,0.5102,0.4921,-2.0615,-2.0615,-2.0615,-2.0615,-2.0615,-2.0615,-2.0566,-2.0333,-1.9464,-1.8931,-1.8594,-1.7689,-1.7166,-1.7072,-1.6968,-1.6908,-1.6908,-1.6908,-1.6908,-1.6874,-1.676,-1.6517,-1.6167,-1.5744,-1.5169,-1.4497,-1.3811,-1.3266,-1.2863,-1.2489,-1.2342,-1.2305,-1.2305,-1.2305,-1.2194,-1.1929,-1.1706,-1.1595,-1.1341,-1.1117,-1.1117,-1.1117,-1.1117,-1.1117,-1.1117,-1.1117,-1.1037,-1.0881,-1.0663,-1.0368,-0.9992,-0.9501,-0.9003,-0.8508,-0.8089,-0.7522,-0.6907,-0.6405,-0.5783,-0.5512,-0.5398,-0.5365,-0.5285,-0.5207,-0.5168,-0.5093,-0.5057,-0.5026,-0.5061,-0.508,-0.5062,-0.4912,-0.4649,-0.4303,-0.3737,-0.3178,-0.2438,-0.1709,-0.1098,-0.067,0.0,0.0,0.0,0.0,0.0,0.0,0.0,0.0,0.0,0.0,0.0,0.0,0.0,0.0,0.0,0.0,0.0,0.0,0.0583,0.0718,0.0852,0.1076,0.1391,0.175,0.2469,0.3232,0.4123,0.4839,0.524,0.5419,0.5463,0.5463,0.5508,0.5327,0.5099,-2.0615,-2.0615,-2.0615,-2.0615,-2.0615,-2.0566,-2.0489,-2.0226,-1.9323,-1.8747,-1.835,-1.7565,-1.7081,-1.6943,-1.6908,-1.6908,-1.6908,-1.6908,-1.6908,-1.6908,-1.6874,-1.6595,-1.6272,-1.5912,-1.5275,-1.4561,-1.3884,-1.3302,-1.29,-1.2489,-1.2305,-1.2305,-1.2305,-1.2305,-1.215,-1.1929,-1.1744,-1.1595,-1.1335,-1.1149,-1.1117,-1.1117,-1.1117,-1.1117,-1.1117,-1.1074,-1.0999,-1.085,-1.0519,-1.018,-0.9771,-0.9236,-0.8703,-0.8127,-0.7638,-0.7065,-0.6367,-0.5864,-0.5476,-0.5318,-0.5204,-0.5132,-0.5057,-0.5018,-0.5018,-0.5018,-0.5031,-0.5091,-0.5191,-0.5184,-0.5138,-0.4945,-0.4739,-0.4227,-0.3712,-0.3025,-0.2268,-0.1609,-0.0982,-0.0538,-0.0225,0.0,0.0,0.0,0.0,0.0,0.0,0.0,0.0,0.0,0.0,0.0,0.0,0.0,0.0269,0.0404,0.0628,0.0807,0.1031,0.1166,0.1301,0.162,0.2035,0.2535,0.3198,0.3959,0.4746,0.5228,0.5555,0.5688,0.5644,0.5644,0.5599,0.5463,0.5327,-2.0615,-2.0615,-2.0615,-2.0615,-2.0566,-2.045,-2.0342,-2.0149,-1.9117,-1.848,-1.8359,-1.7389,-1.6987,-1.6908,-1.6908,-1.6908,-1.6908,-1.6908,-1.6908,-1.6908,-1.6908,-1.6621,-1.6307,-1.5947,-1.5346,-1.4597,-1.3884,-1.3309,-1.2893,-1.2482,-1.2298,-1.2305,-1.2305,-1.2305,-1.2157,-1.1892,-1.1781,-1.1595,-1.1298,-1.1149,-1.1117,-1.1117,-1.1117,-1.1117,-1.1117,-1.1037,-1.0887,-1.0723,-1.0359,-0.9862,-0.943,-0.8894,-0.8293,-0.7829,-0.733,-0.6606,-0.6025,-0.5595,-0.5323,-0.5168,-0.5054,-0.5018,-0.5023,-0.5018,-0.5018,-0.5031,-0.5056,-0.5132,-0.5227,-0.5212,-0.5027,-0.4798,-0.4477,-0.3954,-0.3379,-0.2705,-0.1973,-0.1391,-0.0807,-0.0449,-0.009,0.0,0.0,0.0,0.0,0.0,0.0,0.0,0.0,0.0,0.0,0.0,0.018,0.0314,0.0538,0.0673,0.0942,0.1166,0.148,0.1798,0.212,0.2447,0.283,0.3389,0.412,0.4715,0.5317,0.5647,0.5729,0.5696,0.5691,0.5691,0.5688,0.5552,0.5652,-2.0615,-2.0615,-2.0615,-2.0566,-2.0421,-1.9995,-1.9773,-1.9611,-1.8798,-1.8295,-1.7971,-1.7254,-1.6908,-1.6908,-1.6908,-1.6908,-1.6908,-1.6908,-1.6908,-1.6908,-1.6908,-1.6621,-1.6307,-1.5912,-1.5346,-1.4597,-1.3884,-1.3309,-1.2856,-1.2526,-1.2305,-1.2305,-1.2305,-1.2305,-1.2194,-1.1929,-1.1706,-1.1558,-1.1372,-1.1155,-1.1117,-1.1117,-1.1117,-1.1129,-1.1129,-1.0986,-1.0816,-1.0593,-1.0209,-0.9712,-0.9322,-0.871,-0.8078,-0.7541,-0.6834,-0.6141,-0.5831,-0.5482,-0.5207,-0.509,-0.5015,-0.5031,-0.5061,-0.5086,-0.5064,-0.5061,-0.5102,-0.517,-0.5196,-0.5125,-0.4875,-0.4588,-0.4102,-0.3608,-0.2974,-0.2327,-0.1704,-0.1121,-0.0673,-0.0314,0.0,0.0,0.0,0.0,0.0,0.0,0.0,0.0,0.0,0.0,0.0,0.0,0.0314,0.0448,0.0762,0.1166,0.1482,0.1841,0.2241,0.2608,0.2943,0.343,0.3878,0.4461,0.509,0.5557,0.5838,0.5745,0.582,0.5798,0.5731,0.5712,0.5704,0.5644,0.593,-2.0615,-2.0605,-2.0566,-2.0372,-2.01,-1.9325,-1.8928,-1.8863,-1.8434,-1.8036,-1.7522,-1.7092,-1.6908,-1.6908,-1.6908,-1.6908,-1.6908,-1.6908,-1.6908,-1.6908,-1.6908,-1.6691,-1.6307,-1.5912,-1.5346,-1.4597,-1.3884,-1.3236,-1.282,-1.2489,-1.2305,-1.2305,-1.2305,-1.2305,-1.2231,-1.1982,-1.1827,-1.1765,-1.1483,-1.1268,-1.1122,-1.1123,-1.1141,-1.114,-1.1127,-1.1075,-1.0819,-1.0583,-1.0304,-0.9828,-0.9316,-0.8727,-0.7926,-0.7234,-0.6429,-0.598,-0.5719,-0.5487,-0.5269,-0.5128,-0.5089,-0.511,-0.514,-0.5184,-0.5178,-0.5072,-0.5089,-0.5084,-0.5064,-0.4891,-0.4649,-0.4182,-0.3721,-0.3109,-0.2499,-0.1883,-0.1256,-0.0763,-0.0404,0.0,0.0,0.0,0.0,0.0,0.0,0.0,0.0,0.0,0.0,0.0,0.0,0.0449,0.0628,0.0897,0.139,0.175,0.2159,0.2563,0.3063,0.3505,0.3972,0.4465,0.4953,0.5489,0.5944,0.601,0.6175,0.6128,0.6015,0.5912,0.5877,0.5803,0.5779,0.584,0.6203,-2.0615,-2.0537,-2.011,-1.9659,-1.9287,-1.8751,-1.8258,-1.7861,-1.7769,-1.7614,-1.7431,-1.7101,-1.6908,-1.6908,-1.6908,-1.6908,-1.6908,-1.6908,-1.6908,-1.6908,-1.6908,-1.6656,-1.6307,-1.5912,-1.5338,-1.4597,-1.3848,-1.3119,-1.2636,-1.2378,-1.2305,-1.2305,-1.2331,-1.2351,-1.2328,-1.2085,-1.2005,-1.2012,-1.1772,-1.1443,-1.1232,-1.1309,-1.1393,-1.1414,-1.1385,-1.1178,-1.0954,-1.0647,-1.0099,-0.9535,-0.9211,-0.8526,-0.7628,-0.7027,-0.6557,-0.6145,-0.5863,-0.5627,-0.5408,-0.5286,-0.5238,-0.5265,-0.5342,-0.5355,-0.5303,-0.511,-0.4988,-0.4982,-0.4834,-0.4588,-0.4273,-0.3753,-0.3227,-0.2644,-0.2016,-0.1435,-0.0852,-0.0494,-0.0135,0.0,0.0,0.0,0.0,0.0135,0.0269,0.0,0.0,0.0,0.0,0.0,0.0,0.0897,0.1077,0.1391,0.1931,0.2483,0.2949,0.3562,0.4129,0.4551,0.4991,0.5529,0.6067,0.6343,0.6649,0.6643,0.6573,0.6442,0.6338,0.6225,0.6087,0.602,0.6184,0.6253,0.6676,-2.0566,-2.0401,-1.9688,-1.9137,-1.8686,-1.823,-1.7806,-1.7495,-1.7312,-1.7238,-1.7211,-1.7009,-1.6908,-1.6908,-1.6908,-1.6908,-1.6908,-1.6908,-1.6908,-1.6908,-1.6795,-1.6577,-1.6263,-1.5877,-1.524,-1.4533,-1.3666,-1.2936,-1.2489,-1.2342,-1.2305,-1.2338,-1.2398,-1.2512,-1.2501,-1.2395,-1.2297,-1.231,-1.2077,-1.1751,-1.1467,-1.1618,-1.1624,-1.1617,-1.1432,-1.1214,-1.0803,-1.0463,-1.0002,-0.934,-0.8883,-0.8139,-0.7405,-0.6903,-0.662,-0.6288,-0.6044,-0.5802,-0.5621,-0.5499,-0.5429,-0.5435,-0.5439,-0.5445,-0.5424,-0.5264,-0.5032,-0.4932,-0.4412,-0.4109,-0.3707,-0.3224,-0.2599,-0.2017,-0.1479,-0.0897,-0.0538,-0.0225,-0.0045,0.0,0.0,0.0,0.0269,0.0404,0.0493,0.0538,0.0673,0.0852,0.0897,0.1122,0.1256,0.1482,0.18,0.2218,0.287,0.3386,0.3769,0.4444,0.5144,0.568,0.6143,0.6651,0.71,0.7171,0.7128,0.7109,0.6982,0.6801,0.6756,0.6685,0.6493,0.6341,0.6528,0.6804,0.7297,-2.0285,-1.9966,-1.9193,-1.8648,-1.8221,-1.7668,-1.7403,-1.7348,-1.7064,-1.6927,-1.6945,-1.6927,-1.6908,-1.6908,-1.6908,-1.6908,-1.6908,-1.6908,-1.6908,-1.683,-1.6673,-1.6473,-1.6158,-1.5744,-1.5106,-1.431,-1.3448,-1.2973,-1.2562,-1.2476,-1.2438,-1.2432,-1.2599,-1.2844,-1.2815,-1.272,-1.2622,-1.2527,-1.2354,-1.2065,-1.2011,-1.198,-1.1854,-1.1652,-1.1398,-1.1079,-1.0671,-1.0305,-0.9963,-0.9253,-0.8653,-0.7955,-0.7372,-0.6975,-0.6694,-0.6434,-0.6187,-0.5937,-0.5739,-0.5563,-0.5487,-0.5458,-0.5486,-0.5486,-0.5505,-0.53,-0.5054,-0.4638,-0.4107,-0.3539,-0.3135,-0.2598,-0.2017,-0.1435,-0.0942,0.0,0.0,0.0,0.0,0.0,0.018,0.0359,0.0448,0.0583,0.0718,0.0718,0.0852,0.1031,0.1257,0.1664,0.1979,0.2394,0.2767,0.329,0.3867,0.4274,0.4665,0.5341,0.6018,0.6711,0.723,0.7429,0.7545,0.7568,0.7571,0.7456,0.7285,0.7119,0.7085,0.7052,0.6982,0.6894,0.7087,0.7414,0.8018,-1.9439,-1.8723,-1.821,-1.7914,-1.7622,-1.7193,-1.7018,-1.7009,-1.6954,-1.6908,-1.6908,-1.6908,-1.6908,-1.6908,-1.6908,-1.6908,-1.6908,-1.6908,-1.6908,-1.6874,-1.6647,-1.6403,-1.6061,-1.5532,-1.4864,-1.4065,-1.3302,-1.2863,-1.2702,-1.2671,-1.2703,-1.2723,-1.2973,-1.3087,-1.3094,-1.3006,-1.2908,-1.2817,-1.2688,-1.2457,-1.2427,-1.2325,-1.2129,-1.1987,-1.187,-1.142,-1.1006,-1.0684,-1.0106,-0.933,-0.8531,-0.7969,-0.7566,-0.7143,-0.6849,-0.658,-0.6324,-0.6071,-0.5869,-0.5705,-0.5586,-0.561,-0.5623,-0.5629,-0.5461,-0.5063,-0.4761,-0.436,-0.3762,-0.3092,-0.2598,-0.2017,-0.1436,-0.0942,-0.0449,0.0,0.0,0.0,0.0,0.0,0.0224,0.0359,0.0448,0.0673,0.0987,0.1076,0.1346,0.1526,0.1804,0.2256,0.2667,0.3235,0.3765,0.4314,0.4848,0.5179,0.5608,0.6261,0.6819,0.7262,0.7619,0.7836,0.7939,0.7842,0.7842,0.7779,0.7561,0.739,0.739,0.7408,0.7434,0.7473,0.7697,0.8115,0.8758]},{"header":{"parameterUnit":"m.s-1","parameterCategory":1,"la1":31.0,"la2":29.5877,"lo1":-88.7671,"lo2":-86.6584,"dy":0.0162,"dx":0.0185,"nx":115,"ny":88,"refTime":"2024-05-20T06:00:00:Z","depth":0,"parameterNumber":3,"parameterNumberName":"V-component_of_WINDS"},"data":[0.0,0.0,0.0,0.0,0.0,0.0,0.0,0.0,0.0,0.0,0.0,0.0,0.0,0.0,0.0,0.0,0.0,0.0,0.0,0.0,0.0,0.0,0.0,0.0,0.0,0.0,0.0,0.0,0.0,0.0,0.0,0.0,0.0,0.0,0.0,0.0,0.0,0.0,0.0,0.0,0.0,0.0,0.0,0.0,0.0,0.0,0.0,0.0,0.0,0.0,0.0,0.0,0.0,0.0,0.0,0.0,0.0,0.0,0.0,0.0,0.0,0.0,0.0,0.0,0.0,0.0,0.0,0.0,0.0,0.0,0.0,0.0,0.0,0.0,0.0,0.0,0.0,0.0,0.0,0.0,0.0,0.0,0.0,0.0,0.0,0.0,0.0,0.0,0.0,0.0,0.0,0.0,0.0,0.0,0.0,0.0,0.0,0.0,0.0,0.0,0.0,0.0,0.0,0.0,0.0,0.0,0.0,0.0,0.0,0.0,0.0,0.0,0.0,0.0,0.0,0.0,0.0,0.0,0.0,0.0,0.0,0.0,0.0,0.0,0.0,0.0,0.0,0.0,0.0,0.0,0.0,0.0,0.0,0.0,0.0,0.0,0.0,0.0,0.0,0.0,0.0,0.0,0.0,0.0,0.0,0.0,0.0,0.0,0.0,0.0,0.0,0.0,0.0,0.0,0.0,0.0,0.0,0.0,0.0,0.0,0.0,0.0,0.0,0.0,0.0,0.0,0.0,0.0,0.0,0.0,0.0,0.0,0.0,0.0,0.0,0.0,0.0,0.0,0.0,0.0,0.0,0.0,0.0,0.0,0.0,0.0,0.0,0.0,0.0,0.0,0.0,0.0,0.0,0.0,0.0,0.0,0.0,0.0,0.0,0.0,0.0,0.0,0.0,0.0,0.0,0.0,0.0,0.0,0.0,0.0,0.0,0.0,0.0,0.0,0.0,0.0,0.0,0.0,0.0,0.0,0.0,0.0,0.0,0.0,0.0,0.0,0.0,0.0,0.0,0.0,0.0,0.0,0.0,0.0,0.0,0.0,0.0,0.0,0.0,0.0,0.0,0.0,0.0,0.0,0.0,0.0,0.0,0.0,0.0,0.0,0.0,0.0,0.0,0.0,0.0,0.0,0.0,0.0,0.0,0.0,0.0,0.0,0.0,0.0,0.0,0.0,0.0,0.0,0.0,0.0,0.0,0.0,0.0,0.0,0.0,0.0,0.0,0.0,0.0,0.0,0.0,0.0,0.0,0.0,0.0,0.0,0.0,0.0,0.0,0.0,0.0,0.0,0.0,0.0,0.0,0.0,0.0,0.0,0.0,0.0,0.0,0.0,0.0,0.0,0.0,0.0,0.0,0.0,0.0,0.0,0.0,0.0,0.0,0.0,0.0,0.0,0.0,0.0,0.0,0.0,0.0,0.0,0.0,0.0,0.0,0.0,0.0,0.0,0.0,0.0,0.0,0.0,0.0,0.0,0.0,0.0,0.0,0.0,0.0,0.0,0.0,0.0,0.0,0.0,0.0,0.0,0.0,0.0,0.0,0.0,0.0,0.0,0.0,0.0,0.0,0.0,0.0,0.0,0.0,0.0,0.0,0.0,0.0,0.0,0.0,0.0,0.0,0.0,0.0,0.0,0.0,0.0,0.0,0.0,0.0,0.0,0.0,0.0,0.0,0.0,0.0,0.0,0.0,0.0,0.0,0.0,0.0,0.0,0.0,0.0,0.0,0.0,0.0,0.0,0.0,0.0,0.0,0.0,0.0,0.0,0.0,0.0,0.0,0.0,0.0,0.0,0.0,0.0,0.0,0.0,0.0,0.0,0.0,0.0,0.0,0.0,0.0,0.0,0.0,0.0,0.0,0.0,0.0,0.0,0.0,0.0,0.0,0.0,0.0,0.0,0.0,0.0,0.0,0.0,0.0,0.0,0.0,0.0,0.0,0.0,0.0,0.0,0.0,0.0,0.0,0.0,0.0,0.0,0.0,0.0,0.0,0.0,0.0,0.0,0.0,0.0,0.0,0.0,0.0,0.0,0.0,0.0,0.0,0.0,0.0,0.0,0.0,0.0,0.0,0.0,0.0,0.0,0.0,0.0,0.0,0.0,0.0,0.0,0.0,0.0,0.0,0.0,0.0,0.0,0.0,0.0,0.0,0.0,0.0,0.0,0.0,0.0,0.0,0.0,0.0,0.0,0.0,0.0,0.0,0.0,0.0,0.0,0.0,0.0,0.0,0.0,0.0,0.0,0.0,0.0,0.0,0.0,0.0,0.0,0.0,0.0,0.0,0.0,0.0,0.0,0.0,0.0,0.0,0.0,0.0,0.0,0.0,0.0,0.0,0.0,0.0,0.0,0.0,0.0,0.0,0.0,0.0,0.0,0.0,0.0,0.0,0.0,0.0,0.0,0.0,0.0,0.0,0.0,0.0,0.0,0.0,0.0,0.0,0.0,0.0,0.0,0.0,0.0,0.0,0.0,0.0,0.0,0.0,0.0,0.0,0.0,0.0,0.0,0.0,0.0,0.0,0.0,0.0,0.0,0.0,0.0,0.0,0.0,0.0,0.0,0.0,0.0,0.0,0.0,0.0,0.0,0.0,0.0,0.0,0.0,0.0,0.0,0.0,0.0,0.0,0.0,0.0,0.0,0.0,0.0,0.0,0.0,0.0,0.0,0.0,0.0,0.0,0.0,0.0,0.0,0.0,0.0,0.0,0.0,0.0,0.0,0.0,0.0,0.0,0.0,0.0,0.0,0.0,0.0,0.0,0.0,0.0,0.0,0.0,0.0,0.0,0.0,0.0,0.0,0.0,0.0,0.0,0.0,0.0,0.0,0.0,0.0,0.0,0.0,0.0,0.0,0.0,0.0,0.0,0.0,0.0,0.0,0.0,0.0,0.0,0.0,0.0,0.0,0.0,0.0,0.0,0.0,0.0,0.0,0.0,0.0,0.0,0.0,0.0,0.0,0.0,0.0,0.0,0.0,0.0,0.0,0.0,0.0,0.0,0.0,0.0,0.0,0.0,0.0,0.0,0.0,0.0,0.0,0.0,0.0,0.0,0.0,0.0,0.0,0.0,0.0,0.0,0.0,0.0,0.0,0.0,0.0,0.0,0.0,0.0,0.0,0.0,0.0,0.0,0.0,0.0,0.0,0.0,0.0,0.0,0.0,0.0,0.0,0.0,0.0,0.0,0.0,0.0,0.0,0.0,0.0,0.0,0.0,0.0,0.0,0.0,0.0,0.0,0.0,0.0,0.0,0.0,0.0,0.0,0.0,0.0,0.0,0.0,0.0,0.0,0.0,0.0,0.0,0.0,0.0,0.0,0.0,0.0,0.0,0.0,0.0,0.0,0.0,0.0,0.0,0.0,0.0,0.0,0.0,0.0,0.0,0.0,0.0,0.0,0.0,0.0,0.0,0.0,0.0,0.0,0.0,0.0,0.0,0.0,0.0,0.0,0.0,0.0,0.0,0.0,0.0,0.0,0.0,0.0,0.0,0.0,0.0,0.0,0.0,0.0,0.0,0.0,0.0,0.0,0.0,0.0,0.0,0.0,0.0,0.0,0.0,0.0,0.0,0.0,0.0,0.0,0.0,0.0,0.0,0.0,0.0,0.0,0.0,0.0,0.0,0.0,0.0,0.0,0.0,0.0,0.0,0.0,0.0,0.0,0.0,0.0,0.0,0.0,0.0,0.0,0.0,0.0,0.0,0.0,0.0,0.0,0.0,0.0,0.0,0.0,0.0,0.0,0.0,0.0,0.0,0.0,0.0,0.0,0.0,0.0,0.0,0.0,0.0,0.0,0.0,0.0,0.0,0.0,0.0,0.0,0.0,0.0,0.0,0.0,0.0,0.0,0.0,0.0,0.0,0.0,0.0,0.0,0.0,0.0,0.0,0.0,0.0,0.0,0.0,0.0,0.0,0.0,0.0,0.0,0.0,0.0,0.0,0.0,0.0,0.0,0.0,0.0,0.0,0.0,0.0,0.0,0.0,0.0,0.0,0.0,0.0,0.0,0.0,0.0,0.0,0.0,0.0,0.0,0.0,0.0,0.0,0.0,0.0,0.0,0.0,0.0,0.0,0.0,0.0,0.0,0.0,0.0,0.0,0.0,0.0,0.0,0.0,0.0,0.0,0.0,0.0,0.0,0.0,0.0,0.0,0.0,0.0,0.0,0.0,0.0,0.0,0.0,0.0,0.0,0.0,0.0,0.0,0.0,0.0,0.0,0.0,0.0,0.0,0.0,0.0,0.0,0.0,0.0,0.0,0.0,0.0,1.0311,0.0,0.0,0.0,0.0,0.0,0.0,0.0,0.0,0.0,0.0,0.0,0.0,0.0,0.0,0.0,0.0,0.0,0.0,0.0,0.0,0.0,0.0,0.0,0.0,0.0,0.0,0.0,0.0,0.0,0.0,0.0,0.0,0.0,0.0,0.0,0.0,0.0,0.0,0.0,0.0,0.0,0.0,0.0,0.0,0.0,0.0,0.0,0.0,0.0,0.0,0.0,0.0,0.0,0.0,0.0,0.0,0.0,0.0,0.0,0.0,0.0,0.0,0.0,0.0,0.0,0.0,0.0,0.0,0.0,0.0,0.0,0.0,0.0,0.0,0.0,0.0,0.0,0.0,0.0,0.0,0.0,0.0,0.0,0.0,0.0,0.0,0.0,0.0,0.0,0.0,0.0,0.0,0.0,0.0,0.0,0.0,0.0,0.0,0.0,0.0,0.0,0.0,0.0,0.0,0.0,0.0,0.0,0.0,0.0,0.0,1.0185,1.019,1.0251,1.0305,1.0311,0.0,0.0,0.0,0.0,0.0,0.0,0.0,0.0,0.0,0.0,0.0,0.0,0.0,0.0,0.0,0.0,0.0,0.0,0.0,0.0,0.0,0.0,0.0,0.0,0.0,0.0,0.0,0.0,0.0,0.0,0.0,0.0,0.0,0.0,0.0,0.0,0.0,0.0,0.0,0.0,0.0,0.0,0.0,0.0,0.0,0.0,0.0,0.0,0.0,0.0,0.0,0.0,0.0,0.0,0.0,0.0,0.0,0.0,0.0,0.0,0.0,0.0,0.0,0.0,0.0,0.0,0.0,0.0,0.0,0.0,0.0,0.0,0.0,0.0,0.0,0.0,0.0,0.0,0.0,0.0,0.0,0.0,0.0,0.0,0.0,0.0,0.0,0.0,0.0,0.0,0.0,0.0,0.0,0.0,0.0,0.0,0.0,0.0,0.0,0.0,0.0,0.0,0.0,0.0,0.0,0.0,0.0,0.0,0.0,0.0,0.0,0.0,1.0251,1.0286,1.0312,0.0,0.0,0.0,0.0,0.0,0.0,0.0,0.0,0.0,0.0,0.0,0.0,0.0,0.0,0.0,0.0,0.0,0.0,0.0,0.0,0.0,0.0,0.0,0.0,0.0,0.0,0.0,0.0,0.0,0.0,0.0,0.0,0.0,0.0,0.0,0.0,0.0,0.0,0.0,0.0,0.0,0.0,0.0,0.0,0.0,0.0,0.0,0.0,0.0,0.0,0.0,0.0,0.0,0.0,0.0,0.0,0.0,0.0,0.0,0.0,0.0,0.0,0.0,0.0,0.0,0.0,0.0,0.0,0.0,0.0,0.0,0.0,0.0,0.0,0.0,0.0,0.0,0.0,0.0,0.0,0.0,0.0,0.0,0.0,0.0,0.0,0.0,0.0,0.0,0.0,0.0,0.0,0.0,0.0,0.0,0.0,0.0,0.0,0.0,0.0,0.0,0.0,0.0,0.0,0.0,0.0,0.0,0.0,0.0,0.0,1.02,1.0192,1.021,0.0,1.0292,0.0,0.0,0.0,0.0,0.0,0.0,0.0,0.0,0.0,0.0,0.0,0.0,0.0,0.0,0.0,0.0,0.0,0.0,0.0,0.0,0.0,0.0,0.0,0.0,0.0,0.0,0.0,0.0,0.0,0.0,0.0,0.0,0.0,0.0,0.0,0.0,0.0,0.0,0.0,0.0,0.0,0.0,0.0,0.0,0.0,0.0,0.0,0.0,0.0,0.0,0.0,0.0,0.0,0.0,0.0,0.0,0.0,0.0,0.0,0.0,0.0,0.0,0.0,0.0,0.0,0.0,0.0,0.0,0.0,0.0,0.0,0.0,0.0,0.0,0.0,0.0,0.0,0.0,0.0,0.0,0.0,0.0,0.0,0.0,0.0,0.0,0.0,0.0,0.0,0.0,0.0,0.0,0.0,0.0,0.0,0.0,0.0,0.0,0.0,0.0,0.0,0.0,0.0,0.0,0.0,0.0,0.0,0.0,0.0,0.0,0.0,1.0263,1.0263,1.0272,0.0,0.0,0.0,0.0,0.0,0.0,0.0,0.0,0.0,0.0,0.0,0.0,0.0,0.0,0.0,0.0,0.0,0.0,0.0,0.0,0.0,0.0,0.0,0.0,0.0,0.0,0.0,0.0,0.0,0.0,0.0,0.0,0.0,0.0,0.0,0.0,0.0,0.0,0.0,0.0,0.0,0.0,0.0,0.0,0.0,0.0,0.0,0.0,0.0,0.0,0.0,0.0,0.0,0.0,0.0,0.0,0.0,0.0,0.0,0.0,0.0,0.0,0.0,0.0,0.0,0.0,0.0,0.0,0.0,0.0,0.0,0.0,0.0,0.0,0.0,0.0,0.0,0.0,0.0,0.0,0.0,0.0,0.0,0.0,0.0,0.0,0.0,0.0,0.0,0.0,0.0,0.0,0.0,0.0,0.0,0.0,0.0,0.0,0.0,0.0,0.0,0.0,0.0,0.0,0.0,0.0,0.0,0.0,0.0,0.0,1.0194,0.0,1.0293,1.0308,1.0312,1.0312,0.0,0.0,0.0,0.0,0.0,0.0,0.0,0.0,0.0,0.0,0.0,0.0,0.0,0.0,0.0,0.0,0.0,0.0,0.0,0.0,0.0,0.0,0.0,0.0,0.0,0.0,0.0,0.0,0.0,0.0,0.0,0.0,0.0,0.0,0.0,0.0,0.0,0.0,0.0,0.0,0.0,0.0,0.0,0.0,0.0,0.0,0.0,0.0,0.0,0.0,0.0,0.0,0.0,0.0,0.0,0.0,0.0,0.0,0.0,0.0,0.0,0.0,0.0,0.0,0.0,0.0,0.0,0.0,0.0,0.0,0.0,0.0,0.0,0.0,0.0,0.0,0.0,0.0,0.0,0.0,0.0,0.0,0.0,0.0,0.0,0.0,0.0,0.0,0.0,0.0,0.0,0.0,0.0,0.0,0.0,0.0,0.0,0.0,0.0,0.0,0.0,0.0,0.0,0.0,0.0,0.0,0.0,0.0,0.0,1.0192,1.0224,1.0299,1.031,1.0312,0.0,0.0,0.0,0.0,0.0,0.0,0.0,0.0,0.0,0.0,0.0,0.0,0.0,0.0,0.0,0.0,0.0,0.0,0.0,0.0,0.0,0.0,0.0,0.0,0.0,0.0,0.0,0.0,0.0,0.0,0.0,0.0,0.0,0.0,0.0,0.0,0.0,0.0,0.0,0.0,0.0,0.0,0.0,0.0,0.0,0.0,0.0,0.0,0.0,0.0,0.0,0.0,0.0,0.0,0.0,0.0,0.0,0.0,0.0,0.0,0.0,0.0,0.0,0.0,0.0,0.0,0.0,0.0,0.0,0.0,0.0,0.0,0.0,0.0,0.0,0.0,0.0,0.0,0.0,0.0,0.0,0.0,0.0,0.0,0.0,0.0,0.0,0.0,0.0,0.0,0.0,0.0,0.0,0.0,0.0,0.0,0.0,0.0,0.0,0.0,0.0,0.0,0.0,0.0,0.0,0.0,0.0,0.0,0.0,1.0248,1.0254,1.0278,1.0304,1.0308,1.0311,0.0,0.0,0.0,0.0,0.0,0.0,0.0,0.0,0.0,0.0,0.0,0.0,0.0,0.0,0.0,0.0,0.0,0.0,0.0,0.0,0.0,0.0,0.0,0.0,0.0,0.0,0.0,0.0,0.0,0.0,0.0,0.0,0.0,0.0,0.0,0.0,0.0,0.0,0.0,0.0,0.0,0.0,0.0,0.0,0.0,0.0,0.0,0.0,0.0,0.0,0.0,0.0,0.0,0.0,0.0,0.0,0.0,0.0,0.0,0.0,0.0,0.0,0.0,0.0,0.0,0.0,0.0,0.0,0.0,0.0,0.0,0.0,0.0,0.0,0.0,0.0,0.0,0.0,0.0,0.0,0.0,0.0,0.0,0.0,0.0,0.0,0.0,0.0,0.0,0.0,0.0,0.0,0.0,0.0,0.0,0.0,0.0,0.0,0.0,0.0,0.0,0.0,0.0,0.0,0.0,0.0,0.0,0.0,0.0,1.0318,0.0,1.0324,0.0,1.0307,1.031,0.0,0.0,0.0,0.0,0.0,0.0,0.0,0.0,0.0,0.0,0.0,0.0,0.0,0.0,0.0,0.0,0.0,0.0,0.0,0.0,0.0,0.0,0.0,0.0,0.0,0.0,0.0,0.0,0.0,0.0,0.0,0.0,0.0,0.0,0.0,0.0,0.0,0.0,0.0,0.0,0.0,0.0,0.0,0.0,0.0,0.0,0.0,0.0,0.0,0.0,0.0,0.0,0.0,0.0,0.0,0.0,0.0,0.0,0.0,0.0,0.0,0.0,0.0,0.0,0.0,0.0,0.0,0.0,0.0,0.0,0.0,0.0,0.0,0.0,0.0,0.0,0.0,0.0,0.0,0.0,0.0,0.0,0.0,0.0,0.0,0.0,0.0,0.0,0.0,0.0,0.0,0.0,0.0,0.0,0.0,0.0,0.0,0.0,0.0,0.0,0.0,0.0,0.0,0.0,0.0,0.0,0.0,0.0,1.0344,1.0324,1.0344,1.0383,1.0344,1.0366,1.0348,0.0,0.0,0.0,0.0,0.0,0.0,0.0,0.0,0.0,0.0,0.0,0.0,0.0,0.0,0.0,0.0,0.0,0.0,0.0,0.0,0.0,0.0,0.0,0.0,0.0,0.0,0.0,0.0,0.0,0.0,0.0,0.0,0.0,0.0,0.0,0.0,0.0,0.0,0.0,0.0,0.0,0.0,0.0,0.0,0.0,0.0,0.0,0.0,0.0,0.0,0.0,0.0,0.0,0.0,0.0,0.0,0.0,0.0,0.0,0.0,0.0,0.0,0.0,0.0,0.0,0.0,0.0,0.0,0.0,0.0,0.0,0.0,0.0,0.0,0.0,0.0,0.0,0.0,0.0,0.0,0.0,0.0,0.0,0.0,0.0,0.0,0.0,0.0,0.0,0.0,0.0,0.0,0.0,0.0,0.0,0.0,0.0,0.0,0.0,0.0,0.0,0.0,0.0,0.0,0.0,0.0,0.0,0.0,0.0,1.121,1.1189,1.15,1.2046,1.1519,1.1208,0.0,0.0,0.0,0.0,0.0,0.0,0.0,0.0,0.0,0.0,0.0,0.0,0.0,0.0,0.0,0.0,0.0,0.0,0.0,0.0,0.0,0.0,0.0,0.0,0.0,0.0,0.0,0.0,0.0,0.0,0.0,0.0,0.0,0.0,0.0,0.0,0.0,0.0,0.0,0.0,0.0,0.0,0.0,0.0,0.0,0.0,0.0,0.0,0.0,0.0,0.0,0.0,0.0,0.0,0.0,0.0,0.0,0.0,0.0,0.0,0.0,0.0,0.0,0.0,0.0,0.0,0.0,0.0,0.0,0.0,0.0,0.0,0.0,0.0,0.0,0.0,0.0,0.0,0.0,0.0,0.0,0.0,0.0,0.0,0.0,0.0,0.0,0.0,0.0,0.0,0.0,0.0,0.0,0.0,0.0,0.0,0.0,0.0,0.0,0.0,0.0,0.0,0.0,0.0,0.0,0.0,0.0,0.0,0.0,1.2944,1.2695,1.2793,1.332,1.2811,1.2245,1.162,0.0,0.0,0.0,0.0,0.0,0.0,0.0,0.0,0.0,0.0,0.0,0.0,0.0,0.0,0.0,0.0,0.0,0.0,0.0,0.0,0.0,0.0,0.0,0.0,0.0,0.0,0.0,0.0,0.0,0.0,0.0,0.0,0.0,0.0,0.0,0.0,0.0,0.0,0.0,0.0,0.0,0.0,0.0,0.0,0.0,0.0,0.0,0.0,0.0,0.0,0.0,0.0,0.0,0.0,0.0,0.0,0.0,0.0,0.0,0.0,0.0,0.0,0.0,0.0,0.0,0.0,0.0,0.0,0.0,0.0,0.0,0.0,0.0,0.0,0.0,0.0,0.0,0.0,0.0,0.0,0.0,0.0,0.0,0.0,0.0,0.0,0.0,0.0,0.0,0.0,0.0,0.0,0.0,0.0,0.0,0.0,0.0,0.0,0.0,0.0,0.0,0.0,0.0,0.0,0.0,0.0,0.0,0.0,1.5434,1.475,1.4389,1.4334,1.4238,1.3418,0.0,0.0,0.0,0.0,0.0,0.0,0.0,0.0,0.0,0.0,0.0,0.0,0.0,0.0,0.0,0.0,0.0,0.0,0.0,0.0,0.0,0.0,0.0,0.0,0.0,0.0,0.0,0.0,0.0,0.0,0.0,0.0,0.0,0.0,0.0,0.0,0.0,0.0,0.0,0.0,0.0,0.0,0.0,0.0,0.0,0.0,0.0,0.0,0.0,0.0,0.0,0.0,0.0,0.0,0.0,0.0,0.0,0.0,0.0,0.0,0.0,0.0,0.0,0.0,0.0,0.0,0.0,0.0,0.0,0.0,0.0,0.0,0.0,0.0,0.0,0.0,0.0,0.0,0.0,0.0,0.0,0.0,0.0,0.0,0.0,0.0,0.0,0.0,0.0,0.0,0.0,0.0,0.0,0.0,0.0,0.0,0.0,0.0,0.0,0.0,0.0,0.0,0.0,0.0,0.0,0.0,0.0,0.0,0.0,1.6212,1.7304,1.7582,1.6979,1.5717,1.4568,0.0,0.0,0.0,0.0,0.0,0.0,0.0,0.0,0.0,0.0,0.0,0.0,0.0,0.0,0.0,0.0,0.0,0.0,0.0,0.0,0.0,0.0,0.0,0.0,0.0,0.0,0.0,0.0,0.0,0.0,0.0,0.0,0.0,0.0,0.0,0.0,0.0,0.0,0.0,0.0,0.0,0.0,0.0,0.0,0.0,0.0,0.0,0.0,0.0,0.0,0.0,0.0,0.0,0.0,0.0,0.0,0.0,0.0,0.0,0.0,0.0,0.0,0.0,0.0,0.0,0.0,0.0,0.0,0.0,0.0,0.0,0.0,0.0,0.0,0.0,0.0,0.0,0.0,0.0,0.0,0.0,0.0,0.0,0.0,0.0,0.0,0.0,0.0,0.0,0.0,0.0,0.0,0.0,0.0,0.0,0.0,0.0,0.0,0.0,0.0,0.0,0.0,0.0,0.0,0.0,0.0,0.0,0.0,1.544,1.7114,1.8494,1.9159,1.9051,1.74,1.5929,0.0,0.0,0.0,0.0,0.0,0.0,0.0,0.0,0.0,0.0,0.0,0.0,0.0,0.0,0.0,0.0,0.0,0.0,0.0,0.0,0.0,0.0,0.0,0.0,0.0,0.0,0.0,0.0,0.0,0.0,0.0,0.0,0.0,0.0,0.0,0.0,0.0,0.0,0.0,0.0,0.0,0.0,0.0,0.0,0.0,0.0,0.0,0.0,0.0,0.0,0.0,0.0,0.0,0.0,0.0,0.0,0.0,0.0,0.0,0.0,0.0,0.0,0.0,0.0,0.0,0.0,0.0,0.0,0.0,0.0,0.0,0.0,0.0,0.0,0.0,0.0,0.0,0.0,0.0,0.0,0.0,0.0,0.0,0.0,0.0,0.0,0.0,0.0,0.0,0.0,0.0,0.0,0.0,0.0,0.0,0.0,0.0,0.0,0.0,0.0,0.0,0.0,0.0,0.0,0.0,0.0,0.0,0.0,1.6252,1.7985,1.887,1.9719,2.041,1.8854,1.7227,0.0,0.0,0.0,0.0,0.0,0.0,0.0,0.0,0.0,0.0,0.0,0.0,0.0,0.0,0.0,0.0,0.0,0.0,0.0,0.0,0.0,0.0,0.0,0.0,0.0,0.0,0.0,0.0,0.0,0.0,0.0,0.0,0.0,0.0,0.0,0.0,0.0,0.0,0.0,0.0,0.0,0.0,0.0,0.0,0.0,0.0,0.0,0.0,0.0,0.0,0.0,0.0,0.0,0.0,0.0,0.0,0.0,0.0,0.0,0.0,0.0,0.0,0.0,0.0,0.0,0.0,0.0,0.0,0.0,0.0,0.0,0.0,0.0,0.0,0.0,0.0,0.0,0.0,0.0,0.0,0.0,0.0,0.0,0.0,0.0,0.0,0.0,0.0,0.0,0.0,0.0,0.0,0.0,0.0,0.0,0.0,0.0,0.0,0.0,0.0,0.0,0.0,0.0,0.0,0.0,0.0,0.0,0.0,1.7083,1.8805,1.9693,2.0239,2.042,1.879,1.744,0.0,0.0,0.0,0.0,0.0,0.0,0.0,0.0,0.0,0.0,0.0,0.0,0.0,0.0,0.0,0.0,0.0,0.0,0.0,0.0,0.0,0.0,0.0,0.0,0.0,0.0,0.0,0.0,0.0,0.0,0.0,0.0,0.0,0.0,0.0,0.0,0.0,0.0,0.0,0.0,0.0,0.0,0.0,0.0,0.0,0.0,0.0,0.0,1.4628,0.0,0.0,0.0,0.0,0.0,0.0,0.0,0.0,0.0,0.0,0.0,0.0,0.0,0.0,0.0,0.0,0.0,0.0,0.0,0.0,0.0,0.0,0.0,0.0,0.0,0.0,0.0,0.0,0.0,0.0,0.0,0.0,0.0,0.0,0.0,0.0,0.0,0.0,0.0,0.0,0.0,0.0,0.0,0.0,0.0,0.0,0.0,0.0,0.0,0.0,0.0,0.0,0.0,0.0,0.0,0.0,0.0,0.0,0.0,1.7763,1.9078,1.996,2.0393,2.0346,1.9174,1.8141,0.0,0.0,0.0,0.0,0.0,0.0,0.0,0.0,0.0,0.0,0.0,0.0,0.0,0.0,0.0,0.0,0.0,0.0,0.0,0.0,0.0,0.0,0.0,0.0,0.0,0.0,0.0,0.0,0.0,0.0,0.0,0.0,0.0,0.0,0.0,0.0,0.0,0.0,0.0,0.0,0.0,0.0,0.0,0.0,0.0,0.0,0.0,0.0,0.0,0.0,0.0,0.0,0.0,0.0,0.0,0.0,0.0,0.0,0.0,0.0,0.0,0.0,0.0,0.0,0.0,0.0,0.0,0.0,0.0,0.0,0.0,0.0,0.0,0.0,0.0,0.0,0.0,0.0,0.0,0.0,0.0,0.0,0.0,0.0,0.0,0.0,0.0,0.0,0.0,0.0,0.0,0.0,0.0,0.0,0.0,0.0,0.0,0.0,0.0,0.0,0.0,0.0,0.0,0.0,0.0,0.0,0.0,1.6565,1.8285,1.9275,2.0025,2.0382,2.0374,1.9619,1.8804,1.7977,0.0,0.0,0.0,0.0,0.0,0.0,0.0,0.0,0.0,0.0,0.0,0.0,0.0,0.0,0.0,0.0,0.0,0.0,0.0,0.0,0.0,0.0,0.0,0.0,0.0,0.0,0.0,0.0,0.0,0.0,0.0,0.0,0.0,0.0,0.0,0.0,0.0,0.0,1.2895,1.5043,0.0,0.0,0.0,0.0,0.0,0.0,0.0,0.0,1.6952,0.0,0.0,0.0,0.0,0.0,0.0,0.0,0.0,0.0,0.0,0.0,0.0,0.0,0.0,0.0,0.0,0.0,0.0,0.0,0.0,0.0,0.0,0.0,0.0,0.0,0.0,0.0,0.0,0.0,0.0,0.0,0.0,0.0,0.0,0.0,0.0,0.0,0.0,0.0,0.0,0.0,0.0,0.0,0.0,0.0,0.0,0.0,0.0,0.0,0.0,0.0,0.0,0.0,0.0,0.0,0.0,1.5086,1.6891,1.8535,2.0054,2.0299,2.0379,2.0372,1.9619,1.88,1.787,0.0,0.0,0.0,0.0,0.0,0.0,0.0,0.0,0.0,0.0,0.0,0.0,0.0,0.0,0.0,0.0,0.0,0.0,0.0,0.0,0.0,0.0,0.0,0.0,0.0,0.0,0.0,0.0,0.0,0.0,0.0,0.0,0.0,0.0,0.0,0.0,0.0,0.0,0.0,1.706,1.7977,0.0,0.0,0.0,0.0,0.0,0.0,0.0,0.0,1.7383,0.0,0.0,0.0,0.0,0.0,0.0,0.0,0.0,0.0,0.0,0.0,0.0,0.0,0.0,0.0,0.0,0.0,0.0,0.0,0.0,0.0,0.0,0.0,0.0,0.0,0.0,0.0,0.0,0.0,0.0,0.0,0.0,0.0,0.0,0.0,0.0,0.0,0.0,0.0,0.0,0.0,0.0,0.0,0.0,0.0,0.0,0.0,0.0,0.0,0.0,0.0,0.0,0.0,0.0,0.0,1.5223,1.6921,1.8606,2.0234,2.035,2.0379,2.0374,1.9619,1.8778,0.0,0.0,0.0,0.0,0.0,0.0,0.0,0.0,0.0,0.0,0.0,0.0,0.0,0.0,0.0,0.0,0.0,0.0,0.0,0.0,0.0,0.0,0.0,0.0,0.0,0.0,0.0,0.0,0.0,0.0,0.0,0.0,0.0,0.0,0.0,0.0,0.0,0.0,0.0,0.0,1.7857,1.861,1.8657,0.0,0.0,0.0,0.0,0.0,0.0,1.8474,1.8638,0.0,0.0,0.0,0.0,0.0,0.0,0.0,0.0,0.0,0.0,0.0,0.0,0.0,0.0,0.0,0.0,0.0,0.0,0.0,0.0,0.0,0.0,0.0,0.0,0.0,0.0,0.0,0.0,0.0,0.0,0.0,0.0,0.0,0.0,0.0,0.0,0.0,0.0,0.0,0.0,0.0,0.0,0.0,0.0,0.0,0.0,0.0,0.0,0.0,0.0,0.0,0.0,0.0,0.0,0.0,1.5438,1.6992,1.8619,2.022,2.035,2.0385,2.038,1.9469,1.8531,0.0,0.0,0.0,0.0,0.0,0.0,0.0,0.0,0.0,0.0,0.0,0.0,0.0,0.0,0.0,0.0,0.0,0.0,0.0,0.0,0.0,0.0,0.0,0.0,0.0,0.0,0.0,0.0,0.0,0.0,0.0,0.0,0.0,0.0,0.0,0.0,0.0,0.0,0.0,0.0,0.0,1.9351,2.0048,1.963,0.0,0.0,0.0,0.0,1.9392,1.989,0.0,0.0,0.0,0.0,0.0,0.0,0.0,0.0,0.0,0.0,0.0,0.0,0.0,0.0,0.0,0.0,0.0,0.0,0.0,0.0,0.0,0.0,0.0,0.0,0.0,0.0,0.0,0.0,0.0,0.0,0.0,0.0,0.0,0.0,0.0,0.0,0.0,0.0,0.0,0.0,0.0,0.0,0.0,0.0,0.0,0.0,0.0,0.0,0.0,0.0,0.0,0.0,0.0,0.0,0.0,0.0,1.627,1.7301,1.8619,2.0201,2.0363,2.0383,2.0376,1.8885,1.7673,0.0,0.0,0.0,0.0,0.0,0.0,0.0,0.0,0.0,0.0,0.0,0.0,0.0,0.0,0.0,0.0,0.0,0.0,0.0,0.0,0.0,0.0,0.0,0.0,0.0,0.0,0.0,0.0,0.0,0.0,0.0,0.0,0.0,0.0,0.0,0.0,0.0,0.0,0.0,0.0,0.0,2.086,2.0948,2.1487,2.1863,0.0,0.0,2.2034,2.2034,2.1552,0.0,0.0,0.0,0.0,0.0,0.0,0.0,0.0,0.0,0.0,0.0,0.0,0.0,0.0,0.0,0.0,0.0,0.0,0.0,0.0,0.0,0.0,0.0,0.0,0.0,0.0,0.0,0.0,0.0,0.0,0.0,0.0,0.0,0.0,0.0,0.0,0.0,0.0,0.0,0.0,0.0,0.0,0.0,0.0,0.0,0.0,0.0,0.0,0.0,0.0,0.0,0.0,0.0,0.0,0.0,1.3942,1.6419,1.7365,1.8603,2.0218,2.035,2.0385,2.0376,1.8778,1.7528,0.0,0.0,0.0,0.0,0.0,0.0,0.0,0.0,0.0,0.0,0.0,0.0,0.0,0.0,0.0,0.0,0.0,0.0,0.0,0.0,0.0,0.0,0.0,0.0,0.0,0.0,0.0,0.0,0.0,0.0,0.0,0.0,0.0,0.0,0.0,0.0,0.0,0.0,0.0,0.0,0.0,0.0,2.1777,2.2123,0.0,0.0,0.0,2.2553,2.2551,0.0,0.0,0.0,0.0,0.0,0.0,0.0,0.0,0.0,0.0,0.0,0.0,0.0,0.0,0.0,0.0,0.0,0.0,0.0,0.0,0.0,0.0,0.0,0.0,0.0,0.0,0.0,0.0,0.0,0.0,0.0,0.0,0.0,0.0,0.0,0.0,0.0,0.0,0.0,0.0,0.0,0.0,0.0,0.0,0.0,0.0,0.0,0.0,0.0,0.0,0.0,0.0,0.0,0.0,0.0,0.0,0.0,1.6783,1.7473,1.8615,2.0231,2.0365,2.0416,2.0383,1.8794,0.0,0.0,0.0,0.0,0.0,0.0,0.0,0.0,0.0,0.0,0.0,0.0,0.0,0.0,0.0,0.0,0.0,0.0,0.0,0.0,0.0,0.0,0.0,0.0,0.0,0.0,0.0,0.6745,0.0,0.0,0.0,0.0,0.0,0.0,0.0,0.0,0.0,0.0,0.0,0.0,0.0,0.0,2.2123,2.2931,2.3417,2.3733,0.0,0.0,2.3829,2.3616,2.3402,2.291,0.0,0.0,0.0,0.0,0.0,0.0,0.0,0.0,0.0,0.0,0.0,0.0,0.0,0.0,0.0,0.0,0.0,0.0,0.0,0.0,0.0,0.0,0.0,0.0,0.0,0.0,0.0,0.0,0.0,0.0,0.0,0.0,0.0,0.0,0.0,0.0,0.0,0.0,0.0,0.0,0.0,0.0,0.0,0.0,0.0,0.0,0.0,0.0,0.0,0.0,0.0,0.0,0.0,0.0,0.0,1.7575,1.7755,1.8627,2.0231,2.0349,2.0442,2.0458,1.8877,1.7229,0.0,0.0,0.0,0.0,0.0,0.0,0.0,0.0,0.0,0.0,0.0,0.0,0.0,0.0,0.0,0.0,0.0,0.0,0.0,0.0,0.0,0.0,0.0,0.0,0.0,0.0,0.0,0.0,0.0,0.0,0.0,0.0,0.0,0.0,0.0,0.0,0.0,0.0,0.0,0.0,0.0,2.386,2.4714,2.6212,2.7256,0.0,0.0,2.7166,2.6343,2.5599,2.4557,2.2873,0.0,0.0,0.0,0.0,0.0,0.0,0.0,0.0,0.0,0.0,0.0,0.0,0.0,0.0,0.0,0.0,0.0,0.0,0.0,0.0,0.0,0.0,0.0,0.0,0.0,0.0,0.0,0.0,0.0,0.0,0.0,0.0,0.0,0.0,0.0,0.0,0.0,0.0,0.0,0.0,0.0,0.0,0.0,0.0,0.0,0.0,0.0,0.0,0.0,0.0,0.0,0.0,0.0,1.4929,1.7747,1.834,1.9174,2.0302,2.0394,2.0444,2.0497,1.9356,1.7938,0.0,0.0,0.0,0.0,0.0,0.0,0.0,0.0,0.0,0.0,0.0,0.0,0.0,0.0,0.0,0.0,0.0,0.0,0.0,0.0,0.0,0.0,0.0,0.0,0.0,0.0,0.0,0.0,0.9043,0.9488,0.9866,0.0,0.0,0.0,0.0,0.0,0.0,0.0,0.0,0.0,0.0,2.4898,2.5798,2.6955,0.0,0.0,2.7832,2.7748,2.7407,2.668,2.575,2.4553,2.3602,0.0,0.0,0.0,0.0,0.0,0.0,0.0,0.0,0.0,0.0,0.0,0.0,0.0,0.0,0.0,0.0,0.0,0.0,0.0,0.0,0.0,0.0,0.0,0.0,0.0,0.0,0.0,0.0,0.0,0.0,0.0,0.0,0.0,0.0,0.0,0.0,0.0,0.0,0.0,0.0,0.0,0.0,0.0,0.0,0.0,0.0,0.0,0.0,0.0,0.0,0.0,0.0,1.5243,1.7774,1.8658,1.9525,2.0382,2.0416,2.0449,2.048,1.9691,1.8429,0.0,0.0,0.0,0.0,0.0,0.0,0.0,0.0,0.0,0.0,0.0,0.0,0.0,0.0,0.0,0.0,0.0,0.0,0.0,0.0,0.0,0.0,0.0,0.0,0.0,0.0,0.0,0.0,0.9467,0.9951,1.0244,0.0,0.0,0.0,0.0,0.0,0.0,0.0,0.0,0.0,0.0,2.5953,2.7121,2.8025,2.864,2.8669,2.8695,2.8618,2.8362,2.7865,2.7088,2.5965,0.0,0.0,0.0,0.0,0.0,0.0,0.0,0.0,0.0,0.0,0.0,0.0,0.0,0.0,0.0,0.0,0.0,0.0,0.0,0.0,0.0,0.0,0.0,0.0,0.0,0.0,0.0,1.2709,0.0,0.0,1.1405,0.0,0.0,0.0,0.0,0.0,0.0,0.0,0.0,0.0,0.0,0.0,0.0,0.0,0.0,0.0,0.0,0.0,0.0,0.0,0.0,0.0,0.0,1.5274,1.7774,1.8681,1.9532,2.0382,2.0448,2.0497,2.048,1.9714,1.8508,1.6734,0.0,0.0,0.0,0.0,0.0,0.0,0.0,0.0,0.0,0.0,0.0,0.0,0.0,0.0,0.0,0.0,0.0,0.0,0.0,0.0,0.0,0.0,0.0,0.0,0.0,0.0,0.9881,0.9857,1.0285,0.0,0.0,0.0,0.0,0.0,0.0,0.0,0.0,0.0,0.0,2.5386,2.7091,2.8772,2.9836,3.0388,3.0394,3.0463,3.023,2.9403,2.9224,2.8659,0.0,0.0,0.0,0.0,0.0,0.0,0.0,0.0,0.0,0.0,0.0,0.0,0.0,0.0,0.0,0.0,0.0,0.0,0.0,0.0,0.0,0.0,0.0,0.0,0.0,0.0,0.0,1.3526,1.344,0.0,0.0,0.0,0.0,0.0,0.0,0.0,0.0,0.0,0.0,0.0,1.7467,1.7007,0.0,0.0,0.0,0.0,0.0,0.0,0.0,0.0,0.0,0.0,0.0,0.0,1.6409,1.7794,1.9222,2.0092,2.0382,2.0448,2.0517,2.0499,2.0244,1.9041,1.6773,0.0,0.0,0.0,0.0,0.0,0.0,0.0,0.0,0.0,0.0,0.0,0.0,0.0,0.0,0.0,0.0,0.0,0.0,0.0,0.0,0.0,0.0,0.0,0.0,0.0,1.1143,0.0,0.0,0.0,0.0,0.0,0.0,0.0,0.0,0.0,0.0,0.0,2.2651,2.4635,2.6867,2.8515,2.9139,2.9999,3.0564,0.0,0.0,0.0,0.0,0.0,0.0,0.0,0.0,0.0,0.0,0.0,0.0,0.0,0.0,2.6339,2.4616,2.4329,2.4345,2.4391,0.0,0.0,0.0,0.0,0.0,0.0,0.0,0.0,0.0,0.0,0.0,0.0,0.0,0.0,1.5149,0.0,1.4236,0.0,0.0,0.0,0.0,0.0,0.0,0.0,0.0,1.7793,1.8887,1.992,1.9471,1.9383,0.0,1.8328,1.675,0.0,0.0,0.0,0.0,0.0,0.0,0.0,0.0,1.7098,1.8258,1.9686,2.0379,2.0402,2.0468,2.0517,2.0499,2.0225,1.9316,1.7661,1.6137,1.4279,0.0,0.0,0.0,0.0,0.0,0.0,0.0,0.0,0.0,0.0,0.0,0.0,0.0,0.0,0.0,0.0,0.0,0.0,0.0,0.0,0.0,0.0,0.0,1.1862,0.0,0.0,0.0,0.0,0.0,0.0,0.0,0.0,0.0,2.2512,2.3272,2.4375,2.6103,2.8024,2.9395,2.9726,0.0,0.0,0.0,0.0,0.0,0.0,0.0,3.0759,3.0759,3.0279,2.9897,2.9816,3.0197,3.0692,3.1248,0.0,0.0,2.7031,2.6329,2.6158,2.6193,2.6453,2.6646,2.6651,2.732,2.7969,0.0,0.0,0.0,0.0,0.0,0.0,0.0,0.0,1.759,1.7594,0.0,1.67,0.0,0.0,0.0,0.0,1.6085,1.6174,0.0,0.0,1.9801,2.074,2.225,2.2242,2.1916,2.1253,2.0456,1.9645,1.8778,1.5783,0.0,0.0,0.0,0.0,0.0,0.0,1.7399,1.9048,1.9935,2.0379,2.0402,2.047,2.0499,2.0487,1.9755,1.9335,1.9211,1.6895,1.5466,1.5273,1.2176,0.0,0.0,0.0,0.0,0.0,0.0,0.0,0.0,0.0,0.0,0.0,0.0,0.0,0.0,0.0,0.0,0.0,0.0,0.0,0.0,1.1955,0.0,0.0,0.0,0.0,0.0,0.0,0.0,0.0,0.0,0.0,2.3934,2.4911,2.6211,2.79,0.0,0.0,0.0,0.0,3.0757,3.0808,3.1501,3.2059,3.2035,3.2739,3.3245,3.3245,0.0,0.0,3.3234,3.3221,3.3188,3.3176,3.3113,3.2328,2.9764,2.8699,2.816,2.8164,2.8801,2.9284,2.9381,2.9941,3.0738,2.0741,0.0,0.0,0.0,0.0,1.9405,1.9806,1.9851,1.9895,1.9944,1.9949,1.9083,0.0,0.0,0.0,0.0,0.0,0.0,1.9741,2.0447,2.1071,2.1958,2.2996,2.2413,2.2381,2.2736,2.2054,2.1282,2.0449,1.9621,1.7945,1.5462,0.0,0.0,0.0,0.0,1.8554,1.9127,1.9903,2.0354,2.0382,2.0468,2.0508,2.0575,2.03,1.9882,1.9331,1.8536,1.752,1.6263,1.4692,0.0,0.0,0.0,0.0,0.0,0.0,0.0,0.0,0.0,0.0,0.0,0.0,0.0,0.0,0.0,0.0,0.0,0.0,0.0,1.3599,1.46,1.5504,0.0,0.0,0.0,0.0,0.0,0.0,0.0,0.0,0.0,2.6768,2.7174,2.778,0.0,0.0,3.0639,3.1505,3.162,3.1852,3.2466,3.2798,0.0,3.2987,3.3202,3.3373,3.3363,3.3345,3.3498,3.4105,3.4208,3.4388,3.4902,3.4571,3.3907,3.3223,3.2294,3.1713,3.1691,3.1894,3.2044,3.2066,3.2274,3.2487,2.34,2.1757,2.0727,2.0276,2.0328,2.0863,2.1124,2.1163,2.122,2.1298,2.1327,2.0837,2.0606,2.0576,2.0526,0.0,0.0,0.0,2.1351,2.1657,2.22,2.2883,2.3631,2.3211,2.327,2.3747,2.3079,2.2501,2.2008,2.1814,2.0776,1.8865,0.0,0.0,1.8454,1.9464,2.0025,2.0075,2.0559,2.0672,2.0373,2.0448,2.0515,2.0566,2.0536,2.031,1.9843,1.9442,1.8742,1.7669,1.6467,1.4937,0.0,0.0,0.0,0.0,0.0,0.0,0.0,0.0,0.0,0.0,0.0,0.9236,1.0891,0.0,0.0,0.0,1.2289,1.3285,1.4832,1.6354,0.0,0.0,0.0,0.0,0.0,0.0,0.0,2.4354,2.6057,2.7529,2.8573,2.9284,2.9864,3.0414,3.0928,3.1581,3.2428,0.0,3.275,3.3264,3.3668,3.3929,3.391,3.4202,3.4431,3.444,3.441,3.4515,3.4988,3.5115,3.5285,3.565,3.5452,3.5126,3.512,3.4642,3.4001,3.3391,3.3517,3.3743,3.3767,3.4031,3.426,2.5605,2.5451,2.295,2.1926,2.1926,2.2008,2.2026,2.2062,2.2123,2.2182,2.2251,2.2319,2.2292,2.2177,2.2172,0.0,2.2055,2.2046,2.2442,2.3151,2.3151,2.3565,2.4266,2.4284,2.4321,2.4384,2.3721,2.343,2.3461,2.286,2.257,2.2545,2.1167,2.0819,2.1449,2.1547,2.1596,2.1593,2.1652,2.128,2.0431,2.0463,2.0508,2.0515,2.0568,2.0599,2.0566,1.984,1.938,1.9267,1.7699,1.6387,1.54,0.0,0.0,0.0,0.0,0.0,0.0,0.0,0.0,0.0,0.0,0.0,0.0,0.0,0.0,0.0,1.4287,0.0,1.5508,1.7696,0.0,0.0,0.0,2.2168,2.3114,2.4694,2.6028,2.6901,0.0,0.0,2.9602,3.1054,3.2133,3.2184,3.2188,3.251,3.3375,3.35,3.3526,3.3687,3.4295,3.4785,3.4824,3.539,3.5837,3.5851,3.6006,3.5884,3.5872,3.5869,3.5884,3.5898,3.5914,3.5878,3.5907,3.5809,3.5414,3.3871,3.4177,3.4706,3.472,3.5253,3.573,2.6209,2.6132,2.4975,2.4591,2.4742,2.4854,2.4935,2.4996,2.5211,2.5307,2.5335,2.5409,2.5061,2.4413,2.4363,2.3976,2.3335,2.3353,2.3474,2.3696,2.3696,2.3892,2.4218,2.4228,2.4266,2.433,2.4199,2.4186,2.4244,2.4137,2.4098,2.4125,2.3834,2.319,2.2274,2.2348,2.2432,2.2411,2.2481,2.2138,2.1381,2.0808,2.0506,2.0509,2.0503,2.0537,2.0605,2.041,2.0267,2.0174,1.9161,1.7874,1.636,1.5091,0.0,0.0,0.0,0.0,0.0,0.0,0.0,0.0,0.0,1.2796,1.4453,0.0,1.5587,0.0,1.6516,1.7664,1.896,2.0199,0.0,0.0,2.3379,2.4242,2.5706,2.6296,2.7189,2.8686,2.9225,2.9758,3.0399,3.1423,3.2343,3.2987,3.3085,3.3416,3.4237,3.4394,3.4648,3.5234,3.5526,3.5682,3.5683,3.584,3.6015,3.6015,3.6015,3.5995,3.5975,3.5975,3.5974,3.5974,3.5973,3.5974,3.5974,3.5975,3.5857,3.5445,3.5486,3.5591,3.5612,3.576,3.5892,2.717,2.7101,2.6432,2.6237,2.6342,2.5928,2.5781,2.5843,2.6117,2.6222,2.6233,2.6318,2.6092,2.5666,2.5597,2.5328,2.4889,2.4871,2.4882,2.4933,2.4933,2.4997,2.5113,2.4807,2.4692,2.4743,2.445,2.4348,2.4411,2.4507,2.4566,2.4615,2.4715,2.4341,2.3562,2.3692,2.3591,2.3246,2.2944,2.2427,2.1682,2.1252,2.0866,2.0521,2.0509,2.0508,2.056,2.0585,2.0585,2.0519,2.0057,1.9185,1.7851,1.6601,1.4911,0.0,0.0,0.0,0.0,0.0,0.0,0.0,0.0,0.0,0.0,0.0,1.7236,1.7628,1.8805,1.9908,2.0837,2.2382,2.3734,2.4723,2.5553,2.6545,2.7853,2.8036,2.8575,2.9916,3.0077,3.0404,3.1269,3.2128,3.3005,3.3863,3.4311,3.4722,3.5154,3.527,3.5463,3.5914,3.6007,3.6006,3.6011,3.6012,3.6014,3.6014,3.6014,3.6014,3.6014,3.6014,3.6014,3.6014,3.6014,3.6014,3.6014,3.6014,3.6014,3.5995,3.5976,3.5948,3.5955,3.5946,3.5939,2.8237,2.8186,2.75,2.7256,2.7231,2.6226,2.5839,2.5862,2.6134,2.6259,2.6284,2.6399,2.6399,2.6267,2.6267,2.6213,2.6111,2.6093,2.6111,2.6117,2.6146,2.6175,2.6232,2.5608,2.5363,2.5416,2.4785,2.4487,2.4441,2.4578,2.4592,2.4505,2.461,2.4707,2.4791,2.4972,2.4751,2.4072,2.3352,2.2616,2.1935,2.1781,2.1355,2.0694,2.0561,2.0509,2.0505,2.054,2.0605,2.0605,2.054,2.0141,1.9338,1.7857,1.6597,0.0,1.4142,0.0,0.0,0.0,0.0,0.0,0.0,0.0,0.0,1.7893,1.8722,1.9544,2.1179,2.2216,2.2207,2.4402,2.5904,2.6132,2.7437,2.8715,2.9537,2.9675,2.9953,3.0706,3.0894,3.1269,3.1971,3.2941,3.3874,3.4557,3.5334,3.5843,3.5967,3.5947,3.5964,3.6003,3.6017,3.6016,3.6002,3.6003,3.6005,3.6009,3.6009,3.6009,3.6009,3.6009,3.6009,3.6009,3.6009,3.6009,3.6009,3.6009,3.6009,3.6009,3.5991,3.5993,3.5996,3.5992,3.6008,2.9006,2.8903,2.822,2.7929,2.786,2.7177,2.7028,2.7239,2.7497,2.7678,2.7799,2.7794,2.7402,2.6695,2.6677,2.6278,2.5557,2.5539,2.5605,2.5704,2.5773,2.5886,2.6051,2.6024,2.6043,2.6099,2.6092,2.5756,2.5191,2.5271,2.4996,2.443,2.4486,2.4596,2.4714,0.0,0.0,0.0,2.4178,2.3719,2.3593,2.2355,2.1639,2.1449,2.0841,0.0,2.0504,2.05,2.0534,2.0603,2.0586,0.0,0.0,0.0,0.0,0.0,0.0,0.0,0.0,0.0,0.0,0.0,1.9114,1.9574,1.9776,2.0746,2.1632,2.2319,2.3931,2.495,2.4984,2.6582,2.7967,2.869,2.9069,2.9604,3.043,3.0549,3.0639,3.0778,3.1426,3.189,3.2179,3.3461,3.4493,3.4747,3.5447,3.5974,3.6016,3.6016,3.6014,3.6014,3.6013,3.6012,3.6014,3.6014,3.6016,3.6016,3.6016,3.6017,3.6017,3.6016,3.6016,3.6017,3.6016,3.6017,3.6017,3.6016,3.6017,3.6016,3.6017,3.6002,3.6014,3.6015,3.6016,2.9574,2.9595,2.8883,2.8577,0.0,2.8305,2.8301,2.8447,2.7995,2.7868,2.7947,2.7947,2.7674,2.7236,2.7236,2.6982,2.6532,2.6546,2.6585,2.6682,2.6723,2.6877,2.7074,2.6763,2.6706,2.6837,2.6581,2.6297,2.6015,2.606,2.5705,2.494,2.504,2.495,2.4658,2.4817,2.5012,2.5212,2.483,2.4466,2.4084,2.33,2.2476,2.1669,2.1299,0.0,0.0,0.0,0.0,0.0,0.0,0.0,0.0,0.0,0.0,1.8043,1.7568,1.7542,1.7947,1.835,1.9127,2.0379,2.1694,2.2239,2.1828,2.3103,2.4049,2.4374,2.5961,2.6978,2.7015,2.8107,2.9006,2.9455,2.9886,3.032,3.0713,3.0818,3.082,3.0879,3.1559,3.2255,3.27,3.3848,3.4842,3.5291,3.5701,3.6012,3.6012,3.6012,3.6012,3.6012,3.6012,3.6012,3.6012,3.6012,3.6012,3.6012,3.6012,3.6012,3.6012,3.6012,3.6012,3.6012,3.6012,3.6012,3.6012,3.6012,3.6012,3.6012,3.6012,3.6014,3.6006,3.6009,3.6011,3.0164,3.0226,2.9556,2.9287,2.927,2.9208,2.9263,2.9317,0.0,0.0,0.0,2.8077,2.799,2.7837,2.7835,2.7764,2.7612,2.763,2.7674,2.773,2.7763,2.7893,2.8122,2.7549,2.7384,2.7531,2.7058,2.679,2.6782,2.6846,2.6504,2.5798,2.5829,2.5522,2.4868,2.4907,2.5031,2.5164,2.5245,2.497,2.4346,2.418,2.3445,2.2076,2.1804,2.1335,2.0662,2.0528,2.0499,2.05,2.0501,2.0593,2.0775,2.0134,1.9804,1.9922,1.9295,1.9195,1.9937,2.0577,2.1335,2.2217,2.3863,2.4507,2.3616,2.5049,2.605,2.615,2.7753,2.8691,2.8553,2.9276,2.9745,2.9745,3.039,3.08,3.082,3.0878,3.0935,3.1089,3.1845,3.2659,3.3534,3.4413,3.5174,3.5817,3.5973,3.6012,3.6012,3.6012,3.6012,3.6012,3.6012,3.6012,3.6012,3.6012,3.6012,3.6012,3.6012,3.6012,3.6012,3.6012,3.6012,3.6012,3.6012,3.6012,3.6012,3.6012,3.6012,3.6012,3.6012,3.6012,3.6012,3.6017,3.6002,3.0923,3.097,3.0279,2.9958,2.9924,2.9355,2.9227,2.9403,2.935,2.9397,2.9479,2.9512,2.9098,2.8375,2.841,2.8014,2.736,2.736,2.7392,2.7469,2.7572,2.7721,2.7861,2.7988,2.8112,2.8252,2.8335,2.8069,2.7531,2.764,2.734,2.6622,2.6544,2.6237,2.5637,2.5103,2.4893,2.5044,2.5153,2.5187,2.5124,2.4456,2.3998,2.3713,2.2346,2.1597,2.1514,2.0826,2.0451,2.0511,2.0516,2.0827,2.1565,2.1495,2.1773,2.2498,2.246,2.2441,2.2539,2.2676,2.3105,2.4023,2.5644,2.6269,2.5468,2.6465,2.7363,2.7929,2.9451,3.0212,2.9589,3.0175,3.0624,3.0663,3.0781,3.0878,3.0877,3.0893,3.1143,3.1786,3.2679,3.3515,3.4315,3.5213,3.5797,3.5973,3.6012,3.6012,3.6012,3.6012,3.6012,3.6012,3.6012,3.6012,3.6012,3.6012,3.6012,3.6012,3.6012,3.6012,3.6012,3.6012,3.6012,3.6012,3.6012,3.6012,3.6012,3.6012,3.6012,3.6012,3.6012,3.6012,3.6012,3.6013,3.6014,3.1035,3.1157,3.0835,3.07,3.0685,3.0462,3.0438,3.0547,3.0712,3.0335,2.966,2.9642,2.9418,2.9056,2.9039,2.8625,2.7902,2.7902,2.7726,2.7425,2.7513,2.763,2.7803,2.8014,2.8191,2.8411,2.8562,2.85,2.8299,2.8421,2.8066,2.7316,2.6931,2.6441,2.5834,2.5563,2.5317,2.5012,2.5116,2.5239,2.5306,2.4957,2.4538,2.4095,2.3313,2.274,2.23,2.1949,2.1778,2.1859,2.1859,2.2049,2.2468,2.2516,2.2681,2.3078,2.31,2.3317,2.3768,2.4237,2.4881,2.5759,2.6539,2.7261,2.7789,2.8296,2.8706,2.9018,3.0146,3.0691,3.0303,3.0616,3.0831,3.085,3.0831,3.085,3.0849,3.0846,3.1176,3.1996,3.2872,3.3729,3.4588,3.5465,3.5992,3.6012,3.6012,3.601,3.6012,3.6012,3.6012,3.6012,3.6012,3.6012,3.6012,3.6012,3.6012,3.6012,3.6012,3.6012,3.6012,3.6012,3.6012,3.6012,3.6012,3.6012,3.6012,3.6012,3.6012,3.6012,3.6012,3.6012,3.6012,3.6012,3.6012,3.1032,3.119,3.119,3.119,3.121,3.1404,3.1481,3.15,3.1707,3.1127,3.011,3.0024,2.9937,2.9782,2.9782,2.9368,2.8696,2.8472,2.8125,2.7653,2.7537,2.76,2.7789,2.7908,2.8136,2.8411,2.8523,2.8662,2.8798,2.8929,2.8693,2.8037,2.7393,2.6802,2.6302,2.6247,2.5875,2.5275,2.5386,2.539,2.5276,2.5293,2.4986,2.4413,2.4177,2.3781,2.3135,2.2972,2.2935,2.2976,2.299,2.3117,2.3369,2.3401,2.349,2.3656,2.368,2.3975,2.4659,2.5502,2.6283,2.6943,2.7373,2.8171,2.9398,2.9771,2.9871,2.9948,3.0433,3.0782,3.0762,3.0801,3.08,3.08,3.08,3.0801,3.08,3.08,3.125,3.2226,3.3005,3.3784,3.48,3.5578,3.5986,3.6006,3.6004,3.6004,3.6007,3.6009,3.6009,3.6012,3.6012,3.6012,3.6012,3.6012,3.6012,3.6012,3.6012,3.6012,3.6012,3.6012,3.6012,3.6012,3.6012,3.6012,3.6012,3.6012,3.6012,3.6012,3.6012,3.6012,3.6012,3.6012,3.6012,3.1029,3.1171,3.1207,3.119,3.121,3.1421,3.1498,3.1536,3.1707,3.1748,3.1507,3.1593,3.1179,3.0662,3.0593,3.0144,2.9368,2.8696,2.8351,2.8228,2.7731,2.7587,2.7716,2.7911,2.8136,2.8398,2.8536,2.8662,2.8798,2.8929,2.8968,2.8803,2.8154,2.7791,2.771,2.7186,2.6589,2.5929,2.6089,2.5861,2.525,2.5283,2.5269,2.5192,2.4471,2.4057,2.3955,2.3276,2.2917,2.2927,2.3037,2.3415,2.4158,2.4274,2.464,2.5335,2.5415,2.5513,2.563,2.6392,2.6901,2.7096,2.8461,2.9359,2.9651,3.0274,3.0684,3.0665,3.0742,3.08,3.08,3.08,3.08,3.08,3.08,3.08,3.08,3.08,3.1425,3.3103,3.3313,3.401,3.5435,3.5916,3.5986,3.5984,3.596,3.5942,3.5976,3.6001,3.6004,3.6009,3.6012,3.6012,3.6012,3.6012,3.6012,3.6012,3.6012,3.6012,3.6012,3.6012,3.6012,3.6012,3.6012,3.6012,3.6012,3.6012,3.6012,3.6012,3.6012,3.6012,3.6012,3.6012,3.6012,3.1651,3.1802,3.1396,3.119,3.121,3.1346,3.1426,3.15,3.1615,3.1727,3.18,3.18,3.1627,3.1351,3.137,3.092,3.0179,2.9403,2.8799,2.8385,2.7738,2.7513,2.7644,2.7806,2.8035,2.834,2.851,2.8662,2.8798,2.8935,2.8987,2.8968,2.8724,2.8407,2.8042,2.781,2.7397,2.6792,2.6472,2.6174,2.5888,2.5503,2.5308,2.5269,2.4986,2.4812,2.4803,2.4516,2.4389,2.4439,2.4503,2.4715,2.5074,2.5153,2.5324,2.5667,2.5687,2.5942,2.645,2.6822,2.7466,2.8442,2.9182,2.9788,3.0274,3.0625,3.08,3.08,3.08,3.08,3.08,3.08,3.08,3.08,3.08,3.08,3.08,3.08,3.1464,3.3084,3.3389,3.4044,3.5502,3.5931,3.5933,3.5906,3.5903,3.5914,3.5951,3.5964,3.5956,3.6004,3.6009,3.6012,3.6012,3.6012,3.6012,3.6012,3.6012,3.6012,3.6012,3.6012,3.6012,3.6012,3.6012,3.6012,3.6012,3.6012,3.6012,3.6012,3.6012,3.6012,3.6012,3.6012,3.6012,3.229,3.2188,3.1515,3.119,3.121,3.1274,3.1351,3.1462,3.1559,3.1671,3.1763,3.1781,3.18,3.18,3.18,3.1508,3.0938,3.0179,2.942,2.8695,2.8001,2.766,2.7619,2.773,2.7961,2.8286,2.8528,2.8687,2.8846,2.8959,2.8987,2.8998,2.9051,2.8817,2.8379,2.844,2.8203,2.7602,2.713,2.6898,2.6713,2.6269,2.5759,2.5365,2.5308,2.5308,2.5308,2.536,2.5412,2.5492,2.5564,2.5607,2.5598,2.566,2.5696,2.5725,2.5942,2.6333,2.6978,2.7445,2.8247,2.9436,2.9768,3.0177,3.0645,3.08,3.08,3.08,3.08,3.08,3.08,3.08,3.08,3.08,3.08,3.08,3.08,3.0956,3.1757,3.3123,3.3661,3.4271,3.5537,3.5888,3.5872,3.581,3.5859,3.5879,3.588,3.5904,3.5942,3.5978,3.6004,3.6009,3.601,3.6012,3.6012,3.6012,3.6012,3.6012,3.6012,3.6012,3.6012,3.6012,3.6012,3.6012,3.6012,3.6012,3.6012,3.6012,3.6012,3.6012,3.6012,3.6012,3.6012,3.2757,3.2239,3.1532,3.1241,3.121,3.1274,3.1312,3.1334,3.1506,3.1598,3.1635,3.1746,3.18,3.18,3.18,3.1783,3.1627,3.092,3.0179,2.942,2.8727,2.8129,2.7652,2.7748,2.7961,2.83,2.8497,2.8724,2.897,2.8994,2.8987,2.8987,2.9017,2.9014,2.9012,2.9109,2.8919,2.8342,2.8366,2.8246,2.772,2.766,2.6834,2.561,2.5346,2.5423,2.539,2.5403,2.5466,2.5526,2.5583,2.5607,2.5617,2.5699,2.5754,2.5822,2.6508,2.6977,2.729,2.8499,2.9475,2.9709,3.0274,3.0742,3.0761,3.08,3.08,3.08,3.08,3.08,3.08,3.08,3.08,3.08,3.08,3.08,3.082,3.1485,3.2363,3.3297,3.4144,3.4915,3.5778,3.585,3.5806,3.5791,3.5799,3.5823,3.5872,3.59,3.5929,3.5972,3.602,3.6004,3.6009,3.6012,3.6012,3.6012,3.6012,3.6012,3.6012,3.6012,3.6012,3.6012,3.6012,3.6012,3.6012,3.6012,3.6012,3.6012,3.6012,3.6012,3.6012,3.6012,3.6012,3.3496,3.2933,3.2209,3.1904,3.1853,3.1436,3.1254,3.1312,3.1372,3.1485,3.1598,3.1653,3.1727,3.18,3.18,3.18,3.1714,3.1042,3.0541,3.0127,2.9022,2.836,2.8241,2.7902,2.7904,2.8246,2.8466,2.8737,2.8964,2.8987,2.8987,2.8987,2.8987,2.904,2.913,2.9232,2.9223,2.9111,2.8837,2.8567,2.8446,2.8038,2.7495,2.7019,2.6948,2.6967,2.6967,2.6482,2.6234,2.6264,2.5799,2.5554,2.5658,2.6187,2.6516,2.6618,2.7344,2.8069,2.8636,2.9221,2.9846,3.0333,3.0626,3.08,3.08,3.08,3.08,3.08,3.08,3.08,3.08,3.08,3.08,3.08,3.08,3.08,3.0956,3.1563,3.2422,3.3373,3.4562,3.5588,3.5705,3.5773,3.5732,3.5733,3.5732,3.5758,3.5827,3.5876,3.5921,3.5986,3.602,3.6009,3.601,3.6012,3.6012,3.6012,3.6012,3.6012,3.6012,3.6012,3.6012,3.6012,3.6012,3.6012,3.6012,3.6012,3.6012,3.6012,3.6012,3.6012,3.6012,3.6012,3.6012,3.4039,3.3656,3.2966,3.2513,3.2242,3.1769,3.1452,3.1291,3.1295,3.1408,3.1542,3.1579,3.1654,3.1781,3.18,3.18,3.1748,3.1265,3.0956,3.0628,2.9627,2.909,2.894,2.8607,2.8617,2.8915,2.9011,2.9059,2.9,2.8987,2.8987,2.8987,2.8987,2.9028,2.9096,2.9218,2.9388,2.9447,2.9199,2.9121,2.9228,2.8855,2.8635,2.8687,2.8717,2.8429,2.7934,2.7359,2.7108,2.7028,2.6587,2.634,2.6517,2.703,2.7384,2.7468,2.8218,2.8945,2.9514,2.9827,3.0235,3.0722,3.08,3.08,3.08,3.08,3.08,3.08,3.08,3.08,3.08,3.08,3.08,3.08,3.08,3.0937,3.1231,3.2012,3.3024,3.4186,3.5195,3.5788,3.5819,3.575,3.5728,3.5716,3.5699,3.575,3.5799,3.5872,3.5941,3.5986,3.6019,3.6007,3.6147,3.6305,3.6226,3.6187,3.6129,3.609,3.609,3.607,3.6012,3.6012,3.6012,3.6012,3.6012,3.6012,3.6012,3.6012,3.6012,3.6012,3.6012,3.6012,3.6109,3.4396,3.4382,3.3711,3.3034,3.253,3.2276,3.1853,3.1365,3.1271,3.1387,3.15,3.1559,3.1671,3.1764,3.18,3.18,3.1783,3.1714,3.1369,3.08,3.061,3.0249,2.981,2.9763,2.9955,3.0302,3.0115,2.9643,2.914,2.9133,2.9097,2.9005,2.8987,2.9005,2.8987,2.9186,2.9349,2.9493,2.9642,2.9907,3.0152,3.0081,3.0094,3.0206,3.0212,2.9538,2.8102,2.7955,2.7957,2.8,2.7886,2.8016,2.7973,2.815,2.8197,2.8335,2.9029,2.9507,2.9707,3.0332,3.0683,3.08,3.08,3.08,3.08,3.08,3.08,3.08,3.08,3.08,3.08,3.0898,3.0878,3.08,3.0859,3.127,3.1953,3.2851,3.4056,3.5424,3.5909,3.5852,3.5818,3.5799,3.576,3.5742,3.575,3.5792,3.5813,3.5855,3.5926,3.6089,3.6256,3.6378,3.6518,3.6656,3.6519,3.6402,3.6324,3.6265,3.6265,3.6246,3.6051,3.6012,3.6012,3.6012,3.6012,3.6012,3.6012,3.6012,3.6012,3.6148,3.6324,3.6402,3.6423,3.4968,3.5105,3.445,3.4032,3.3681,3.275,3.2158,3.1904,3.1469,3.1346,3.1479,3.1519,3.1632,3.1763,3.18,3.18,3.18,3.1783,3.1645,3.1386,3.0956,3.0698,3.0524,3.0183,3.0297,3.0764,3.0843,3.0477,2.9947,2.9794,2.9586,2.9097,2.9005,2.8987,2.8998,2.9152,2.9296,2.9443,2.971,2.9916,3.0116,3.024,3.0324,3.0392,3.0404,3.0115,2.964,2.9105,2.8823,2.8805,2.8309,2.8042,2.8212,2.8698,2.9046,2.9184,2.9913,3.0396,3.0444,3.0623,3.08,3.08,3.08,3.08,3.08,3.08,3.08,3.08,3.08,3.08,3.0878,3.1368,3.1426,3.0859,3.1328,3.1797,3.2325,3.3437,3.4701,3.5705,3.5945,3.5899,3.5879,3.5826,3.5799,3.5791,3.578,3.5817,3.5859,3.5958,3.6233,3.6721,3.6843,3.7064,3.7419,3.7714,3.7771,3.7458,3.7165,3.691,3.6812,3.6656,3.6402,3.609,3.609,3.607,3.607,3.6109,3.6187,3.6168,3.6246,3.648,3.6792,3.695,3.7031,3.5175,3.5379,3.5037,3.4699,3.4421,3.3478,3.2784,3.2293,3.1819,3.1579,3.153,3.1481,3.1595,3.1763,3.18,3.18,3.18,3.18,3.18,3.1748,3.1369,3.12,3.1324,3.1207,3.1141,3.14,3.1574,3.13,3.0668,3.0338,2.9941,2.9482,2.9152,2.8987,2.8998,2.9123,2.9275,2.9423,2.9654,2.9874,3.0064,3.0194,3.028,3.0361,3.0379,3.0404,3.0346,2.9883,2.9649,2.9575,2.9148,2.8989,2.907,2.9555,2.9875,3.0028,3.0392,3.0767,3.0801,3.0773,3.0798,3.0798,3.0799,3.08,3.08,3.08,3.08,3.08,3.08,3.0937,3.1309,3.1719,3.1914,3.1836,3.2265,3.2714,3.3145,3.4315,3.5287,3.5882,3.5974,3.594,3.5921,3.588,3.584,3.5836,3.5837,3.5844,3.598,3.6261,3.6783,3.7282,3.7562,3.7914,3.8419,3.8732,3.9004,3.8671,3.8259,3.7965,3.775,3.7575,3.734,3.6675,3.6441,3.6441,3.6441,3.6597,3.6675,3.6617,3.6792,3.7301,3.7791,3.7774,3.7855,3.5018,3.5291,3.5446,3.5121,3.4619,3.4421,3.3698,3.2615,3.2276,3.2004,3.1684,3.1532,3.1614,3.1763,3.18,3.18,3.18,3.18,3.18,3.18,3.1732,3.1789,3.2022,3.2374,3.2417,3.2282,3.2411,3.209,3.1433,3.0742,3.0246,3.0051,2.9354,2.8987,2.901,2.9123,2.9235,2.9392,2.9589,2.9822,3.0061,3.0166,3.0228,3.0304,3.0373,3.0404,3.0385,3.0308,3.0325,3.0373,3.0271,3.0249,3.0472,3.0582,3.054,3.0584,3.0684,3.0733,3.0778,3.0796,3.0788,3.0789,3.0795,3.08,3.08,3.08,3.08,3.08,3.0917,3.125,3.1856,3.2384,3.2734,3.3396,3.3513,3.3826,3.4647,3.5465,3.5851,3.5962,3.6019,3.5999,3.5994,3.594,3.5907,3.5899,3.5912,3.5966,3.6292,3.6716,3.7216,3.7765,3.841,3.8858,3.9382,3.9671,3.9904,3.9767,3.9354,3.906,3.8591,3.8336,3.8082,3.7419,3.6949,3.691,3.7009,3.7262,3.7555,3.777,3.8082,3.8513,3.8672,3.8677,3.8841,3.4683,3.5018,3.5245,3.5305,3.515,3.4732,3.4324,3.3778,3.2733,3.2326,3.2178,3.1737,3.1612,3.1799,3.18,3.18,3.18,3.18,3.18,3.18,3.18,3.2037,3.2387,3.2739,3.2934,3.2979,3.3092,3.2935,3.2193,3.1451,3.0797,3.0173,2.9464,2.9023,2.9017,2.9078,2.9207,2.9347,2.9522,2.9725,2.9948,3.0104,3.0228,3.0298,3.0367,3.0404,3.0404,3.0404,3.0404,3.0396,3.0411,3.0433,3.046,3.055,3.0606,3.0633,3.0687,3.0707,3.0737,3.0784,3.0802,3.0792,3.0786,3.0795,3.0795,3.0799,3.08,3.0917,3.1328,3.1836,3.2267,3.3262,3.4276,3.5036,3.4704,3.4684,3.5407,3.5817,3.601,3.6007,3.6009,3.6007,3.6006,3.598,3.5953,3.5953,3.6058,3.6225,3.6703,3.7294,3.7847,3.8881,3.9564,3.9934,4.0305,4.0594,4.0766,4.0745,4.0489,4.0172,3.9548,3.8923,3.863,3.8201,3.7887,3.777,3.8004,3.824,3.8552,3.8848,3.8889,3.9067,3.9423,3.9582,3.9882,3.4448,3.4851,3.5088,3.5314,3.5441,3.5104,3.4793,3.432,3.3309,3.2662,3.2426,3.1803,3.1576,3.1726,3.1781,3.18,3.18,3.18,3.18,3.1801,3.1819,3.2073,3.2422,3.2706,3.2963,3.3214,3.3422,3.328,3.2853,3.2211,3.1444,3.0687,2.9874,2.9372,2.8987,2.9074,2.9145,2.9304,2.9472,2.9654,2.9857,3.0057,3.0187,3.0254,3.0323,3.0373,3.0398,3.0404,3.0404,3.039,3.0402,3.04,3.0398,3.0479,3.0525,3.0544,3.0625,3.0649,3.0662,3.0719,3.0769,3.0762,3.0767,3.0799,3.0783,3.0791,3.0836,3.1401,3.1835,3.2402,3.3282,3.4452,3.5387,3.5758,3.5524,3.5446,3.5953,3.5992,3.6012,3.6012,3.6012,3.6014,3.6017,3.6014,3.6013,3.6095,3.6432,3.6749,3.7182,3.7849,3.8574,3.9551,4.0273,4.0564,4.066,4.0873,4.0967,4.1023,4.0981,4.0801,4.0367,3.9606,3.9331,3.9058,3.8806,3.8728,3.8962,3.9199,3.9497,3.9655,3.9561,3.9721,4.0154,4.0234,4.0605,3.43,3.4691,3.497,3.5245,3.5452,3.5554,3.5216,3.4573,3.3711,3.3096,3.257,3.1835,3.1555,3.1617,3.1763,3.18,3.18,3.18,3.18,3.1801,3.1857,3.2038,3.2284,3.2608,3.2852,3.3088,3.3289,3.3371,3.3178,3.2725,3.213,3.1351,3.0595,2.9849,2.9317,2.9154,2.9163,2.9283,2.9402,2.9598,2.9789,2.9972,3.0109,3.0214,3.0273,3.0342,3.0379,3.0404,3.0404,3.0404,3.0404,3.0402,3.0406,3.0392,3.0419,3.0486,3.0559,3.06,3.0606,3.0671,3.0688,3.0719,3.0752,3.0795,3.0817,3.093,3.1311,3.1898,3.2221,3.326,3.4471,3.5543,3.5856,3.5992,3.5953,3.5992,3.6012,3.6012,3.6012,3.6012,3.6012,3.6018,3.6003,3.6006,3.6006,3.6066,3.6538,3.7184,3.7811,3.8612,3.9297,4.0059,4.0625,4.1074,4.1073,4.1072,4.109,4.1087,4.1084,4.0982,4.0878,4.0369,4.0114,3.9878,3.9764,3.9764,3.9879,4.0137,4.0341,4.0463,4.0388,4.0683,4.1014,4.0816,4.0965,3.4,3.457,3.4828,3.5088,3.5337,3.5526,3.5498,3.5228,3.3964,3.3367,3.3063,3.2056,3.1572,3.1598,3.1727,3.18,3.18,3.18,3.18,3.1801,3.1857,3.1984,3.2161,3.2456,3.269,3.2914,3.3086,3.3256,3.319,3.2825,3.2369,3.2093,3.1023,3.0118,2.9898,2.9359,2.9096,2.9211,2.937,2.9513,2.9708,2.9907,3.0076,3.0173,3.0273,3.0316,3.0379,3.0404,3.0404,3.0404,3.0404,3.0385,3.0402,3.04,3.0398,3.0439,3.049,3.053,3.0592,3.0613,3.0649,3.068,3.0714,3.0739,3.0798,3.1369,3.1774,3.235,3.3321,3.4404,3.5443,3.5836,3.5991,3.6009,3.601,3.601,3.601,3.601,3.6012,3.6013,3.6018,3.6003,3.6006,3.6009,3.605,3.6111,3.6738,3.7539,3.8437,3.9336,3.998,4.0605,4.082,4.1191,4.1172,4.1132,4.1111,4.111,4.1107,4.1103,4.1001,4.0957,4.0625,4.0644,4.0782,4.0761,4.0564,4.0694,4.0798,4.0995,4.1113,4.111,4.1102,4.1112,4.1101,3.3958,3.4594,3.4828,3.5105,3.5383,3.5532,3.5616,3.5312,3.4049,3.3444,3.3205,3.2068,3.1536,3.1559,3.1726,3.18,3.18,3.18,3.18,3.1818,3.1856,3.1947,3.2108,3.2249,3.2473,3.2737,3.2914,3.3086,3.3094,3.3012,3.2794,3.2474,3.1633,3.0913,3.0283,2.9776,2.9471,2.9263,2.9296,2.9461,2.9645,2.9815,3.0022,3.0171,3.0273,3.0317,3.0342,3.0398,3.0404,3.0404,3.0404,3.0404,3.0404,3.0402,3.0394,3.0419,3.0442,3.0469,3.0505,3.054,3.0577,3.0651,3.0653,3.0913,3.1174,3.1757,3.2461,3.3175,3.4116,3.4995,3.5882,3.6001,3.602,3.602,3.6001,3.5999,3.6002,3.6007,3.6013,3.6017,3.6022,3.6007,3.601,3.6012,3.6384,3.6601,3.7441,3.8262,3.918,4.0019,4.0508,4.0957,4.1074,4.1191,4.1191,4.1172,4.1132,4.1131,4.111,4.1108,4.1065,4.1082,4.1059,4.1058,4.1037,4.1058,4.0942,4.1109,4.1113,4.1112,4.1108,4.1116,4.1103,4.1109,4.1113,3.4101,3.4715,3.4875,3.5152,3.5475,3.5571,3.5616,3.538,3.4027,3.3406,3.3143,3.2049,3.15,3.1538,3.1707,3.18,3.18,3.18,3.18,3.18,3.1838,3.1911,3.2055,3.2179,3.2353,3.2606,3.2786,3.2945,3.3147,3.3324,3.3152,3.2675,3.2535,3.1885,3.0852,3.0417,3.0237,2.9891,2.9931,3.0023,3.0075,3.0133,3.0156,3.0121,3.0501,3.0573,3.0682,3.079,3.0803,3.0597,3.0578,3.0501,3.0392,3.0404,3.0404,3.0385,3.0414,3.0417,3.0433,3.0465,3.052,3.0588,3.0771,3.1097,3.1673,3.2318,3.3167,3.3972,3.4795,3.5176,3.5875,3.5951,3.5953,3.5975,3.5975,3.5977,3.5984,3.5999,3.5991,3.6019,3.6004,3.6009,3.6012,3.6034,3.6582,3.7187,3.8066,3.8945,3.9824,4.0508,4.0918,4.1113,4.1172,4.1191,4.1191,4.1191,4.1172,4.1152,4.1133,4.113,4.1109,4.1107,4.1104,4.1117,4.1097,4.1098,4.1103,4.111,4.1113,4.1109,4.1117,4.1103,4.1103,4.1117,4.1106,3.4101,3.4715,3.497,3.5245,3.5492,3.5571,3.5616,3.5346,3.4083,3.3423,3.3224,3.2083,3.1549,3.1538,3.1707,3.18,3.18,3.18,3.18,3.1818,3.1839,3.1912,3.2002,3.2214,3.2456,3.2589,3.277,3.2948,3.315,3.3324,3.3393,3.3254,3.2902,3.2344,3.2003,3.1648,3.12,3.0944,3.1017,3.1176,3.1211,3.0959,3.0572,3.041,3.0905,3.1219,3.1459,3.1934,3.2108,3.1488,3.1411,3.1027,3.0676,3.0541,3.0527,3.0385,3.039,3.0389,3.0411,3.048,3.0469,3.0644,3.1162,3.1569,3.2155,3.3069,3.3947,3.4513,3.5189,3.5648,3.5798,3.5843,3.584,3.5843,3.5894,3.5906,3.5919,3.5919,3.596,3.5994,3.6003,3.6011,3.6014,3.6152,3.668,3.7324,3.8144,3.9101,4.0059,4.0644,4.1074,4.1172,4.1191,4.1191,4.1191,4.1191,4.1191,4.1191,4.1172,4.1152,4.1131,4.1111,4.1108,4.1104,4.1102,4.1103,4.1108,4.1112,4.1113,4.1105,4.1109,4.1107,4.1108,4.1106,4.1097,3.425,3.4828,3.5018,3.5274,3.5526,3.5577,3.5616,3.5447,3.4455,3.3761,3.3232,3.2474,3.1839,3.1641,3.1707,3.18,3.18,3.18,3.18,3.1818,3.1857,3.1984,3.2055,3.2336,3.2574,3.2771,3.2932,3.3088,3.3256,3.3404,3.353,3.357,3.3313,3.3023,3.2645,3.2274,3.1943,3.1794,3.1758,3.1861,3.196,3.162,3.1346,3.1424,3.1599,3.1954,3.2138,3.2412,3.2579,3.2254,3.2158,3.1929,3.1663,3.1442,3.1207,3.0605,3.045,3.0429,3.0543,3.0741,3.1118,3.1204,3.1885,3.2596,3.3092,3.387,3.4574,3.5097,3.5385,3.5788,3.5807,3.5788,3.5791,3.5795,3.5829,3.5866,3.5888,3.588,3.5927,3.597,3.6004,3.6012,3.6015,3.6289,3.6758,3.7461,3.8281,3.9277,4.0332,4.0781,4.1191,4.1191,4.1191,4.1191,4.1191,4.1191,4.1191,4.1191,4.1191,4.1172,4.1172,4.1152,4.1133,4.1109,4.1108,4.1128,4.1111,4.1113,4.111,4.1101,4.1104,4.1103,4.1098,4.11,4.111,3.4497,3.4947,3.5128,3.5344,3.5577,3.5616,3.5616,3.5464,3.4793,3.4049,3.3376,3.2794,3.2144,3.1709,3.1688,3.18,3.18,3.18,3.18,3.1819,3.1929,3.2037,3.2214,3.2456,3.269,3.293,3.3135,3.3301,3.3378,3.3491,3.3605,3.3666,3.3748,3.3532,3.2981,3.298,3.2527,3.2317,3.2161,3.2235,3.2169,3.2262,3.2265,3.2345,3.2532,3.2724,3.2811,3.3184,3.3141,3.2977,3.287,3.2794,3.2695,3.2669,3.207,3.1059,3.088,3.0892,3.1109,3.1481,3.1922,3.1985,3.2761,3.3511,3.4056,3.4405,3.4914,3.5533,3.5708,3.5742,3.5737,3.5736,3.5756,3.5765,3.5771,3.5803,3.5852,3.5872,3.5919,3.5946,3.6003,3.6032,3.6054,3.6601,3.7109,3.7949,3.8769,3.9668,4.0605,4.0898,4.1191,4.1191,4.1191,4.1191,4.1191,4.1191,4.1191,4.1191,4.1191,4.1191,4.1191,4.1191,4.1152,4.1133,4.1131,4.1151,4.1133,4.1113,4.1111,4.1103,4.1103,4.1096,4.107,4.1075,4.1088,3.4828,3.5105,3.5354,3.552,3.56,3.5616,3.5616,3.5515,3.4861,3.41,3.3372,3.2802,3.2207,3.1673,3.1707,3.18,3.18,3.18,3.18,3.1801,3.1983,3.2126,3.2266,3.259,3.2852,3.3088,3.3271,3.3364,3.3452,3.3605,3.3689,3.3712,3.3748,3.3715,3.3545,3.3594,3.3801,3.3709,3.3753,3.3522,3.3078,3.3026,3.2751,3.2622,3.2938,3.3422,3.3554,3.3969,3.413,3.3643,3.3576,3.3251,3.2771,3.2602,3.258,3.2439,3.2481,3.2596,3.25,3.2615,3.2756,3.2923,3.3558,3.402,3.4449,3.4962,3.5378,3.5532,3.5633,3.5637,3.5654,3.5648,3.5629,3.5672,3.5704,3.576,3.5795,3.5862,3.5912,3.5944,3.5984,3.6071,3.6133,3.6836,3.7519,3.8398,3.9277,4.0156,4.0801,4.1074,4.1191,4.1191,4.1191,4.1191,4.1191,4.1191,4.1191,4.1191,4.1191,4.1191,4.1191,4.1191,4.1191,4.1172,4.1172,4.1152,4.1133,4.1113,4.1112,4.1105,4.1104,4.1076,4.1022,4.1052,4.1062,3.5175,3.5238,3.544,3.5543,3.56,3.5616,3.5616,3.5532,3.5245,3.4472,3.3546,3.3243,3.2565,3.1747,3.1709,3.18,3.18,3.18,3.18,3.1855,3.2036,3.2197,3.2353,3.269,3.3028,3.3214,3.339,3.3534,3.3591,3.3647,3.373,3.3766,3.3793,3.3807,3.382,3.3895,3.3941,3.3968,3.4049,3.4011,3.3806,3.3753,3.3672,3.3395,3.3829,3.4035,3.4218,3.4427,3.4608,3.4223,3.4214,3.413,3.3914,3.3884,3.3928,3.3926,3.4085,3.3745,3.3029,3.3338,3.3545,3.3814,3.4372,3.4937,3.5033,3.5258,3.556,3.5598,3.5616,3.5608,3.5639,3.5656,3.5668,3.567,3.5693,3.5737,3.5791,3.585,3.5907,3.5942,3.6061,3.6324,3.6641,3.7246,3.8066,3.9023,3.9668,4.0273,4.082,4.1113,4.1191,4.1191,4.1191,4.1191,4.1191,4.1191,4.1191,4.1191,4.1191,4.1191,4.1191,4.1191,4.1191,4.1172,4.1152,4.1133,4.1113,4.1113,4.1111,4.1102,4.1108,4.1059,4.1019,4.1,4.1013,3.5475,3.5383,3.5475,3.5566,3.56,3.5616,3.5616,3.5616,3.5583,3.4754,3.3613,3.3128,3.24,3.18,3.1726,3.18,3.18,3.18,3.18,3.1892,3.2054,3.2197,3.2404,3.2755,3.3091,3.3322,3.3491,3.3615,3.3698,3.3739,3.3753,3.3788,3.3807,3.3807,3.3815,3.3868,3.3928,3.4049,3.4148,3.416,3.4153,3.4189,3.4249,3.4307,3.442,3.4484,3.4528,3.455,3.4531,3.4545,3.454,3.4507,3.4521,3.4584,3.4652,3.4689,3.4831,3.4584,3.4059,3.4098,3.4389,3.4686,3.4968,3.5372,3.5412,3.5496,3.5522,3.5591,3.561,3.5639,3.5662,3.5681,3.5673,3.5681,3.5703,3.5751,3.5822,3.5937,3.6007,3.6019,3.6333,3.7008,3.7363,3.7832,3.8613,3.9609,4.0176,4.0527,4.084,4.1172,4.1191,4.1191,4.1191,4.1191,4.1191,4.1191,4.1191,4.1191,4.1191,4.1191,4.1191,4.1191,4.1172,4.1152,4.1132,4.113,4.1109,4.1109,4.1108,4.1117,4.1099,4.1072,4.1042,4.0997,4.0979,3.5577,3.5577,3.5577,3.56,3.5616,3.5616,3.5616,3.5616,3.5616,3.4754,3.3359,3.2284,3.1754,3.1591,3.1707,3.18,3.18,3.18,3.18,3.1873,3.2001,3.2179,3.2404,3.2721,3.3091,3.3349,3.352,3.3643,3.3766,3.3762,3.3793,3.3807,3.3807,3.3807,3.3834,3.3881,3.3959,3.4061,3.4161,3.4197,3.4216,3.4221,3.4264,3.4311,3.4316,3.434,3.4416,3.4427,3.4439,3.4473,3.4506,3.4591,3.4647,3.4778,3.484,3.4927,3.5035,3.4926,3.4852,3.4908,3.5208,3.5371,3.5449,3.5501,3.5489,3.5502,3.5528,3.5598,3.5616,3.5616,3.5628,3.5614,3.5648,3.5667,3.5752,3.5944,3.6021,3.6108,3.6172,3.6137,3.6665,3.7536,3.8203,3.8711,3.9199,4.0156,4.0547,4.0898,4.0957,4.1191,4.1191,4.1191,4.1191,4.1191,4.1191,4.1191,4.1191,4.1191,4.1191,4.1191,4.1191,4.1191,4.1152,4.1132,4.111,4.1105,4.1098,4.1094,4.1091,4.1106,4.109,4.1053,4.1013,4.0976,4.0968,3.5616,3.5616,3.5616,3.5616,3.5616,3.5616,3.5616,3.5616,3.5583,3.4754,3.3326,3.21,3.1481,3.1538,3.1688,3.18,3.18,3.18,3.18,3.1892,3.2036,3.2214,3.2421,3.2688,3.3042,3.3304,3.3481,3.3619,3.3707,3.3762,3.3807,3.3807,3.3807,3.3807,3.3834,3.3895,3.3985,3.4049,3.4136,3.4216,3.4216,3.4216,3.4228,3.4233,3.4233,3.4245,3.4269,3.4281,3.4293,3.4328,3.4416,3.4495,3.4594,3.4727,3.483,3.4917,3.5035,3.5166,3.5293,3.5361,3.542,3.5481,3.5489,3.5496,3.5496,3.5528,3.5553,3.5596,3.5622,3.5608,3.5656,3.5668,3.5665,3.5702,3.5863,3.6112,3.6432,3.661,3.6885,3.7103,3.7685,3.8436,3.9043,3.9609,4.0117,4.0664,4.0976,4.1191,4.1191,4.1191,4.1191,4.1191,4.1191,4.1191,4.1191,4.1191,4.1191,4.1191,4.1191,4.1191,4.1191,4.1152,4.1132,4.111,4.1105,4.1095,4.1083,4.1051,4.1059,4.1052,4.1031,4.0997,4.0972,4.0945,4.0954,3.5616,3.5616,3.5616,3.5616,3.5616,3.5616,3.5616,3.5616,3.5616,3.4815,3.3384,3.2137,3.15,3.1576,3.1707,3.18,3.18,3.18,3.18,3.1873,3.2001,3.2179,3.2352,3.2622,3.2932,3.3214,3.3404,3.3559,3.3698,3.3766,3.3793,3.3807,3.3807,3.3807,3.3834,3.3921,3.3998,3.4036,3.4124,3.4216,3.4216,3.4216,3.4216,3.4209,3.4209,3.4209,3.4209,3.4221,3.4233,3.4281,3.434,3.4431,3.4561,3.4678,3.4849,3.4974,3.5081,3.5218,3.5324,3.5398,3.5448,3.5489,3.5541,3.5528,3.554,3.5578,3.5602,3.5631,3.5637,3.5643,3.5704,3.5704,3.5977,3.6124,3.6333,3.6619,3.7212,3.7559,3.789,3.8206,3.8784,3.9238,3.959,4.0117,4.0527,4.0898,4.1035,4.1191,4.1191,4.1191,4.1191,4.1191,4.1191,4.1191,4.1191,4.1191,4.1191,4.1191,4.1191,4.1172,4.1172,4.1131,4.1109,4.1106,4.1098,4.1081,4.1059,4.1011,4.0994,4.1,4.0968,4.0952,4.0911,4.0883,4.0917,3.5616,3.5616,3.5616,3.5616,3.5616,3.5616,3.5616,3.5566,3.5436,3.4718,3.3471,3.2142,3.1521,3.1615,3.1727,3.18,3.18,3.18,3.18,3.1837,3.1929,3.2037,3.2249,3.2523,3.282,3.3101,3.3345,3.3549,3.3684,3.3766,3.3807,3.3807,3.3807,3.3807,3.382,3.3934,3.3998,3.4023,3.4117,3.4185,3.4216,3.4216,3.4216,3.4216,3.4216,3.4216,3.4216,3.4221,3.4245,3.4305,3.4393,3.4495,3.4615,3.4751,3.4898,3.5065,3.5204,3.5316,3.5398,3.5463,3.5496,3.5528,3.5579,3.5584,3.5608,3.5626,3.5631,3.5654,3.5679,3.5698,3.5704,3.5831,3.6288,3.66,3.6802,3.7386,3.8014,3.8451,3.8759,3.9246,3.9605,3.9941,4.0195,4.0527,4.0918,4.1152,4.1172,4.1191,4.1191,4.1191,4.1191,4.1191,4.1191,4.1191,4.1191,4.1191,4.1191,4.1191,4.1191,4.1172,4.1151,4.111,4.1106,4.11,4.1104,4.1083,4.1022,4.0953,4.0945,4.0915,4.0907,4.0873,4.0848,4.0848,4.0883,3.5616,3.5616,3.5616,3.5616,3.5616,3.5616,3.5616,3.5453,3.4706,3.4007,3.339,3.2149,3.1578,3.1653,3.1744,3.18,3.18,3.18,3.18,3.1818,3.1893,3.2037,3.2214,3.2439,3.2688,3.3026,3.3304,3.3491,3.3629,3.3734,3.3807,3.3807,3.3807,3.3807,3.3847,3.3921,3.3998,3.4023,3.4124,3.4216,3.4216,3.4216,3.4216,3.4216,3.4216,3.4216,3.4209,3.4233,3.4293,3.4381,3.4461,3.4594,3.4701,3.4831,3.4954,3.5134,3.5269,3.5354,3.5442,3.5528,3.5578,3.5578,3.559,3.5614,3.5626,3.5662,3.5673,3.5723,3.582,3.58,3.5704,3.6331,3.6788,3.7012,3.7415,3.8334,3.897,3.9249,3.957,4.0227,4.0721,4.0664,4.082,4.0781,4.1074,4.1191,4.1191,4.1191,4.1191,4.1191,4.1191,4.1191,4.1191,4.1191,4.1191,4.1191,4.1172,4.1152,4.1152,4.1133,4.111,4.1107,4.11,4.1111,4.1087,4.1075,4.0995,4.0926,4.0863,4.0834,4.0834,4.0834,4.0829,4.0815,4.0818,3.5616,3.5616,3.5616,3.5616,3.5616,3.5616,3.5622,3.5396,3.4228,3.3632,3.3373,3.2244,3.1617,3.169,3.1746,3.18,3.18,3.18,3.18,3.1818,3.1856,3.1983,3.2161,3.237,3.2622,3.2948,3.3241,3.3462,3.3619,3.3739,3.3793,3.3807,3.3807,3.3807,3.3847,3.3921,3.3998,3.4036,3.4142,3.4216,3.4216,3.4216,3.4216,3.4216,3.4216,3.4216,3.4221,3.425,3.434,3.445,3.4561,3.4699,3.4812,3.4936,3.5035,3.5201,3.5327,3.5422,3.5509,3.5552,3.5589,3.5633,3.5626,3.5637,3.5643,3.5673,3.5698,3.5762,3.6013,3.6149,3.6309,3.6999,3.7526,3.7763,3.8373,3.9286,3.9867,4.0139,4.0239,4.0932,4.1133,4.1172,4.1191,4.1172,4.1191,4.1191,4.1191,4.1191,4.1191,4.1191,4.1191,4.1191,4.1191,4.1172,4.1172,4.1152,4.1133,4.1113,4.1109,4.1107,4.1104,4.1099,4.1109,4.1115,4.1098,4.1064,4.0945,4.0886,4.0837,4.0814,4.0808,4.0808,4.0802,4.0806,4.0796,3.5616,3.5616,3.5616,3.5616,3.5616,3.5622,3.5667,3.5659,3.424,3.3734,3.3797,3.2267,3.1707,3.1781,3.18,3.18,3.18,3.18,3.18,3.18,3.1818,3.1964,3.2108,3.2266,3.2573,3.2898,3.3211,3.3448,3.3605,3.3739,3.3807,3.3807,3.3807,3.3807,3.3842,3.3921,3.3985,3.4036,3.4124,3.4185,3.4216,3.4216,3.4216,3.4216,3.4216,3.4209,3.4233,3.4281,3.4404,3.4506,3.4645,3.4771,3.4908,3.5027,3.5176,3.5316,3.5429,3.5515,3.5577,3.5581,3.5618,3.5668,3.5698,3.5704,3.5704,3.5704,3.58,3.6226,3.6646,3.6884,3.7146,3.7882,3.8597,3.899,3.9455,4.012,4.0718,4.0945,4.0926,4.1129,4.1171,4.1191,4.1191,4.1191,4.1191,4.1191,4.1191,4.1191,4.1191,4.1191,4.1191,4.1191,4.1191,4.1152,4.1132,4.1131,4.1128,4.1105,4.11,4.1116,4.1112,4.1238,4.1415,4.1446,4.1204,4.1118,4.1251,4.1094,4.0815,4.0797,4.0803,4.0803,4.0809,4.0808,4.0806,3.5616,3.5616,3.5616,3.5616,3.5622,3.5689,3.5773,3.5613,3.44,3.3859,3.3814,3.2362,3.178,3.18,3.18,3.18,3.18,3.18,3.18,3.18,3.18,3.1929,3.209,3.2249,3.2539,3.2882,3.3211,3.3466,3.3587,3.3721,3.3788,3.3807,3.3807,3.3807,3.386,3.3934,3.3972,3.4036,3.4136,3.4185,3.4216,3.4216,3.4216,3.4216,3.4216,3.4221,3.4269,3.4403,3.4555,3.468,3.4739,3.486,3.5048,3.5134,3.5242,3.5424,3.5528,3.5578,3.562,3.5643,3.5679,3.5704,3.5742,3.5704,3.5704,3.58,3.5974,3.6516,3.7489,3.7984,3.8186,3.8727,3.9296,3.9706,4.0131,4.0593,4.1085,4.1109,4.1105,4.113,4.1172,4.1191,4.1191,4.1191,4.1191,4.1191,4.1191,4.1191,4.1191,4.1191,4.1191,4.1191,4.1171,4.1132,4.1129,4.1108,4.1122,4.1116,4.1106,4.1172,4.1313,4.149,4.1779,4.1894,4.1829,4.1786,4.1792,4.1492,4.1087,4.0855,4.0816,4.0816,4.0797,4.0796,4.0861,3.5616,3.5616,3.5616,3.5622,3.5638,3.5521,3.5488,3.5288,3.4353,3.3782,3.3358,3.228,3.18,3.18,3.18,3.18,3.18,3.18,3.18,3.18,3.18,3.1929,3.209,3.2266,3.2539,3.2882,3.3211,3.3466,3.3601,3.3726,3.3807,3.3807,3.3807,3.3807,3.3847,3.3921,3.3998,3.4049,3.4111,3.4204,3.4216,3.4216,3.4216,3.4253,3.4253,3.432,3.4435,3.4647,3.5027,3.5168,3.5253,3.5429,3.5519,3.5477,3.5361,3.5508,3.556,3.5616,3.5637,3.5654,3.5684,3.58,3.6013,3.6187,3.6033,3.6013,3.6303,3.6787,3.8183,3.9257,3.9348,3.95,3.9868,4.0229,4.0614,4.0989,4.1078,4.1098,4.1127,4.1132,4.1152,4.1191,4.1191,4.1191,4.1191,4.1191,4.1191,4.1191,4.1191,4.1191,4.1172,4.1152,4.1132,4.1111,4.1106,4.1116,4.1145,4.1131,4.1052,4.1167,4.1438,4.1832,4.2205,4.2442,4.2607,4.2568,4.255,4.1873,4.1409,4.1255,4.1106,4.0971,4.0913,4.0803,4.09,3.5616,3.56,3.5532,3.5554,3.5618,3.5134,3.4861,3.4741,3.404,3.3478,3.2867,3.2145,3.18,3.18,3.18,3.18,3.18,3.18,3.18,3.18,3.18,3.1893,3.209,3.2266,3.2539,3.2882,3.3211,3.3495,3.3615,3.3739,3.3807,3.3807,3.3807,3.3807,3.3834,3.4192,3.4349,3.4412,3.4568,3.468,3.4358,3.4234,3.429,3.4414,3.45,3.4599,3.4843,3.5303,3.5935,3.6048,3.6183,3.635,3.6313,3.5959,3.5775,3.5734,3.5855,3.5911,3.6062,3.6201,3.6207,3.6361,3.6574,3.6884,3.6845,3.6091,3.6207,3.7666,3.9127,3.9837,4.0024,4.0213,4.0493,4.0643,4.0861,4.107,4.1094,4.1126,4.115,4.1152,4.1172,4.1191,4.1191,4.1191,4.1152,4.1172,4.1191,4.1172,4.1191,4.1191,4.1152,4.113,4.1128,4.1103,4.109,4.1115,4.1193,4.117,4.1214,4.163,4.2216,4.2481,4.2643,4.3148,4.3679,4.3453,4.3253,4.2589,4.2131,4.2067,4.1816,4.1293,4.1119,4.1229,4.1196,3.5616,3.5571,3.5096,3.5015,3.5065,3.4446,3.3891,3.3416,3.3244,3.304,3.2783,3.2162,3.18,3.18,3.18,3.18,3.18,3.18,3.18,3.18,3.18,3.1911,3.209,3.2266,3.2521,3.2882,3.3226,3.352,3.3684,3.378,3.3807,3.3807,3.388,3.3935,3.3985,3.4487,3.499,3.5008,3.544,3.5219,3.4569,3.4934,3.5194,3.5392,3.5566,3.6,3.6252,3.6527,3.6884,3.7034,3.7116,3.73,3.7494,3.6796,3.6486,3.6478,3.6505,3.6562,3.6733,3.7027,3.727,3.7464,3.7709,3.7806,3.7439,3.6361,3.6654,3.8487,3.9726,4.0267,4.0655,4.0843,4.1006,4.1028,4.1044,4.1088,4.1104,4.1149,4.1172,4.1191,4.1191,4.1191,4.1191,4.1172,4.1132,4.1113,4.1113,4.1133,4.1133,4.1133,4.1133,4.1103,4.1119,4.1109,4.1146,4.1332,4.1516,4.1762,4.1926,4.2413,4.2973,4.3458,4.386,4.4432,4.4822,4.4448,4.3984,4.3431,4.3051,4.293,4.2634,4.217,4.2324,4.2472,4.215,3.5622,3.5604,3.5066,3.4702,3.4415,3.3751,3.3225,3.2904,3.2559,3.2421,3.2369,3.199,3.18,3.18,3.18,3.18,3.18,3.18,3.18,3.18,3.1838,3.193,3.2091,3.2284,3.2589,3.2932,3.3301,3.3591,3.3739,3.3793,3.3807,3.3899,3.4064,3.4376,3.4463,3.5247,3.584,3.5877,3.6491,3.6166,3.5293,3.5757,3.6043,3.6291,3.6534,3.6969,3.7214,3.7412,3.7821,3.799,3.8099,3.7885,3.7877,3.7475,3.7308,3.7326,3.7366,3.7424,3.761,3.7924,3.8328,3.8367,3.8702,3.874,3.8901,3.8056,3.8225,3.9813,4.0286,4.0809,4.0828,4.0967,4.1031,4.1064,4.1067,4.1103,4.1129,4.1171,4.1191,4.1191,4.1191,4.1152,4.1151,4.115,4.111,4.111,4.1108,4.1104,4.1103,4.1137,4.1114,4.1165,4.123,4.1464,4.1698,4.1855,4.2019,4.2287,4.266,4.3143,4.3711,4.4506,4.5148,4.5275,4.5322,4.5206,4.4712,4.4187,4.3897,4.375,4.3443,4.3071,4.3359,4.3573,4.3315,3.5491,3.547,3.4894,3.4346,3.3733,3.3055,3.2731,3.2628,3.2093,3.1834,3.1869,3.1834,3.18,3.18,3.18,3.18,3.18,3.18,3.18,3.1819,3.1858,3.1984,3.2144,3.237,3.2673,3.3008,3.339,3.3577,3.3712,3.3931,3.4174,3.4156,3.4614,3.5169,3.545,3.6044,3.6657,3.6772,3.7057,3.7132,3.6965,3.6872,3.6892,3.6956,3.7138,3.7254,3.7678,3.8124,3.8699,3.8915,3.9033,3.8882,3.8599,3.8335,3.8207,3.8192,3.8253,3.8292,3.8402,3.8664,3.8734,3.8837,3.9346,3.9661,3.9797,3.9923,4.0073,4.032,4.079,4.0961,4.0974,4.1011,4.1064,4.1088,4.1102,4.1113,4.1172,4.1191,4.1191,4.1191,4.1152,4.1112,4.1111,4.1109,4.1107,4.1107,4.1104,4.11,4.1133,4.1197,4.1202,4.1356,4.1529,4.1804,4.2088,4.2442,4.2597,4.3108,4.3511,4.3924,4.4395,4.4996,4.5393,4.5528,4.5547,4.5467,4.5356,4.4947,4.4735,4.4523,4.4396,4.4152,4.4122,4.4306,4.4339,3.4623,3.4216,3.3539,3.3166,3.2969,3.2334,3.2007,3.199,3.1886,3.18,3.18,3.18,3.18,3.18,3.18,3.18,3.18,3.18,3.18,3.1818,3.1893,3.202,3.2214,3.2473,3.2805,3.3135,3.3448,3.3619,3.3973,3.4463,3.4784,3.4839,3.5642,3.6079,3.6221,3.6854,3.7488,3.7623,3.8058,3.8339,3.8247,3.8074,3.7748,3.8018,3.8525,3.8865,3.9187,3.9357,3.961,3.982,3.9919,3.9836,3.9616,3.9258,3.9092,3.9059,3.9101,3.9161,3.9271,3.965,3.9746,3.992,4.0332,4.0371,4.0453,4.0505,4.0601,4.0626,4.0941,4.0997,4.1011,4.1064,4.1108,4.1122,4.113,4.1152,4.1191,4.1191,4.1191,4.1172,4.1152,4.1112,4.1111,4.1108,4.1101,4.1099,4.1111,4.1124,4.1328,4.1325,4.1379,4.1691,4.198,4.1927,4.2144,4.2951,4.333,4.3852,4.4302,4.4588,4.4925,4.5304,4.5603,4.564,4.564,4.5571,4.5489,4.5379,4.5379,4.5178,4.5332,4.5266,4.509,4.4878,4.4796]}]]